[[{"header":{"parameterUnit":"m.s-1","parameterCategory":1,"la1":30.6,"la2":29.2853,"lo1":-89.7004,"lo2":-87.6739,"dy":0.0162,"dx":0.0183,"nx":112,"ny":82,"refTime":"2023-10-20T06:00:00:Z","depth":0,"parameterNumber":2,"parameterNumberName":"U-component_of_WINDS"},"data":[0.0,0.0,0.0,0.0,0.0,0.0,0.0,0.0,0.0,0.0,0.0,0.0,0.0,0.0,0.0,0.0,0.0,0.0,0.0,0.0,0.0,0.0,0.0,0.0,0.0,0.0,0.0,0.0,0.0,0.0,0.0,0.0,0.0,0.0,0.0,0.0,0.0,0.0,0.0,0.0,0.0,0.0,0.0,0.0,0.0,0.0,0.0,0.0,0.0,0.0,0.0,0.0,0.0,0.0,0.0,0.0,0.0,0.0,0.0,0.0,0.0,0.0,0.0,0.0,0.0,0.0,0.0,0.0,0.0,0.0,0.0,0.0,0.0,0.0,0.0,0.0,0.0,0.0,0.0,0.0,0.0,0.0,0.0,0.0,0.0,0.0,0.0,0.0,0.0,0.0,-3.2778,-3.3697,-3.33,-3.3101,-3.3499,-3.1308,-3.0897,-3.3201,0.0,0.0,0.0,0.0,0.0,0.0,0.0,0.0,0.0,0.0,0.0,0.0,0.0,0.0,0.0,0.0,0.0,0.0,0.0,0.0,0.0,0.0,0.0,0.0,0.0,0.0,0.0,0.0,0.0,0.0,0.0,0.0,0.0,0.0,0.0,0.0,0.0,0.0,0.0,0.0,0.0,0.0,0.0,0.0,0.0,0.0,0.0,0.0,0.0,0.0,0.0,0.0,0.0,0.0,0.0,0.0,0.0,0.0,0.0,0.0,0.0,0.0,0.0,0.0,0.0,0.0,0.0,0.0,0.0,0.0,0.0,0.0,0.0,0.0,0.0,0.0,0.0,0.0,0.0,0.0,0.0,0.0,0.0,0.0,0.0,0.0,0.0,0.0,0.0,0.0,0.0,0.0,0.0,0.0,0.0,0.0,0.0,0.0,0.0,0.0,0.0,0.0,0.0,0.0,-3.4433,-3.4628,-3.2951,-3.2246,-3.3201,-3.1206,-3.0587,-3.2123,0.0,0.0,0.0,0.0,0.0,0.0,0.0,0.0,0.0,0.0,0.0,0.0,0.0,0.0,0.0,0.0,0.0,0.0,0.0,0.0,0.0,0.0,0.0,0.0,0.0,0.0,0.0,0.0,0.0,0.0,0.0,0.0,0.0,0.0,0.0,0.0,0.0,0.0,0.0,0.0,0.0,0.0,0.0,0.0,0.0,0.0,0.0,0.0,0.0,0.0,0.0,0.0,0.0,0.0,0.0,0.0,0.0,0.0,0.0,0.0,0.0,0.0,0.0,0.0,0.0,0.0,0.0,0.0,0.0,0.0,0.0,0.0,0.0,0.0,0.0,0.0,0.0,0.0,0.0,0.0,0.0,0.0,0.0,0.0,0.0,0.0,0.0,0.0,0.0,0.0,0.0,0.0,0.0,0.0,0.0,0.0,0.0,0.0,0.0,0.0,0.0,0.0,0.0,-3.1819,-3.2123,-3.2123,-3.1257,-3.0897,-3.1359,-2.9932,-2.9565,-3.0794,-2.9828,0.0,0.0,0.0,0.0,0.0,0.0,0.0,0.0,0.0,0.0,0.0,0.0,0.0,0.0,0.0,0.0,0.0,0.0,0.0,0.0,0.0,0.0,0.0,0.0,0.0,0.0,0.0,0.0,0.0,0.0,0.0,0.0,0.0,0.0,0.0,0.0,0.0,0.0,0.0,0.0,0.0,0.0,0.0,0.0,0.0,0.0,0.0,0.0,0.0,0.0,0.0,0.0,0.0,0.0,0.0,0.0,0.0,0.0,0.0,0.0,0.0,0.0,0.0,0.0,0.0,0.0,0.0,0.0,0.0,0.0,0.0,0.0,0.0,0.0,0.0,0.0,0.0,0.0,0.0,0.0,0.0,0.0,0.0,0.0,0.0,0.0,0.0,0.0,0.0,0.0,0.0,0.0,0.0,0.0,0.0,0.0,0.0,0.0,0.0,0.0,0.0,0.0,-2.988,-2.9723,-3.0245,-2.9828,-2.9618,-2.9859,-2.89,-2.8654,-2.946,-2.8761,0.0,0.0,0.0,0.0,0.0,0.0,0.0,0.0,0.0,0.0,0.0,0.0,0.0,0.0,0.0,0.0,0.0,0.0,0.0,0.0,0.0,0.0,0.0,0.0,0.0,0.0,0.0,0.0,0.0,0.0,0.0,0.0,0.0,0.0,0.0,0.0,0.0,0.0,0.0,0.0,0.0,0.0,0.0,0.0,0.0,0.0,0.0,0.0,0.0,0.0,0.0,0.0,0.0,0.0,0.0,0.0,0.0,0.0,0.0,0.0,0.0,0.0,0.0,0.0,0.0,0.0,0.0,0.0,0.0,0.0,0.0,0.0,0.0,0.0,0.0,0.0,0.0,0.0,0.0,0.0,0.0,0.0,0.0,0.0,0.0,0.0,0.0,0.0,0.0,0.0,0.0,0.0,0.0,0.0,0.0,0.0,0.0,0.0,0.0,0.0,0.0,0.0,-2.967,-2.9217,-3.1257,-2.9618,-2.8814,-2.9828,-2.89,-2.8354,-2.8388,-2.8335,0.0,0.0,0.0,0.0,0.0,0.0,0.0,0.0,0.0,0.0,0.0,0.0,0.0,0.0,0.0,0.0,0.0,0.0,0.0,0.0,0.0,0.0,0.0,0.0,0.0,0.0,0.0,0.0,0.0,0.0,0.0,0.0,0.0,0.0,0.0,0.0,0.0,0.0,0.0,0.0,0.0,0.0,0.0,0.0,0.0,0.0,0.0,0.0,0.0,0.0,0.0,0.0,0.0,0.0,0.0,0.0,0.0,0.0,0.0,0.0,0.0,0.0,0.0,0.0,0.0,0.0,0.0,0.0,0.0,0.0,0.0,0.0,0.0,0.0,0.0,0.0,0.0,0.0,0.0,0.0,0.0,0.0,0.0,0.0,0.0,0.0,0.0,0.0,0.0,0.0,0.0,0.0,0.0,0.0,0.0,0.0,0.0,0.0,0.0,0.0,0.0,0.0,-2.9112,-2.8441,0.0,-2.8814,-2.8441,-2.8847,-2.8548,-2.8301,-2.8301,0.0,0.0,0.0,0.0,0.0,0.0,0.0,0.0,0.0,0.0,0.0,0.0,0.0,0.0,0.0,0.0,0.0,0.0,0.0,0.0,0.0,0.0,0.0,0.0,0.0,0.0,0.0,0.0,0.0,0.0,0.0,0.0,0.0,0.0,0.0,0.0,0.0,0.0,0.0,0.0,0.0,0.0,0.0,0.0,0.0,0.0,0.0,0.0,0.0,0.0,0.0,0.0,0.0,0.0,0.0,0.0,0.0,0.0,0.0,0.0,0.0,0.0,0.0,0.0,0.0,0.0,0.0,0.0,0.0,0.0,0.0,0.0,0.0,0.0,0.0,0.0,0.0,0.0,0.0,0.0,0.0,0.0,0.0,0.0,0.0,0.0,0.0,0.0,0.0,0.0,0.0,0.0,0.0,0.0,0.0,0.0,0.0,0.0,0.0,0.0,0.0,0.0,-2.925,-2.8528,-2.796,0.0,-2.8174,-2.8121,-2.8014,-2.8121,-2.8174,-2.8174,0.0,0.0,0.0,0.0,0.0,0.0,0.0,0.0,0.0,0.0,0.0,0.0,0.0,0.0,0.0,0.0,0.0,0.0,0.0,0.0,0.0,0.0,0.0,0.0,0.0,0.0,0.0,0.0,0.0,0.0,0.0,0.0,0.0,0.0,0.0,0.0,0.0,0.0,0.0,0.0,0.0,0.0,0.0,0.0,0.0,0.0,0.0,0.0,0.0,0.0,0.0,0.0,0.0,0.0,0.0,0.0,0.0,0.0,0.0,0.0,0.0,0.0,0.0,0.0,0.0,0.0,0.0,0.0,0.0,0.0,0.0,0.0,0.0,0.0,0.0,0.0,0.0,0.0,0.0,0.0,0.0,0.0,0.0,0.0,0.0,0.0,0.0,0.0,0.0,0.0,0.0,0.0,0.0,0.0,0.0,0.0,0.0,0.0,0.0,0.0,0.0,0.0,-2.8247,-2.8087,-2.7906,-2.7926,-2.7926,-2.7764,-2.7441,-2.7711,-2.7906,0.0,0.0,0.0,0.0,0.0,0.0,0.0,0.0,0.0,0.0,0.0,0.0,0.0,0.0,0.0,0.0,0.0,0.0,0.0,0.0,0.0,0.0,0.0,0.0,0.0,0.0,0.0,0.0,0.0,0.0,0.0,0.0,0.0,0.0,0.0,0.0,0.0,0.0,0.0,0.0,0.0,0.0,0.0,0.0,0.0,0.0,0.0,0.0,0.0,0.0,0.0,0.0,0.0,0.0,0.0,0.0,0.0,0.0,0.0,0.0,0.0,0.0,0.0,0.0,0.0,0.0,0.0,0.0,0.0,0.0,0.0,0.0,0.0,0.0,0.0,0.0,0.0,0.0,0.0,0.0,0.0,0.0,0.0,0.0,0.0,0.0,0.0,0.0,0.0,0.0,0.0,0.0,0.0,0.0,0.0,0.0,0.0,0.0,0.0,0.0,0.0,0.0,0.0,-2.8038,-2.7876,-2.788,-2.833,-2.8368,-2.8368,-2.8256,-2.8083,-2.8077,-2.8314,0.0,0.0,0.0,0.0,0.0,0.0,0.0,0.0,0.0,0.0,0.0,0.0,0.0,0.0,0.0,0.0,0.0,0.0,0.0,0.0,0.0,0.0,0.0,0.0,0.0,0.0,0.0,0.0,0.0,0.0,0.0,0.0,0.0,0.0,0.0,0.0,0.0,0.0,0.0,0.0,0.0,0.0,0.0,0.0,0.0,0.0,0.0,0.0,0.0,0.0,0.0,0.0,0.0,0.0,0.0,0.0,0.0,0.0,0.0,0.0,0.0,0.0,0.0,0.0,0.0,0.0,0.0,0.0,0.0,0.0,0.0,0.0,0.0,0.0,0.0,0.0,0.0,0.0,0.0,0.0,0.0,0.0,0.0,0.0,0.0,0.0,0.0,0.0,0.0,0.0,0.0,0.0,0.0,0.0,0.0,0.0,0.0,0.0,0.0,0.0,0.0,0.0,-2.8088,-2.7566,-2.7377,-2.8314,-2.8465,-2.8408,-2.8295,-2.7696,-2.738,-2.7548,0.0,0.0,0.0,0.0,0.0,0.0,0.0,0.0,0.0,0.0,0.0,0.0,0.0,0.0,0.0,0.0,0.0,0.0,0.0,0.0,0.0,0.0,0.0,0.0,0.0,0.0,0.0,0.0,0.0,0.0,0.0,0.0,0.0,0.0,0.0,0.0,0.0,0.0,0.0,0.0,0.0,0.0,0.0,0.0,0.0,0.0,0.0,0.0,0.0,0.0,0.0,0.0,0.0,0.0,0.0,0.0,0.0,0.0,0.0,0.0,0.0,0.0,0.0,0.0,0.0,0.0,0.0,0.0,0.0,0.0,0.0,0.0,0.0,0.0,0.0,0.0,0.0,0.0,0.0,0.0,0.0,0.0,0.0,0.0,0.0,0.0,0.0,0.0,0.0,0.0,0.0,0.0,0.0,0.0,0.0,0.0,0.0,0.0,0.0,0.0,0.0,0.0,-2.8218,-2.6982,-2.6521,-2.7742,-2.7932,-2.7818,-2.7588,-2.6597,-2.6041,-2.6099,0.0,0.0,0.0,0.0,0.0,0.0,0.0,0.0,0.0,0.0,0.0,0.0,0.0,0.0,0.0,0.0,0.0,0.0,0.0,0.0,0.0,0.0,0.0,0.0,0.0,0.0,0.0,0.0,0.0,0.0,0.0,0.0,0.0,0.0,0.0,0.0,0.0,0.0,0.0,0.0,0.0,0.0,0.0,0.0,0.0,0.0,0.0,0.0,0.0,0.0,0.0,0.0,0.0,0.0,0.0,0.0,0.0,0.0,0.0,0.0,-2.6105,0.0,0.0,0.0,0.0,0.0,0.0,0.0,0.0,0.0,0.0,0.0,0.0,0.0,0.0,0.0,0.0,0.0,0.0,0.0,0.0,0.0,0.0,0.0,0.0,0.0,0.0,0.0,0.0,0.0,0.0,0.0,0.0,0.0,0.0,0.0,0.0,0.0,0.0,0.0,0.0,0.0,-2.6813,-2.5653,-2.4995,-2.5649,-2.5682,-2.5682,-2.5622,-2.5103,-2.4882,-2.5179,-2.4893,0.0,0.0,0.0,0.0,0.0,0.0,0.0,0.0,0.0,0.0,0.0,0.0,0.0,0.0,0.0,0.0,0.0,0.0,0.0,0.0,0.0,0.0,0.0,0.0,0.0,0.0,0.0,0.0,0.0,0.0,0.0,0.0,0.0,0.0,0.0,0.0,0.0,0.0,0.0,0.0,0.0,0.0,0.0,0.0,0.0,0.0,0.0,0.0,0.0,0.0,0.0,0.0,0.0,0.0,0.0,0.0,0.0,0.0,0.0,0.0,-2.536,0.0,0.0,0.0,0.0,0.0,0.0,0.0,0.0,0.0,0.0,0.0,0.0,0.0,0.0,0.0,0.0,0.0,0.0,0.0,0.0,0.0,0.0,0.0,0.0,0.0,0.0,0.0,0.0,0.0,0.0,0.0,0.0,0.0,0.0,0.0,0.0,0.0,0.0,0.0,0.0,-2.56,-2.4587,-2.4101,-2.4917,-2.4994,-2.4994,-2.4994,-2.427,-2.3856,-2.4039,-2.3655,0.0,0.0,0.0,0.0,0.0,0.0,0.0,0.0,0.0,0.0,0.0,0.0,0.0,0.0,0.0,0.0,0.0,0.0,0.0,0.0,0.0,0.0,0.0,0.0,0.0,0.0,0.0,0.0,0.0,0.0,0.0,0.0,0.0,0.0,0.0,0.0,0.0,0.0,0.0,0.0,0.0,0.0,0.0,0.0,0.0,0.0,0.0,0.0,0.0,0.0,0.0,0.0,0.0,-2.2454,-2.1912,-2.1912,-2.1912,-2.1912,-2.1912,-2.3406,-2.3351,-2.2242,0.0,0.0,0.0,0.0,0.0,0.0,0.0,0.0,0.0,0.0,0.0,0.0,0.0,0.0,0.0,0.0,0.0,0.0,0.0,0.0,0.0,0.0,0.0,0.0,0.0,-2.1991,-2.2432,0.0,0.0,0.0,0.0,0.0,0.0,0.0,0.0,0.0,0.0,0.0,0.0,-2.4688,-2.3676,-2.3315,-2.4362,-2.444,-2.4409,-2.4409,-2.3417,-2.2764,-2.2764,-2.2472,-2.2389,0.0,0.0,0.0,0.0,0.0,0.0,0.0,0.0,0.0,0.0,0.0,0.0,0.0,0.0,0.0,0.0,0.0,0.0,0.0,0.0,0.0,0.0,0.0,0.0,0.0,0.0,0.0,0.0,0.0,0.0,0.0,0.0,-2.629,-2.6639,0.0,0.0,0.0,0.0,0.0,0.0,0.0,0.0,0.0,0.0,0.0,0.0,0.0,-2.2484,-2.2732,-2.2536,-2.2525,-2.2782,-2.2581,-2.251,-2.251,-2.251,-2.2296,-2.201,-2.2212,0.0,-2.1897,-2.1897,0.0,0.0,0.0,0.0,0.0,0.0,0.0,0.0,0.0,0.0,0.0,0.0,0.0,0.0,0.0,0.0,0.0,0.0,0.0,0.0,0.0,0.0,-2.2298,-2.2044,-2.1991,-2.2096,0.0,-2.238,-2.238,-2.238,-2.3357,0.0,0.0,0.0,0.0,0.0,0.0,0.0,-2.4133,-2.2967,-2.2184,-2.238,-2.2212,-2.2062,-2.2062,-2.1624,-2.1348,-2.1348,-2.1321,-2.1294,-2.1357,-2.1267,0.0,0.0,0.0,0.0,0.0,0.0,0.0,0.0,0.0,0.0,0.0,0.0,0.0,0.0,0.0,0.0,0.0,0.0,0.0,0.0,0.0,0.0,0.0,0.0,0.0,0.0,0.0,0.0,0.0,-2.3896,-2.3706,-2.391,-2.3379,-2.2983,0.0,0.0,0.0,0.0,0.0,0.0,0.0,0.0,0.0,-2.189,-2.189,-2.1882,-2.1793,-2.1793,-2.1855,-2.1978,-2.1978,-2.1978,-2.1978,-2.1978,-2.1906,-2.169,-2.169,-2.1699,-2.1691,-2.182,-2.2071,-2.2267,0.0,0.0,0.0,0.0,-2.2035,-2.1966,-2.1829,-2.176,0.0,-2.176,0.0,0.0,0.0,0.0,0.0,0.0,0.0,0.0,0.0,0.0,0.0,-2.2174,-2.2337,-2.2485,-2.2485,-2.2485,-2.2378,0.0,-2.2438,-2.2897,-2.2897,0.0,0.0,0.0,0.0,-2.2897,-2.2897,-2.2372,-2.1991,-2.1991,-2.1871,-2.179,-2.179,-2.1523,-2.1363,-2.1363,-2.1203,-2.1109,-2.1109,-2.1109,-2.1042,0.0,0.0,0.0,0.0,0.0,0.0,0.0,0.0,0.0,0.0,0.0,0.0,0.0,0.0,0.0,0.0,0.0,0.0,0.0,0.0,0.0,0.0,0.0,0.0,0.0,0.0,0.0,0.0,-2.1741,-2.159,-2.1723,-2.1672,-2.166,0.0,0.0,0.0,0.0,0.0,0.0,-2.1998,-2.1645,-2.153,-2.1822,-2.1906,-2.1799,-2.1583,-2.1208,-2.1014,-2.1085,-2.0704,-2.0507,-2.0518,-2.0575,-2.049,-2.0507,-2.0507,-2.0473,-2.055,-2.145,-2.1985,-2.2152,-2.2152,-2.2096,-2.1989,-2.1919,-2.1849,-2.1849,-2.1779,-2.1418,-2.1056,-2.1056,0.0,-2.0308,-1.9178,0.0,0.0,0.0,0.0,-2.068,-2.074,-2.0974,-2.1102,-2.1102,-2.1381,-2.1729,-2.2228,-2.2311,-2.2349,0.0,-2.2205,-2.2205,-2.2205,0.0,0.0,0.0,0.0,-2.2205,-2.2205,-2.2205,-2.2205,-2.2205,-2.2138,-2.2098,-2.2098,-2.183,-2.1735,-2.1735,-2.1456,-2.1296,-2.1229,-2.1229,-2.1189,-2.1109,0.0,0.0,0.0,0.0,0.0,0.0,0.0,0.0,0.0,0.0,0.0,0.0,0.0,0.0,0.0,0.0,0.0,0.0,0.0,0.0,0.0,0.0,0.0,0.0,0.0,0.0,0.0,0.0,0.0,-2.1567,-2.1368,0.0,0.0,0.0,0.0,-2.1181,-1.9897,-1.9815,-2.145,-2.0055,-1.991,-2.1474,-2.1546,-2.1667,-2.1848,-2.0269,-1.9638,-1.9854,-1.8478,-1.7807,-1.7807,-1.792,-1.791,-1.7807,-1.7807,-1.7683,-1.7776,-2.0416,-2.1678,-2.2025,-2.2025,-2.2228,-2.2502,-2.2144,-2.2001,-2.1929,-2.1654,-2.0477,-1.9152,-1.9152,-1.8259,-1.7132,-1.706,-1.7136,0.0,0.0,-1.7623,-1.7745,-1.7897,-1.7947,-1.7947,-1.7947,-1.7947,-1.8456,-2.0419,-2.0791,-2.1209,0.0,-2.2819,-2.2819,-2.2819,0.0,-2.2819,-2.2819,-2.2819,-2.2819,-2.2819,-2.2819,-2.2819,-2.2819,-2.2565,-2.2392,-2.2392,-2.2124,-2.1964,-2.1964,-2.1951,-2.1817,-2.1601,-2.1601,-2.1403,-2.1109,-2.1109,0.0,0.0,0.0,0.0,0.0,0.0,0.0,0.0,0.0,0.0,0.0,0.0,0.0,0.0,0.0,0.0,0.0,0.0,0.0,0.0,0.0,0.0,0.0,0.0,0.0,0.0,0.0,0.0,-1.9742,-1.975,0.0,-1.8455,-1.8393,-1.8321,-1.8187,-1.7749,-1.7786,-1.8591,-1.801,-1.814,-1.895,-1.896,-1.9063,-1.929,-1.8665,-1.8396,-1.8475,-1.8007,-1.7732,-1.7732,-1.7798,-1.7798,-1.7732,-1.7732,-1.7686,-1.7757,-1.8692,-1.8994,-1.8812,-1.8812,-1.8728,-1.8737,-1.8602,-1.8529,-1.8529,-1.8383,-1.7945,-1.7434,-1.7434,-1.6415,-1.5255,-1.5255,-1.5276,-1.5386,-1.5457,-1.6131,-1.6952,-1.6956,-1.7121,-1.7331,-1.7331,-1.7477,-1.7988,-1.8945,-1.9163,-1.9698,-2.154,-2.273,-2.3447,-2.3447,-2.3447,-2.3447,-2.3447,-2.3447,-2.3447,-2.3447,-2.3447,-2.338,-2.318,-2.306,-2.2926,-2.2726,-2.2432,-2.2258,-2.2258,-2.2084,-2.1937,-2.183,-2.183,-2.1777,-2.167,-2.1496,-2.139,0.0,0.0,0.0,0.0,0.0,0.0,0.0,0.0,0.0,0.0,0.0,0.0,0.0,0.0,0.0,0.0,0.0,0.0,0.0,0.0,0.0,0.0,0.0,0.0,0.0,0.0,-1.9194,-1.8176,-1.8113,-1.7819,-1.6868,-1.6721,-1.6721,-1.6721,-1.633,-1.6467,-1.7123,-1.6742,-1.683,-1.7629,-1.7639,-1.7704,-1.7826,-1.7284,-1.6977,-1.6977,-1.6483,-1.6279,-1.6279,-1.6267,-1.6258,-1.6279,-1.6279,-1.6245,-1.6185,-1.6185,-1.5973,-1.5795,-1.6855,-1.7105,-1.6936,-1.6936,-1.6889,-1.6824,-1.6229,-1.6005,-1.5931,-1.5417,-1.4479,-1.3611,-1.3611,-1.3572,-1.3542,-1.3595,-1.4356,-1.5191,-1.5176,-1.5385,-1.5653,-1.5653,-1.5847,-1.6343,-1.7311,-1.7536,-1.8136,-2.0318,-2.197,-2.3112,-2.3696,-2.3768,-2.3768,-2.3768,-2.3768,-2.3768,-2.3768,-2.3768,-2.3701,-2.35,-2.3474,-2.3394,-2.318,-2.2993,-2.2873,-2.2873,-2.2605,-2.2392,-2.2285,-2.2191,-2.2084,-2.1991,-2.1804,-2.1762,-2.1762,0.0,0.0,0.0,0.0,0.0,0.0,0.0,0.0,0.0,0.0,0.0,0.0,0.0,0.0,0.0,0.0,0.0,0.0,0.0,0.0,0.0,0.0,0.0,-1.9054,-1.7709,-1.6702,-1.6899,-1.6684,-1.6647,-1.6843,-1.6861,-1.6871,-1.6871,-1.5795,-1.5844,-1.7399,-1.61,-1.6035,-1.7608,-1.7687,-1.7687,-1.7696,-1.6131,-1.5353,-1.5353,-1.3915,-1.318,-1.3186,-1.3336,-1.3322,-1.318,-1.318,-1.3105,-1.2976,-1.2976,-1.2976,-1.329,-1.6423,-1.7557,-1.7477,-1.7477,-1.7346,-1.7017,-1.5412,-1.4806,-1.4576,-1.3049,-1.242,-1.2311,-1.2311,-1.221,-1.2196,-1.2271,-1.2311,-1.2345,-1.2481,-1.2623,-1.2739,-1.2739,-1.2854,-1.3509,-1.5463,-1.5931,-1.6643,-1.9083,-2.0444,-2.1703,-2.3392,-2.375,-2.375,-2.375,-2.3821,0.0,-2.3821,-2.3821,-2.3821,-2.3808,-2.3808,-2.3794,-2.3781,-2.3768,-2.3768,-2.3768,-2.35,-2.3207,-2.2968,-2.2619,-2.2311,-2.2017,-2.2004,-2.1991,-2.1912,0.0,0.0,0.0,0.0,0.0,0.0,0.0,0.0,0.0,0.0,0.0,0.0,0.0,0.0,0.0,0.0,0.0,0.0,0.0,0.0,0.0,0.0,-1.5847,-1.7183,-1.7083,-1.6489,-1.5344,-1.527,-1.4966,-1.38,-1.3844,-1.3919,-1.3919,-1.3727,-1.3764,-1.4241,-1.3887,-1.388,-1.4466,-1.4466,-1.4533,-1.4572,-1.417,-1.3931,-1.3931,-1.3562,-1.3336,-1.3342,-1.3383,-1.3376,-1.3336,-1.3336,-1.3315,-1.3281,-1.3281,-1.3281,-1.3343,-1.4077,-1.4279,-1.4234,-1.4234,-1.4204,-1.4166,-1.3699,-1.354,-1.3461,-1.2992,-1.2807,-1.2779,-1.2779,-1.2745,-1.2725,-1.2766,-1.2779,-1.2786,-1.2827,-1.2868,-1.2895,-1.2895,-1.2929,-1.3196,-1.4054,-1.4294,-1.4923,-1.7047,-1.7726,-1.8568,-2.0888,-2.2345,-2.3178,-2.3178,-2.4184,0.0,-2.5037,-2.5037,-2.4957,-2.4743,-2.4529,-2.4315,-2.4102,-2.3888,-2.3768,-2.3768,-2.3688,-2.3607,-2.3598,-2.3447,-2.3153,-2.2632,-2.2405,-2.1658,0.0,0.0,0.0,0.0,0.0,0.0,0.0,0.0,0.0,0.0,0.0,0.0,0.0,0.0,0.0,0.0,0.0,0.0,0.0,0.0,0.0,0.0,-1.4944,-1.4114,-1.4818,-1.5026,-1.4713,-1.3809,-1.3883,-1.3593,-1.2674,-1.2739,-1.2827,-1.2827,-1.2969,-1.3051,-1.3051,-1.3112,-1.318,-1.3268,-1.3268,-1.3308,-1.3403,-1.3403,-1.3403,-1.3403,-1.3403,-1.3403,-1.3403,-1.3403,-1.3403,0.0,-1.3403,-1.3403,-1.3403,-1.3403,-1.3403,0.0,0.0,0.0,0.0,0.0,-1.2963,-1.2963,-1.2963,-1.2963,-1.2963,-1.2963,-1.2963,-1.2963,-1.2963,-1.2963,-1.2963,-1.2963,-1.2963,-1.2963,-1.2963,-1.3003,-1.3051,-1.3051,-1.3098,-1.3227,-1.3464,-1.3545,-1.3944,-1.5304,-1.5707,0.0,-1.7947,-2.008,-2.1823,-2.2763,-2.3778,-2.4649,-2.5441,-2.5518,-2.5451,-2.5277,-2.5104,-2.493,-2.477,-2.4596,0.0,0.0,0.0,-2.3733,-2.2755,-2.2085,0.0,0.0,0.0,-2.0433,-1.9381,0.0,0.0,0.0,-2.0258,-2.0013,0.0,0.0,0.0,0.0,0.0,0.0,0.0,0.0,0.0,0.0,0.0,0.0,0.0,0.0,0.0,0.0,-1.3421,-1.2508,-1.2522,-1.2528,-1.2528,-1.2528,-1.2664,-1.2759,-1.2759,-1.2895,-1.2983,-1.2983,-1.3119,-1.32,-1.32,0.0,0.0,0.0,0.0,-1.3403,-1.3403,-1.3403,-1.3403,-1.3403,-1.3403,-1.3403,-1.3403,-1.3403,-1.3403,-1.3403,-1.3403,-1.3403,-1.3403,-1.3403,-1.3403,-1.3403,-1.3403,-1.3315,-1.3186,-1.3057,-1.301,-1.301,-1.301,0.0,0.0,-1.301,-1.301,-1.301,-1.301,-1.301,-1.301,-1.301,-1.301,-1.301,-1.301,-1.3105,-1.32,-1.32,-1.3302,-1.3403,-1.3403,-1.3403,-1.3569,-1.3983,-1.439,-1.4803,-1.5298,-1.7753,-2.0184,-2.2148,-2.2614,-2.3247,-2.4829,-2.4983,-2.4983,-2.4983,0.0,0.0,-2.4931,-2.4905,-2.4892,-2.4892,-2.441,-2.3225,-2.1268,-1.9781,-1.8947,-1.8947,-1.8966,-1.8789,-1.8654,-1.8526,-1.8359,-1.8195,-1.7803,-1.7609,0.0,0.0,0.0,0.0,0.0,0.0,0.0,0.0,0.0,0.0,0.0,0.0,0.0,0.0,0.0,-1.2958,-1.2733,-1.2549,-1.2671,-1.2684,-1.2684,-1.2684,-1.282,-1.2915,-1.2915,-1.3051,-1.3132,-1.3132,-1.3268,-1.3356,-1.3356,-1.3383,-1.3403,-1.3403,-1.3403,-1.3403,-1.3403,-1.3403,-1.3403,-1.3403,0.0,0.0,-1.3403,-1.3403,-1.3403,-1.3403,-1.3403,-1.3403,-1.3403,-1.3403,-1.3403,-1.3403,-1.3403,-1.3383,-1.3356,-1.3322,-1.3315,-1.3315,-1.3315,-1.3315,-1.3315,-1.3315,-1.3315,-1.3315,-1.3315,-1.3315,0.0,-1.3315,-1.3315,-1.3315,-1.3315,-1.3336,-1.3356,-1.3356,-1.3376,-1.3403,-1.3403,-1.3403,-1.3569,-1.3983,-1.4149,-1.448,-1.5298,-1.7267,-1.8989,-1.9382,-2.059,-2.1643,-2.1963,-2.2042,-2.2042,-2.2042,-2.1874,-2.1671,-2.1671,-2.148,-2.129,-2.129,-2.1201,-2.0957,-2.0473,-1.9865,-1.9436,-1.9436,-1.9064,-1.829,-1.7131,-1.7092,-1.6424,-1.5242,-1.7288,-1.8073,0.0,0.0,0.0,0.0,0.0,0.0,0.0,0.0,0.0,0.0,0.0,-1.3722,0.0,0.0,-1.2501,-1.2501,-1.2569,-1.2644,-1.2718,-1.2854,-1.2922,-1.2854,-1.2976,-1.3064,-1.3064,-1.32,-1.3288,-1.3288,-1.3356,-1.3403,-1.3403,-1.3403,-1.3403,-1.3403,-1.3403,-1.3403,-1.3403,-1.3403,-1.3403,-1.3403,-1.3403,-1.3403,-1.3403,-1.3403,-1.3403,-1.3403,-1.3403,-1.3403,-1.3403,-1.3403,-1.3403,-1.3403,-1.3403,-1.3403,-1.3403,-1.3403,-1.3403,-1.3403,-1.3403,-1.3403,-1.3403,-1.3403,-1.3403,-1.3403,-1.3403,-1.3403,-1.3403,-1.3403,-1.3403,-1.3403,-1.3403,-1.3403,-1.3403,-1.3403,-1.3403,-1.3403,-1.3403,-1.3403,-1.3486,-1.3735,-1.3901,-1.4232,-1.4645,-1.5777,-1.7074,-1.8381,-1.9349,-2.0241,-2.106,-2.1222,-2.1222,-2.1222,-2.1114,-2.0959,-2.0959,-2.0852,-2.0654,-2.0547,-1.9827,-1.9302,-1.9113,-1.8125,-1.7554,-1.7554,-1.7348,-1.6864,-1.6118,-1.6013,-1.5539,-1.4767,-1.5956,-1.6428,0.0,0.0,0.0,0.0,0.0,0.0,0.0,-1.3443,-1.2535,-1.2508,-1.2501,-1.2501,-1.2501,-1.2528,-1.2549,-1.2549,-1.2671,-1.2786,-1.2813,-1.3024,-1.3139,-1.3057,-1.3146,-1.3214,-1.3214,-1.3329,-1.3403,-1.3403,-1.3403,-1.3403,-1.3403,-1.3403,-1.3403,-1.3403,-1.3403,-1.3403,-1.3403,-1.3403,-1.3403,-1.3403,-1.3403,-1.3403,-1.3403,-1.3403,-1.3403,-1.3403,-1.3403,-1.3403,-1.3403,-1.3403,-1.3403,-1.3403,-1.3403,-1.3403,-1.3403,-1.3403,-1.3403,-1.3403,-1.3403,-1.3403,-1.3403,-1.3403,-1.3403,-1.3403,-1.3403,-1.3403,-1.3403,-1.3403,-1.3403,-1.3403,-1.3403,-1.3403,-1.3403,-1.3403,-1.3403,-1.3403,-1.3403,-1.3403,-1.3403,-1.3486,-1.3818,-1.4149,-1.4232,-1.4473,-1.5448,-1.7565,-1.781,-1.8381,-1.9836,-2.0079,-2.0089,-2.017,-2.017,-2.017,-2.017,-2.017,-2.0088,-1.9914,-1.8631,-1.7842,-1.7517,-1.6296,-1.5569,-1.5569,-1.5536,-1.5512,-1.5512,-1.5366,-1.522,-1.5065,-1.4927,-1.4708,-1.5548,-1.4099,-1.3035,-1.3035,-1.2986,-1.2899,0.0,-1.2681,-1.2664,-1.2528,-1.2501,-1.2501,-1.2501,-1.261,-1.2705,-1.2705,-1.2834,-1.2976,-1.3105,-1.3152,-1.3214,-1.3336,-1.3363,-1.3376,-1.3376,-1.339,-1.3403,-1.3403,-1.3403,-1.3403,-1.3403,-1.3403,-1.3403,-1.3403,-1.3403,-1.3403,-1.3403,-1.3403,-1.3403,-1.3403,-1.3403,-1.3403,-1.3403,-1.3403,-1.3403,-1.3403,-1.3403,-1.3403,-1.3403,-1.3403,-1.3403,-1.3403,-1.3403,-1.3403,-1.3403,-1.3403,-1.3403,-1.3403,-1.3403,-1.3403,-1.3403,-1.3403,-1.3403,-1.3403,-1.3403,-1.3403,-1.3403,-1.3403,-1.3403,-1.3403,-1.3403,-1.3403,-1.3403,-1.3403,-1.3403,-1.3403,-1.3403,-1.3403,-1.3486,-1.3901,-1.4066,-1.4232,-1.4548,-1.4631,-1.4796,-1.5126,-1.5126,-1.5373,-1.595,-1.6032,-1.6196,-1.6534,-1.6616,-1.6616,-1.6616,-1.6616,-1.6607,-1.65,-1.6336,-1.6254,-1.6229,-1.591,-1.5748,-1.5748,-1.5593,-1.5512,-1.5512,-1.5496,-1.5472,-1.5455,-1.5439,-1.5065,-1.3722,-1.3035,-1.2501,-1.2501,-1.2549,-1.2583,-1.2515,-1.2549,-1.2576,-1.2515,-1.2501,-1.2528,-1.2617,-1.2684,-1.2759,0.0,-1.299,-1.3105,-1.3166,-1.3247,-1.3329,-1.3397,-1.3403,-1.3403,-1.3403,-1.3403,-1.3403,-1.3403,-1.3403,-1.3403,-1.3403,-1.3403,-1.3403,-1.3403,-1.3403,-1.3403,-1.3403,-1.3403,-1.3403,-1.3403,-1.3403,-1.3451,-1.3532,-1.3532,-1.358,-1.3654,-1.3654,-1.3654,-1.3654,-1.3654,-1.3654,-1.3648,-1.3566,-1.3532,-1.3526,-1.3437,-1.3403,-1.3403,-1.3403,-1.3403,-1.3403,-1.3403,-1.3403,-1.3403,-1.3403,-1.3403,-1.3403,-1.3403,-1.3403,-1.3403,-1.3403,-1.3403,-1.3403,-1.3403,-1.3403,-1.3403,-1.3403,-1.3403,-1.3486,-1.3652,-1.3652,-1.3735,-1.3894,-1.3976,-1.3976,-1.3976,-1.4638,-1.5216,-1.5381,-1.5628,-1.5793,-1.5966,-1.5966,-1.5966,-1.5966,-1.5966,-1.5966,-1.5966,-1.5966,-1.5966,-1.5966,-1.5975,-1.5934,-1.5934,-1.5861,-1.5821,-1.5821,-1.5821,-1.5772,-1.5666,-1.5666,-1.5447,-1.2501,-1.2501,-1.2501,-1.2501,-1.2501,-1.2501,-1.2501,-1.2501,-1.2501,-1.2501,-1.2535,-1.2596,-1.2712,-1.28,-1.2888,-1.3003,-1.3139,-1.3234,-1.3234,-1.3329,-1.3403,-1.3403,-1.3403,-1.3403,-1.3403,-1.3403,-1.3403,-1.3403,-1.3403,-1.3403,-1.3403,-1.3403,-1.3403,-1.3403,-1.3403,-1.3403,-1.3403,-1.3403,-1.3424,-1.3464,-1.3464,-1.3546,-1.3688,-1.3688,-1.3743,-1.3838,-1.3838,-1.3838,-1.3838,-1.3838,-1.3838,-1.3831,-1.3729,-1.3688,-1.3675,-1.3559,-1.3471,-1.3403,-1.3403,-1.3403,-1.3403,-1.3403,-1.3403,-1.3403,-1.3403,-1.3403,-1.3403,-1.3403,-1.3403,-1.3403,-1.3403,-1.3403,-1.3403,-1.3403,-1.3403,-1.3403,-1.3403,-1.3403,-1.341,-1.3458,-1.3464,-1.3478,-1.3512,-1.3519,-1.3519,-1.3519,-1.4438,-1.5158,-1.5224,-1.5628,-1.5966,-1.5966,-1.5966,-1.5966,-1.5966,-1.5966,-1.5966,-1.5966,-1.5966,-1.5966,-1.5966,-1.5966,-1.5966,-1.5966,-1.5966,-1.5966,-1.5966,-1.5966,-1.5975,-1.5845,-1.5845,-1.578,-1.2501,-1.2501,-1.2501,-1.2501,-1.2501,-1.2501,-1.2501,-1.2501,-1.2501,-1.2501,-1.2617,-1.2725,-1.2732,-1.2963,-1.3159,-1.3166,-1.3295,-1.3397,-1.3397,-1.3397,-1.3403,-1.3403,-1.3403,-1.3403,0.0,-1.3403,-1.3403,-1.3403,-1.3403,-1.3403,-1.3403,-1.3403,-1.3403,-1.3403,-1.3403,-1.3403,-1.3403,-1.3403,-1.3478,-1.362,-1.362,-1.3695,-1.3745,-1.3745,-1.3838,-1.3838,-1.3838,-1.3838,-1.3838,-1.3838,-1.3838,-1.3838,-1.3838,-1.3745,-1.3745,-1.3831,-1.3648,-1.3403,-1.3403,-1.3403,-1.3403,-1.3403,-1.3403,-1.3403,-1.3403,-1.3403,-1.3403,-1.3403,-1.3403,-1.3403,-1.3403,-1.3403,-1.3403,-1.3403,-1.3403,-1.3403,-1.3403,-1.3403,-1.3444,-1.3593,-1.362,-1.3668,-1.3804,-1.3824,-1.3824,-1.3824,-1.4173,-1.457,-1.4675,-1.5463,-1.5966,-1.5966,-1.5966,-1.5966,-1.5966,-1.5966,-1.5966,-1.5966,-1.5966,-1.5966,-1.5966,-1.5966,-1.5966,-1.5966,-1.5966,-1.5966,-1.5966,-1.5966,-1.5958,-1.5958,-1.5958,-1.595,-1.2501,-1.2501,-1.2501,-1.2501,-1.2501,-1.2501,-1.2501,-1.2501,-1.2528,-1.263,-1.2698,-1.2793,-1.299,-1.3105,-1.3207,-1.3308,-1.337,-1.3403,-1.3403,-1.3403,-1.3403,-1.3403,-1.3403,0.0,0.0,0.0,0.0,-1.3403,-1.3403,-1.3403,-1.3403,-1.3403,-1.3403,-1.3403,-1.3403,-1.3451,-1.3553,-1.3553,-1.3627,-1.377,-1.3871,-1.3946,-1.3994,-1.4102,-1.4143,-1.4143,-1.4143,-1.4143,-1.4143,-1.4143,-1.4143,-1.4136,-1.4034,-1.3994,-1.398,-1.3878,-1.3777,-1.3695,-1.3695,-1.3695,-1.3695,-1.3695,-1.3695,-1.3695,-1.3695,-1.3695,-1.3695,-1.3695,-1.3695,-1.3695,-1.3695,-1.3695,-1.3695,-1.3695,-1.3695,-1.3695,-1.3695,-1.3695,-1.3709,-1.3756,-1.377,-1.3783,-1.3831,-1.3838,-1.3838,-1.3838,-1.4443,-1.509,-1.5478,-1.6061,-1.6397,-1.6397,-1.6397,-1.6397,-1.6397,-1.6397,-1.6349,-1.6227,-1.6219,-1.6162,-1.6048,-1.5966,-1.5966,-1.5966,-1.5966,-1.5966,-1.5966,-1.5966,-1.5966,-1.5966,-1.5966,-1.5966,-1.2501,-1.2501,-1.2501,-1.2501,-1.2501,-1.2501,-1.2501,-1.2542,-1.261,-1.2712,-1.2813,-1.2949,-1.3139,-1.3214,-1.3288,-1.3383,-1.3403,-1.3403,-1.3403,-1.3403,-1.3403,-1.3403,-1.3403,-1.3403,0.0,0.0,0.0,-1.3403,-1.3403,-1.3403,-1.3403,-1.3403,-1.3424,-1.3478,-1.3485,-1.3553,-1.3702,-1.3702,-1.3777,-1.3926,-1.4082,-1.415,-1.4156,-1.4251,-1.4299,-1.4299,-1.4299,-1.4299,-1.4299,-1.4299,-1.4299,-1.4292,-1.419,-1.415,-1.4143,-1.4041,-1.4007,-1.3987,-1.3878,-1.3838,-1.3838,-1.3838,-1.3838,-1.3838,-1.3838,-1.3838,-1.3838,-1.3838,-1.3838,-1.3838,-1.3838,-1.3838,-1.3838,-1.3838,-1.3838,-1.3838,-1.3838,-1.3838,-1.3858,-1.3912,-1.3926,-1.3939,-1.3994,-1.4007,-1.4007,-1.4007,-1.4613,-1.5174,-1.5398,-1.581,-1.615,-1.6321,-1.6321,-1.6406,-1.6576,-1.6584,-1.6527,-1.6414,-1.6397,-1.6349,-1.6243,-1.6235,-1.6235,-1.6235,-1.617,-1.6137,-1.6137,-1.6073,-1.5966,-1.5966,-1.5966,-1.5966,-1.2501,-1.2501,-1.2501,-1.2501,-1.2501,-1.2501,-1.2501,-1.2617,-1.2732,-1.2739,-1.2969,-1.3173,-1.3186,-1.3302,-1.3403,-1.3403,-1.3403,-1.3403,-1.3403,-1.3403,-1.3403,0.0,0.0,0.0,0.0,0.0,0.0,-1.3403,0.0,-1.3403,-1.3403,-1.341,-1.3478,-1.3627,-1.3634,-1.3709,-1.3851,-1.3858,-1.3939,-1.4089,-1.4231,-1.4299,-1.4299,-1.4299,-1.4299,-1.4299,-1.4299,-1.4299,-1.4299,-1.4299,-1.4299,-1.4299,-1.4299,-1.4299,-1.4299,-1.4299,-1.4299,-1.4258,-1.3966,-1.3865,-1.3865,-1.3865,-1.3865,-1.3865,-1.3865,-1.3865,-1.3865,-1.3865,-1.3865,-1.3865,-1.3865,-1.3865,-1.3865,-1.3865,-1.3865,-1.3865,-1.3865,-1.3865,-1.3905,-1.4055,-1.4082,-1.4129,-1.4278,-1.4299,-1.4299,-1.4299,-1.4646,-1.4885,-1.4593,-1.49,-1.5413,-1.5833,-1.5918,-1.6089,-1.6523,-1.6609,-1.66,-1.6592,-1.6592,-1.6592,-1.6584,-1.6584,-1.6584,-1.6584,-1.6405,-1.6316,-1.6316,-1.6154,-1.599,-1.599,-1.599,-1.599,-1.2501,-1.2501,-1.2501,-1.2501,-1.2501,-1.2501,-1.2501,-1.2617,-1.2759,-1.2874,-1.3044,-1.3207,-1.3322,-1.3376,-1.3403,-1.3403,-1.3403,0.0,-1.3403,-1.3403,0.0,-1.3403,-1.3403,-1.3403,-1.3403,-1.3403,0.0,0.0,-1.3403,-1.3403,-1.3403,-1.3512,-1.3587,-1.3627,-1.3729,-1.3858,-1.4014,-1.4122,-1.4204,-1.4245,-1.4278,-1.4299,-1.4299,-1.4299,-1.4299,-1.4299,-1.4299,-1.4299,-1.4299,-1.4299,-1.4299,-1.4299,-1.4299,-1.4299,-1.4299,-1.4299,-1.4299,-1.4292,-1.4211,-1.4183,-1.4183,-1.4183,-1.4183,-1.4183,-1.4183,-1.4183,-1.4183,-1.4183,-1.4183,-1.4183,-1.4183,-1.4183,-1.4183,-1.4183,-1.4183,-1.4183,-1.4183,-1.4183,-1.4197,-1.4238,-1.4245,-1.4251,-1.4292,-1.4299,-1.4299,-1.4299,-1.4387,-1.453,-1.4797,-1.5315,-1.5578,-1.5753,-1.5753,-1.584,-1.5927,-1.6276,-1.6396,-1.627,-1.6521,-1.6722,-1.6584,-1.6584,-1.6584,-1.6584,-1.6535,-1.6511,-1.6511,-1.6462,-1.6446,-1.6446,-1.6446,-1.6446,-1.2501,-1.2501,-1.2501,-1.2501,-1.2501,-1.2522,-1.2583,-1.2718,-1.2874,-1.3024,-1.3173,-1.3302,-1.3383,-1.3403,-1.3403,-1.3403,-1.3403,-1.3403,-1.3403,-1.3403,-1.3403,0.0,-1.3403,0.0,-1.3403,-1.3403,-1.3403,0.0,-1.3403,-1.3403,-1.3403,-1.3546,-1.3654,-1.3722,-1.3865,-1.4014,-1.417,-1.4258,-1.4299,-1.4299,-1.4299,-1.4299,-1.4299,-1.4299,-1.4299,-1.4299,0.0,-1.4299,-1.4299,-1.4299,-1.4299,-1.4299,-1.4299,-1.4299,-1.4299,-1.4299,-1.4299,-1.4299,-1.4299,-1.4299,-1.4299,-1.4299,-1.4299,-1.4299,-1.4299,-1.4299,-1.4299,-1.4299,-1.4299,-1.4299,-1.4299,-1.4299,-1.4299,-1.4299,-1.4299,-1.4299,-1.4299,-1.4299,-1.4299,-1.4299,-1.4299,-1.4299,-1.4299,-1.4299,-1.4299,-1.4299,-1.4299,-1.4387,-1.4646,-1.4911,-1.5175,-1.5352,-1.5352,-1.544,-1.5704,-1.5969,-1.6099,-1.6269,-1.6435,-1.6657,-1.682,-1.6812,-1.6812,-1.6812,-1.6738,-1.6698,-1.6698,-1.6617,-1.6584,-1.6584,-1.6584,-1.6584,-1.2501,-1.2501,-1.2501,-1.2501,-1.2501,-1.2542,-1.2698,-1.2847,-1.3003,-1.3146,-1.3295,-1.3403,-1.3403,-1.3403,-1.3403,-1.3403,-1.3403,-1.3403,-1.3403,-1.3403,-1.3403,-1.3403,-1.3403,-1.3403,-1.3403,-1.3403,-1.3403,-1.3403,-1.3417,-1.3431,-1.3431,-1.3573,-1.3736,-1.3899,-1.4034,-1.4163,-1.4299,-1.4299,-1.4299,-1.4299,-1.4299,-1.4299,-1.4299,-1.4299,-1.4299,-1.4299,-1.4299,0.0,-1.4299,-1.4299,-1.4299,-1.4299,-1.4299,-1.4299,-1.4299,-1.4299,-1.4299,-1.4299,-1.4299,-1.4299,-1.4299,-1.4299,-1.4299,-1.4299,-1.4299,-1.4299,-1.4299,-1.4299,-1.4299,-1.4299,-1.4299,-1.4299,-1.4299,-1.4299,-1.4299,-1.4299,-1.4299,-1.4299,-1.4299,-1.4299,-1.4299,-1.4299,-1.4299,-1.4299,-1.4299,-1.4299,-1.4319,-1.4326,-1.4326,-1.4312,-1.4476,-1.4822,-1.4911,-1.5087,-1.544,-1.5528,-1.5793,-1.6225,-1.6313,-1.6489,-1.7024,-1.7024,-1.7024,-1.7112,-1.6966,-1.6798,-1.6798,-1.673,-1.6649,-1.6649,-1.6649,-1.6649,-1.2501,-1.2501,-1.2501,-1.2501,-1.2501,-1.2542,-1.2698,-1.2847,-1.3003,-1.3146,-1.3295,-1.3403,-1.3403,-1.3403,-1.3403,-1.3403,-1.3403,-1.3403,-1.3403,-1.3403,-1.3403,0.0,-1.3403,-1.3403,-1.3403,-1.3403,0.0,0.0,0.0,-1.3587,-1.3587,-1.3729,-1.3933,-1.4211,-1.4245,-1.4272,-1.4299,-1.4299,-1.4299,-1.4299,-1.4299,-1.4299,-1.4299,-1.4299,-1.4299,-1.4299,-1.4299,0.0,-1.4299,-1.4299,-1.4299,-1.4299,-1.4299,-1.4299,-1.4299,-1.4299,-1.4299,-1.4299,-1.4299,-1.4299,-1.4299,-1.4299,-1.4299,-1.4299,-1.4299,-1.4299,-1.4299,-1.4299,-1.4299,-1.4299,-1.4299,-1.4299,-1.4299,-1.4299,-1.4299,-1.4299,-1.4299,-1.4299,-1.4299,-1.4299,-1.4299,-1.4299,-1.4299,-1.4299,-1.4299,-1.4299,-1.4401,-1.4475,-1.4475,-1.4373,-1.4299,-1.4387,-1.4387,-1.4476,-1.4564,-1.4911,-1.5168,-1.5256,-1.5616,-1.6057,-1.6489,-1.6489,-1.6665,-1.7112,-1.708,-1.7063,-1.7063,-1.7031,-1.7023,-1.7023,-1.7023,-1.7023,-1.2501,-1.2501,-1.2501,-1.2501,-1.2501,-1.2562,-1.2793,-1.2908,-1.3024,-1.3247,-1.3349,-1.3403,-1.3403,-1.3403,-1.3403,-1.3403,-1.3403,-1.3403,-1.3403,-1.3403,-1.3403,-1.3403,-1.3403,-1.3403,-1.3403,-1.3403,-1.3403,-1.3403,0.0,-1.3627,-1.3627,-1.3838,-1.4068,-1.4292,-1.4299,-1.4299,-1.4299,-1.4299,-1.4299,-1.4299,-1.4299,-1.4299,-1.4299,-1.4299,-1.4299,-1.4299,-1.4299,0.0,-1.4306,-1.438,-1.4407,-1.4421,-1.4496,-1.4529,-1.4529,-1.4529,-1.4529,-1.4529,-1.4529,-1.4529,-1.4529,-1.4529,-1.4428,-1.4299,-1.4299,-1.4299,-1.4299,-1.4299,-1.4299,-1.4299,-1.4299,-1.4299,-1.4299,-1.4299,-1.4299,-1.4299,-1.4299,-1.436,-1.4407,-1.4407,-1.4475,-1.4529,-1.4529,-1.4529,-1.4529,-1.4529,-1.4584,-1.4631,-1.4631,-1.457,-1.4529,-1.4529,-1.4529,-1.4529,-1.4529,-1.4634,-1.4846,-1.512,-1.5219,-1.5697,-1.6401,-1.6401,-1.6577,-1.7112,-1.7112,-1.7112,-1.7112,-1.7112,-1.7112,-1.7112,-1.7112,-1.7112,-1.2501,-1.2501,-1.2501,-1.2501,-1.2501,-1.2583,-1.2888,-1.2963,-1.3044,-1.3342,-1.3403,-1.3403,-1.3403,-1.3403,-1.3403,-1.3403,-1.3403,-1.3403,-1.3403,-1.3403,-1.3403,-1.3403,-1.3403,0.0,-1.3403,-1.3403,0.0,-1.3403,0.0,0.0,-1.3722,-1.3973,-1.4177,-1.4299,-1.4299,-1.4299,-1.4299,-1.4299,-1.4299,-1.4299,-1.4299,-1.4299,-1.4299,-1.4299,-1.4299,-1.4299,-1.4299,0.0,0.0,-1.4468,-1.4529,-1.457,-1.4692,-1.474,-1.474,-1.474,-1.474,-1.474,-1.474,-1.474,-1.474,-1.474,-1.4584,-1.4394,-1.4394,-1.4394,-1.4394,-1.4394,-1.4394,-1.4394,-1.4394,-1.4394,-1.4394,-1.4394,-1.4394,-1.4394,-1.4394,-1.4482,-1.4563,-1.4563,-1.4658,-1.474,-1.474,-1.474,-1.474,-1.474,-1.4767,-1.4787,-1.4787,-1.4814,-1.4835,-1.4835,-1.4774,-1.474,-1.474,-1.4631,-1.4744,-1.5104,-1.4984,-1.5269,-1.6156,-1.6333,-1.6583,-1.6993,-1.7081,-1.7153,-1.7112,-1.7112,-1.7112,-1.7112,-1.7112,-1.7112,-1.2501,-1.2501,-1.2501,-1.2501,-1.2501,-1.2583,-1.2888,-1.2963,-1.3044,-1.3342,-1.3403,-1.3403,-1.3403,-1.3403,-1.3403,-1.3403,-1.3403,-1.3403,-1.3403,-1.3403,-1.3403,-1.3403,0.0,0.0,-1.3403,-1.3403,-1.3403,-1.3403,0.0,0.0,-1.4021,-1.419,-1.4285,-1.4299,-1.4299,-1.4299,-1.4299,-1.4299,-1.4299,-1.4299,-1.4299,-1.4299,-1.4299,-1.4299,-1.4299,-1.4299,-1.4299,0.0,0.0,-1.4509,-1.459,-1.4719,-1.4733,-1.474,-1.474,-1.474,-1.474,-1.474,-1.474,-1.474,-1.474,-1.474,-1.4719,-1.4699,-1.4699,-1.4699,-1.4699,-1.4699,-1.4699,-1.4699,-1.4699,-1.4699,-1.4699,-1.4699,-1.4699,-1.4699,-1.4699,-1.4713,-1.4719,-1.4719,-1.4733,-1.474,-1.474,-1.474,-1.474,-1.474,-1.4862,-1.495,-1.495,-1.5065,-1.514,-1.514,-1.4903,-1.474,-1.474,-1.4726,-1.4719,-1.4719,-1.4706,-1.4972,-1.5426,-1.597,-1.6348,-1.6643,-1.7088,-1.7283,-1.7112,-1.7112,-1.7112,-1.7112,-1.7112,-1.7112,-1.2501,-1.2501,-1.2501,-1.2501,-1.2501,-1.2583,-1.2888,-1.2963,-1.3044,-1.3342,-1.3403,-1.3403,-1.3403,-1.3403,-1.3403,-1.3403,-1.3403,-1.3403,-1.3403,-1.3403,-1.3403,-1.3403,-1.3403,0.0,0.0,0.0,-1.3478,0.0,0.0,0.0,-1.4197,-1.4265,-1.4299,-1.4299,-1.4299,-1.4299,-1.4299,-1.4299,-1.4299,-1.4299,-1.4299,-1.4299,-1.4299,-1.4299,-1.4299,-1.4306,-1.4387,0.0,0.0,-1.4713,-1.4821,-1.4889,-1.497,-1.5004,-1.5004,-1.5004,-1.5004,-1.5004,-1.5004,-1.5004,-1.5004,-1.5004,-1.5004,-1.497,-1.4794,-1.474,-1.474,-1.474,-1.474,-1.474,-1.474,-1.474,-1.474,-1.474,-1.474,-1.474,-1.474,-1.4814,-1.4875,-1.4875,-1.495,-1.5004,-1.5004,-1.5004,-1.5004,-1.5004,-1.5059,-1.5099,-1.5099,-1.5147,-1.5181,-1.5181,-1.5079,-1.5004,-1.5004,-1.493,-1.4875,-1.4875,-1.4794,-1.4922,-1.5385,-1.5651,-1.6076,-1.6731,-1.7002,-1.724,-1.7429,-1.7429,-1.7429,-1.7429,-1.7429,-1.7429,-1.2501,-1.2501,-1.2501,-1.2501,-1.2535,-1.2637,-1.2901,-1.299,-1.3091,-1.3349,-1.3403,-1.3403,-1.3403,-1.3403,-1.3403,-1.3403,-1.3403,-1.3403,-1.3403,-1.3403,-1.3403,-1.3403,0.0,-1.3451,0.0,-1.3403,-1.3526,0.0,0.0,0.0,-1.4285,-1.4299,-1.4299,-1.4299,-1.4299,-1.4299,-1.4299,-1.4299,-1.4299,-1.4299,-1.4299,-1.4299,-1.4299,-1.4299,-1.4299,-1.4306,0.0,0.0,0.0,-1.4862,-1.4997,-1.5045,-1.5147,-1.5181,-1.5181,-1.5181,-1.5181,-1.5181,-1.5181,-1.5181,-1.5181,-1.5181,-1.5181,-1.5147,-1.4936,-1.4869,-1.4869,-1.4869,-1.4869,-1.4869,-1.4869,-1.4869,-1.4869,-1.4869,-1.4869,-1.4869,-1.4869,-1.4957,-1.5031,-1.5031,-1.5113,-1.5181,-1.5181,-1.5181,-1.5181,-1.5181,-1.5181,-1.5181,-1.5181,-1.5181,-1.5181,-1.5181,-1.5181,-1.5181,-1.5181,-1.5092,-1.5031,-1.5031,-1.493,-1.4961,-1.5335,-1.5427,-1.5865,-1.6545,-1.6636,-1.6879,-1.7187,-1.7368,-1.7368,-1.7368,-1.7549,-1.764,-1.2501,-1.2501,-1.2501,-1.2501,-1.2617,-1.2766,-1.2929,-1.3071,-1.3214,-1.337,-1.3403,-1.3403,-1.3403,-1.3403,-1.3403,-1.3403,-1.3403,-1.3403,-1.3403,-1.3403,-1.3403,0.0,0.0,-1.3566,-1.3417,-1.3403,-1.3526,0.0,0.0,0.0,-1.4285,-1.4299,-1.4299,-1.4299,-1.4299,-1.4299,-1.4299,-1.4299,-1.4299,-1.4299,-1.4299,-1.4299,-1.4299,-1.4299,-1.4299,0.0,0.0,0.0,0.0,-1.4909,-1.5052,-1.5181,-1.5181,-1.5181,-1.5181,-1.5181,-1.5181,-1.5181,-1.5181,-1.5181,-1.5181,-1.5181,-1.5181,-1.5181,-1.5181,-1.5174,-1.5174,-1.5174,-1.5174,-1.5174,-1.5174,-1.5174,-1.5174,-1.5174,-1.5174,-1.5174,-1.5174,-1.5181,-1.5181,-1.5181,-1.5181,-1.5181,-1.5181,-1.5181,-1.5181,-1.5181,-1.5181,-1.5181,-1.5181,-1.5181,-1.5181,-1.5181,-1.5181,-1.5181,-1.5181,-1.5181,-1.5181,-1.5181,-1.5181,-1.5174,-1.5174,-1.565,-1.586,-1.5696,-1.6158,-1.636,-1.6196,-1.6651,-1.6923,-1.6923,-1.7368,-1.764,-1.2501,-1.2501,-1.2501,-1.2501,-1.2617,-1.2773,-1.2929,-1.3071,-1.3214,-1.337,-1.3403,-1.3403,-1.3403,-1.3403,-1.3403,-1.3403,-1.3403,-1.3403,-1.3403,-1.3403,0.0,-1.3403,-1.3444,-1.3451,0.0,0.0,0.0,0.0,0.0,0.0,-1.4285,-1.4299,-1.4299,-1.4299,-1.4299,-1.4299,-1.4299,-1.4299,-1.4299,-1.4299,-1.4299,-1.4299,-1.4299,-1.4299,0.0,0.0,0.0,0.0,0.0,-1.5059,-1.514,-1.5181,-1.5181,-1.5181,-1.5181,-1.5181,-1.5181,-1.5181,-1.5181,-1.5181,-1.5181,-1.5181,-1.5181,-1.5181,-1.5181,-1.5181,-1.5181,-1.5181,-1.5181,-1.5181,-1.5181,-1.5181,-1.5181,-1.5181,-1.5181,-1.5181,-1.5181,-1.5181,-1.5181,-1.5181,-1.5181,-1.5181,-1.5181,-1.5181,-1.5181,-1.5181,-1.5181,-1.5181,-1.5181,-1.5181,-1.5181,-1.5181,-1.5181,-1.5181,-1.5181,-1.5181,-1.5181,-1.5181,-1.5181,-1.5181,-1.5181,-1.5368,-1.5535,-1.586,-1.5953,-1.6212,-1.6524,-1.671,-1.6895,-1.7273,-1.7728,-1.8005,-1.2501,-1.2501,-1.2501,-1.2501,-1.2657,-1.284,-1.2942,-1.3119,-1.3288,-1.3383,-1.3403,-1.3403,-1.3403,-1.3403,-1.3403,-1.3403,-1.3403,-1.3403,-1.3403,0.0,0.0,-1.3478,0.0,0.0,0.0,-1.3437,0.0,0.0,0.0,0.0,-1.4285,-1.4299,-1.4299,-1.4299,-1.4299,-1.4299,-1.4299,-1.4299,-1.4299,-1.4299,-1.4299,-1.4299,-1.4299,-1.4299,0.0,0.0,0.0,0.0,0.0,-1.5126,-1.5181,-1.5181,-1.5181,-1.5181,-1.5181,-1.5181,-1.5181,-1.5181,-1.5181,-1.5181,-1.5181,-1.5181,-1.5181,-1.5181,-1.5181,-1.5181,-1.5181,-1.5181,-1.5181,-1.5181,-1.5181,-1.5181,-1.5181,-1.5181,-1.5181,-1.5181,-1.5181,-1.5181,-1.5181,-1.5181,-1.5181,-1.5181,-1.5181,-1.5181,-1.5181,-1.5181,-1.5181,-1.5181,-1.5181,-1.5181,-1.5181,-1.5181,-1.5181,-1.5181,-1.5181,-1.5181,-1.5181,-1.5181,-1.5181,-1.5181,-1.5181,-1.5181,-1.5368,-1.5657,-1.5657,-1.5838,-1.6119,-1.6306,-1.6774,-1.7437,-1.7709,-1.7989,0.0,-1.2501,-1.2501,-1.2501,-1.2732,-1.2963,-1.2963,-1.3193,0.0,-1.3403,-1.3403,-1.3403,-1.3403,-1.3403,-1.3403,-1.3403,-1.3403,-1.3403,0.0,-1.3403,0.0,0.0,-1.3485,0.0,-1.36,0.0,0.0,0.0,0.0,0.0,-1.4272,-1.4292,-1.4299,-1.4299,-1.4299,-1.4299,-1.4299,-1.4299,-1.4299,-1.4299,-1.4299,-1.4299,-1.4299,-1.4299,0.0,0.0,0.0,0.0,0.0,-1.5126,-1.5181,-1.5181,-1.5181,-1.5181,-1.5181,-1.5181,-1.5181,-1.5181,-1.5181,-1.5181,-1.5181,-1.5181,-1.5181,-1.5181,-1.5181,-1.5181,-1.5181,-1.5181,-1.5181,-1.5181,-1.5181,-1.5181,-1.5181,-1.5181,-1.5181,-1.5181,-1.5181,-1.5181,-1.5181,-1.5181,-1.5181,-1.5181,-1.5181,-1.5181,-1.5181,-1.5181,-1.5181,-1.5181,-1.5181,-1.5181,-1.5181,-1.5181,-1.5181,-1.5181,-1.5181,-1.5181,-1.5181,-1.5181,-1.5181,-1.5181,-1.5181,-1.5181,-1.5181,-1.5181,-1.5181,-1.5181,-1.5181,-1.5657,-1.6407,-1.725,-1.7343,-1.7616,-1.2501,0.0,-1.2501,-1.2501,-1.2732,-1.2963,0.0,-1.3193,-1.3403,-1.3403,-1.3403,-1.3403,-1.3403,-1.3403,-1.3403,-1.3403,-1.3403,-1.3403,-1.3403,-1.3403,0.0,-1.3451,-1.3424,-1.3417,-1.3451,0.0,0.0,0.0,0.0,-1.3926,-1.4116,-1.4238,-1.4299,-1.4299,-1.4299,-1.4299,-1.4299,-1.4299,-1.4299,-1.4299,-1.4299,-1.4299,-1.4299,-1.4299,0.0,0.0,0.0,0.0,-1.5133,-1.5167,-1.5181,-1.5181,-1.5181,-1.5181,-1.5181,-1.5181,-1.5181,-1.5181,-1.5181,-1.5181,-1.5181,-1.5181,-1.5181,-1.5181,-1.5181,-1.5181,-1.5181,-1.5181,-1.5181,-1.5181,-1.5181,-1.5181,-1.5181,-1.5181,-1.5181,-1.5181,-1.5181,-1.5181,-1.5181,-1.5181,-1.5181,-1.5181,-1.5181,-1.5181,-1.5181,-1.5181,-1.5181,-1.5181,-1.5181,-1.5181,-1.5181,-1.5181,-1.5181,-1.5181,-1.5181,-1.5181,-1.5181,-1.5181,-1.5181,-1.5181,-1.5181,-1.5181,-1.5181,-1.5181,-1.5181,-1.5181,-1.5181,-1.5657,-1.6032,-1.622,-1.6681,-1.6962,-1.2501,-1.2501,-1.2501,-1.2501,-1.2678,-1.2874,-1.2942,-1.3132,-1.3315,-1.339,-1.3403,-1.3403,-1.3403,-1.3403,-1.3403,-1.3403,-1.3403,0.0,0.0,0.0,-1.3403,-1.3403,-1.3403,-1.3403,0.0,0.0,0.0,0.0,0.0,-1.3905,-1.4061,-1.4217,-1.4299,-1.4299,-1.4299,-1.4299,-1.4299,-1.4299,-1.4299,-1.4299,-1.4299,-1.4299,-1.4299,-1.4367,-1.4523,0.0,0.0,0.0,-1.5181,-1.5181,-1.5181,-1.5181,-1.5181,-1.5181,-1.5181,-1.5181,-1.5181,-1.5181,-1.5181,-1.5181,-1.5181,-1.5181,-1.5181,-1.5181,-1.5181,-1.5181,-1.5181,-1.5181,-1.5181,-1.5181,-1.5181,-1.5181,-1.5181,-1.5181,-1.5181,-1.5181,-1.5181,-1.5181,-1.5181,-1.5181,-1.5181,-1.5181,-1.5181,-1.5181,-1.5181,-1.5181,-1.5181,-1.5181,-1.5181,-1.5181,-1.5181,-1.5181,-1.5181,-1.5181,-1.5181,-1.5181,-1.5181,-1.5181,-1.5181,-1.5181,-1.5181,-1.5181,-1.5181,-1.5181,-1.5181,-1.5181,-1.5181,-1.5462,-1.5657,-1.5938,-1.622,-1.6494,-1.2501,-1.2501,-1.2501,-1.2501,-1.2617,-1.2773,-1.2929,-1.3071,-1.3214,-1.337,-1.3403,-1.3397,-1.337,-1.3383,-1.3397,-1.337,-1.3383,0.0,-1.3403,-1.3403,-1.3403,-1.3403,-1.3403,0.0,0.0,0.0,0.0,0.0,0.0,-1.3871,-1.4027,-1.4183,-1.4278,-1.4299,-1.4299,-1.4299,-1.4299,-1.4299,-1.4299,-1.4299,-1.4299,-1.4299,-1.4306,-1.4428,-1.4577,0.0,0.0,0.0,-1.5181,-1.5181,-1.5181,-1.5181,-1.5181,-1.5181,-1.5181,-1.5181,-1.5181,-1.5181,-1.5181,-1.5181,-1.5181,-1.5181,-1.5181,-1.5181,-1.5181,-1.5181,-1.5181,-1.5181,-1.5181,-1.5181,-1.5181,-1.5181,-1.5181,-1.5181,-1.5181,-1.5181,-1.5181,-1.5181,-1.5181,-1.5181,-1.5181,-1.5181,-1.5181,-1.5181,-1.5181,-1.5181,-1.5181,-1.5181,-1.5181,-1.5181,-1.5181,-1.5181,-1.5181,-1.5181,-1.5181,-1.5181,-1.5181,-1.5181,-1.5181,-1.5181,-1.5181,-1.5181,-1.5181,-1.5181,-1.5181,-1.5181,-1.5181,-1.5181,-1.5368,-1.5751,-1.5751,-1.6025,-1.2501,-1.2501,-1.2501,-1.2501,-1.2617,-1.2773,-1.2929,-1.3071,-1.3214,-1.337,-1.3403,-1.3363,-1.3234,-1.3315,-1.3356,-1.3227,-1.3315,-1.3403,0.0,0.0,-1.3403,-1.3403,0.0,0.0,0.0,0.0,0.0,0.0,0.0,-1.3722,-1.3871,-1.4021,-1.4163,-1.4299,-1.4299,-1.4299,-1.4299,-1.4299,-1.4299,-1.4299,-1.4299,-1.4299,-1.4299,-1.4326,-1.4482,-1.474,0.0,-1.493,-1.5181,-1.5181,-1.5181,-1.5181,-1.5181,-1.5181,-1.5181,-1.5181,-1.5181,-1.5181,-1.5181,-1.5181,-1.5181,-1.5181,-1.5181,-1.5181,-1.5181,-1.5181,-1.5181,-1.5181,-1.5181,-1.5181,-1.5181,-1.5181,-1.5181,-1.5181,-1.5181,-1.5181,-1.5181,-1.5181,-1.5181,-1.5181,-1.5181,-1.5181,-1.5181,-1.5181,-1.5181,-1.5181,-1.5181,-1.5181,-1.5181,-1.5181,-1.5181,-1.5181,-1.5181,-1.5181,-1.5181,-1.5181,-1.5181,-1.5181,-1.5181,-1.5181,-1.5181,-1.5181,-1.5181,-1.5181,-1.5181,-1.5181,-1.5181,-1.5181,-1.5275,-1.5275,-1.5275,-1.5368,-1.2501,-1.2501,-1.2501,-1.2501,-1.2556,-1.2651,-1.28,-1.2888,-1.2996,-1.3227,-1.3275,-1.3281,-1.3295,-1.3356,-1.3376,-1.3308,0.0,-1.3403,-1.3403,-1.3403,-1.3403,0.0,0.0,0.0,0.0,0.0,0.0,0.0,0.0,0.0,-1.3745,-1.3987,-1.4143,-1.4292,-1.4299,-1.4299,-1.4299,-1.4299,-1.4299,-1.4299,-1.4299,-1.4299,-1.4299,-1.438,-1.4536,-1.4746,0.0,-1.4984,-1.5181,-1.5181,-1.5181,-1.5181,-1.5181,-1.5181,-1.5181,-1.5181,-1.5181,-1.5181,-1.5181,-1.5181,-1.5181,-1.5181,-1.5181,-1.5181,-1.5181,-1.5181,-1.5181,-1.5181,-1.5181,-1.5181,-1.5181,-1.5181,-1.5181,-1.5181,-1.5181,-1.5181,-1.5181,-1.5181,-1.5181,-1.5181,-1.5181,-1.5181,-1.5181,-1.5181,-1.5181,-1.5181,-1.5181,-1.5181,-1.5181,-1.5181,-1.5181,-1.5181,-1.5181,-1.5181,-1.5181,-1.5181,-1.5181,-1.5181,-1.5181,-1.5181,-1.5181,-1.5181,-1.5181,-1.5181,-1.5181,-1.5181,-1.5181,-1.5181,-1.5181,-1.5181,-1.5181,-1.5181,-1.2501,-1.2501,-1.2501,-1.2501,-1.2501,-1.2542,-1.2698,-1.2732,-1.2807,-1.3071,-1.3125,-1.3159,-1.3275,-1.3322,-1.3356,-1.3397,-1.3403,-1.3403,-1.3403,-1.3403,-1.3403,0.0,0.0,0.0,0.0,0.0,0.0,0.0,0.0,0.0,-1.3783,-1.3933,-1.4089,-1.4245,-1.4278,-1.4299,-1.4299,-1.4299,-1.4299,-1.4299,-1.4299,-1.4299,-1.4306,-1.4414,-1.4563,-1.4746,-1.4869,-1.5018,-1.5181,-1.5181,-1.5181,-1.5181,-1.5181,-1.5181,-1.5181,-1.5181,-1.5181,-1.5181,-1.5181,-1.5181,-1.5181,-1.5181,-1.5181,-1.5181,-1.5181,-1.5181,-1.5181,-1.5181,-1.5181,-1.5181,-1.5181,-1.5181,-1.5181,-1.5181,-1.5181,-1.5181,-1.5181,-1.5181,-1.5181,-1.5181,-1.5181,-1.5181,-1.5181,-1.5181,-1.5181,-1.5181,-1.5181,-1.5181,-1.5181,-1.5181,-1.5181,-1.5181,-1.5181,-1.5181,-1.5181,-1.5181,-1.5181,-1.5181,-1.5181,-1.5181,-1.5181,-1.5181,-1.5181,-1.5181,-1.5181,-1.5181,-1.5181,-1.5181,-1.5181,-1.5181,-1.5181,-1.5181,-1.2501,-1.2501,-1.2501,-1.2501,-1.2501,-1.2542,-1.2698,-1.2732,-1.2779,-1.2942,-1.2976,-1.2983,-1.299,-1.3098,-1.3234,-1.3376,-1.3403,-1.3403,-1.3403,0.0,0.0,0.0,0.0,0.0,0.0,0.0,0.0,0.0,0.0,0.0,-1.3634,-1.3777,-1.3926,-1.4082,-1.4224,-1.4299,-1.4299,-1.4299,-1.4299,-1.4299,-1.4299,-1.4299,-1.4299,-1.4312,-1.4468,-1.474,-1.4753,-1.4916,-1.5181,-1.5181,-1.5181,-1.5181,-1.5181,-1.5181,-1.5181,-1.5181,-1.5181,-1.5181,-1.5181,-1.5181,-1.5181,-1.5181,-1.5181,-1.5181,-1.5181,-1.5181,-1.5181,-1.5181,-1.5181,-1.5181,-1.5181,-1.5181,-1.5181,-1.5181,-1.5181,-1.5181,-1.5181,-1.5181,-1.5181,-1.5181,-1.5181,-1.5181,-1.5181,-1.5181,-1.5181,-1.5181,-1.5181,-1.5181,-1.5181,-1.5181,-1.5181,-1.5181,-1.5181,-1.5181,-1.5181,-1.5181,-1.5181,-1.5181,-1.5181,-1.5181,-1.5181,-1.5181,-1.5181,-1.5181,-1.5181,-1.5181,-1.5181,-1.5181,-1.5181,-1.5181,-1.5181,-1.5181,-1.2501,-1.2501,-1.2501,-1.2501,-1.2501,-1.2515,-1.2576,-1.2589,-1.263,-1.2786,-1.2895,-1.3017,-1.32,-1.3275,-1.3336,-1.339,-1.3403,-1.3403,-1.3403,0.0,0.0,0.0,0.0,0.0,0.0,0.0,0.0,0.0,0.0,0.0,-1.362,-1.3682,-1.3817,-1.4061,-1.4129,-1.4204,-1.4299,-1.4299,-1.4299,-1.4299,-1.4299,-1.4299,-1.4299,-1.4299,-1.4462,-1.474,-1.474,-1.4909,-1.5181,-1.5181,-1.5181,-1.5181,-1.5181,-1.5181,-1.5181,-1.5181,-1.5181,-1.5181,-1.5181,-1.5181,-1.5181,-1.5181,-1.5181,-1.5181,-1.5181,-1.5181,-1.5181,-1.5181,-1.5181,-1.5181,-1.5181,-1.5181,-1.5181,-1.5181,-1.5181,-1.5181,-1.5181,-1.5181,-1.5181,-1.5181,-1.5181,-1.5181,-1.5181,-1.5181,-1.5181,-1.5181,-1.5181,-1.5181,-1.5181,-1.5181,-1.5181,-1.5181,-1.5181,-1.5181,-1.5181,-1.5181,-1.5181,-1.5181,-1.5181,-1.5181,-1.5181,-1.5181,-1.5228,-1.5323,-1.5323,-1.5371,-1.5466,-1.5466,-1.5466,-1.5466,-1.5466,-1.5466,-1.2501,-1.2501,-1.2501,-1.2501,-1.2501,-1.2501,-1.2501,-1.2501,-1.2549,-1.2698,-1.2888,-1.3091,-1.3295,-1.337,0.0,0.0,-1.3403,-1.3403,0.0,0.0,0.0,0.0,0.0,0.0,0.0,0.0,0.0,0.0,0.0,0.0,0.0,-1.36,-1.3743,-1.3994,-1.4048,-1.4143,-1.4299,-1.4299,-1.4299,-1.4299,-1.4299,-1.4299,-1.4299,-1.4299,-1.4462,-1.474,-1.474,-1.4909,-1.5181,-1.5181,-1.5181,-1.5181,-1.5181,-1.5181,-1.5181,-1.5181,-1.5181,-1.5181,-1.5181,-1.5181,-1.5181,-1.5181,-1.5181,-1.5181,-1.5181,-1.5181,-1.5181,-1.5181,-1.5181,-1.5181,-1.5181,-1.5181,-1.5181,-1.5181,-1.5181,-1.5181,-1.5181,-1.5181,-1.5181,-1.5181,-1.5181,-1.5181,-1.5181,-1.5181,-1.5181,-1.5181,-1.5181,-1.5181,-1.5181,-1.5181,-1.5181,-1.5181,-1.5228,-1.5255,-1.5255,-1.5296,-1.5323,-1.5323,-1.5323,-1.5303,-1.5255,-1.5303,-1.5377,-1.5479,-1.5486,-1.5533,-1.5642,-1.5642,-1.5642,-1.5642,-1.5642,-1.5642,-1.2501,-1.2501,-1.2501,-1.2501,-1.2501,-1.2501,-1.2501,-1.2501,-1.2549,-1.2705,-1.2969,-1.3173,-1.3173,-1.3302,0.0,-1.3403,-1.3403,0.0,0.0,0.0,0.0,0.0,0.0,0.0,0.0,0.0,0.0,0.0,0.0,0.0,0.0,-1.3546,-1.3695,-1.3838,-1.3987,-1.4143,-1.4299,-1.4299,-1.4299,-1.4299,-1.4299,-1.4299,-1.4299,-1.4299,-1.4462,-1.474,-1.474,-1.4909,-1.5181,-1.5181,-1.5181,-1.5181,-1.5181,-1.5181,-1.5181,-1.5181,-1.5181,-1.5181,-1.5181,-1.5181,-1.5181,-1.5181,-1.5181,-1.5181,-1.5181,-1.5181,-1.5181,-1.5181,-1.5181,-1.5181,-1.5181,-1.5181,-1.5181,-1.5181,-1.5181,-1.5181,-1.5181,-1.5187,-1.5187,-1.5187,-1.5187,-1.5187,-1.5187,-1.5187,-1.5187,-1.5187,-1.5187,-1.5187,-1.5187,-1.5187,-1.5187,-1.5187,-1.5323,-1.5411,-1.5411,-1.5554,-1.5642,-1.5642,-1.5642,-1.5574,-1.5418,-1.556,-1.5642,-1.5642,-1.5642,-1.5642,-1.5642,-1.5642,-1.5642,-1.5642,-1.5642,-1.5642,-1.2501,-1.2501,-1.2501,-1.2501,-1.2501,-1.2501,-1.2501,-1.2583,-1.2732,-1.299,-1.3112,-1.3207,-1.3315,-1.337,0.0,-1.3403,0.0,0.0,0.0,0.0,0.0,0.0,0.0,0.0,0.0,0.0,0.0,0.0,0.0,0.0,0.0,-1.3444,-1.3587,-1.3745,-1.3885,-1.4034,-1.4299,-1.4299,-1.4299,-1.4299,-1.4299,-1.4299,-1.4299,-1.4299,-1.4462,-1.474,-1.474,-1.4909,-1.5181,-1.5181,-1.5181,-1.5181,-1.5181,-1.5181,-1.5181,-1.5181,-1.5181,-1.5181,-1.5181,-1.5181,-1.5181,-1.5181,-1.5181,-1.5181,-1.5181,-1.5181,-1.5181,-1.5181,-1.5181,-1.5181,-1.5181,-1.5262,-1.5316,-1.5208,-1.5262,-1.5343,-1.5343,-1.5425,-1.5506,-1.5506,-1.5506,-1.5506,-1.5506,-1.5506,-1.5506,-1.5506,-1.5506,-1.5506,-1.5506,-1.5506,-1.5506,-1.5506,-1.5547,-1.5567,-1.5567,-1.5615,-1.5642,-1.5642,-1.5737,-1.5723,-1.5581,-1.5615,-1.5689,-1.5784,-1.5791,-1.5845,-1.5947,-1.5947,-1.5947,-1.5947,-1.5947,-1.5947,-1.2501,-1.2501,-1.2501,-1.2501,-1.2501,-1.2535,-1.2657,-1.2752,-1.2888,-1.3125,-1.322,-1.3295,-1.3383,-1.3403,0.0,0.0,0.0,0.0,0.0,0.0,0.0,0.0,0.0,0.0,0.0,0.0,0.0,0.0,0.0,0.0,0.0,-1.3403,-1.3539,-1.3831,-1.3838,-1.3987,-1.4299,-1.4299,-1.4299,-1.4299,-1.4299,-1.4299,-1.4299,-1.4299,-1.4462,-1.4746,-1.4862,-1.5018,-1.5181,-1.5181,-1.5181,-1.5181,-1.5181,-1.5181,-1.5181,-1.5181,-1.5181,-1.5181,-1.5181,-1.5181,-1.5181,-1.5181,-1.5181,-1.5181,-1.5181,-1.5181,-1.5181,-1.5181,-1.5228,-1.5276,-1.5276,-1.5384,-1.5466,-1.5309,-1.5391,-1.5499,-1.5499,-1.5574,-1.5642,-1.5642,-1.5642,-1.5642,-1.5642,-1.5642,-1.5642,-1.5642,-1.5642,-1.5642,-1.5642,-1.5642,-1.5642,-1.5642,-1.5689,-1.5723,-1.5723,-1.5778,-1.5811,-1.5811,-1.59,-1.5906,-1.5818,-1.5811,-1.5852,-1.594,-1.5947,-1.5988,-1.6083,-1.6083,-1.6083,-1.6083,-1.6083,-1.6083,-1.2501,-1.2501,-1.2501,-1.2501,-1.2515,-1.2596,-1.2895,-1.2969,-1.3024,-1.3166,-1.3302,-1.3403,-1.3403,-1.3403,-1.3403,0.0,0.0,0.0,0.0,0.0,0.0,0.0,0.0,0.0,0.0,0.0,0.0,0.0,0.0,0.0,0.0,-1.3403,-1.3539,-1.3831,-1.4009,-1.4246,-1.4557,-1.4564,-1.4564,-1.4564,-1.4387,-1.4299,-1.4299,-1.4299,-1.4462,-1.4753,-1.5052,-1.5181,-1.5181,-1.5181,-1.5181,-1.5181,-1.5181,-1.5181,-1.5181,-1.5181,-1.5181,-1.5181,-1.5181,-1.5181,-1.5181,-1.5181,-1.5181,-1.5181,-1.5181,-1.5181,-1.5187,-1.5201,-1.5303,-1.5411,-1.5432,-1.5547,-1.5622,-1.5486,-1.5554,-1.5655,-1.5655,-1.5669,-1.5683,-1.5683,-1.5683,-1.5683,-1.5683,-1.5683,-1.5683,-1.5683,-1.5683,-1.5683,-1.5683,-1.5683,-1.5683,-1.5683,-1.5798,-1.5872,-1.5872,-1.6001,-1.6083,-1.6083,-1.6083,-1.6083,-1.6083,-1.6083,-1.6083,-1.6083,-1.6083,-1.6083,-1.6083,-1.6083,-1.6083,-1.6083,-1.6083,-1.6083,-1.2501,-1.2501,-1.2501,-1.2501,-1.2589,-1.2732,-1.2922,-1.3051,-1.3173,-1.3322,-1.3376,-1.3403,-1.3403,-1.3403,-1.3403,0.0,0.0,0.0,0.0,0.0,0.0,0.0,0.0,0.0,0.0,0.0,0.0,0.0,0.0,0.0,-1.3403,-1.3403,-1.3539,-1.3831,-1.519,-1.6121,-1.6473,-1.6481,-1.6481,0.0,-1.4999,-1.4299,-1.4299,-1.4299,-1.4462,-1.4753,-1.5052,-1.5181,-1.5181,-1.5181,-1.5181,-1.5181,-1.5181,-1.5181,-1.5181,-1.5181,-1.5181,-1.5181,-1.5181,-1.5181,-1.5181,-1.5181,-1.5181,-1.5181,-1.5181,-1.5181,-1.5208,-1.533,-1.5384,-1.5438,-1.556,-1.5696,-1.5798,-1.5764,-1.5784,-1.5805,-1.5805,-1.59,-1.5988,-1.5988,-1.5988,-1.5988,-1.5988,-1.5988,-1.5988,-1.5988,-1.5988,-1.5988,-1.5988,-1.5988,-1.5988,-1.5988,-1.6015,-1.6035,-1.6035,-1.6062,-1.6083,-1.6083,-1.6083,-1.6083,-1.6083,-1.6083,-1.6083,-1.6083,-1.6083,-1.6083,-1.6083,-1.6083,-1.6083,-1.6083,-1.6083,-1.6083,-1.2501,-1.2501,-1.2501,-1.2501,-1.2617,-1.2773,-1.2929,-1.3071,-1.3214,-1.337,-1.3403,-1.3403,-1.3403,-1.3403,0.0,0.0,0.0,0.0,0.0,0.0,0.0,0.0,0.0,0.0,0.0,0.0,0.0,0.0,0.0,-1.3403,-1.3403,-1.3403,-1.3951,-1.5097,-1.6119,-1.7228,-1.8392,-1.8479,-1.7964,-1.7088,-1.613,-1.5211,-1.4407,-1.4475,-1.459,-1.4753,-1.5052,-1.5181,-1.5181,-1.5181,-1.5181,-1.5181,-1.5181,-1.5181,-1.5181,-1.5181,-1.5181,-1.5181,-1.5181,-1.5181,-1.5181,-1.5181,-1.5181,-1.5181,-1.5181,-1.5235,-1.5309,-1.5391,-1.5513,-1.5642,-1.5723,-1.5852,-1.5961,-1.5961,-1.5961,-1.5961,-1.5961,-1.6029,-1.6083,-1.6083,-1.6083,-1.6083,-1.6083,-1.6083,-1.6083,-1.6083,-1.6083,-1.6083,-1.6083,-1.6083,-1.6083,-1.6083,-1.6083,-1.6083,-1.6083,-1.6083,-1.6083,-1.6083,-1.6083,-1.6083,-1.6083,-1.6083,-1.6083,-1.6083,-1.6083,-1.6083,-1.6083,-1.6083,-1.6083,-1.6083,-1.6083,-1.6083,-1.2501,-1.2501,-1.2501,-1.2501,-1.2617,-1.2766,-1.2895,-1.3051,-1.3207,-1.3336,-1.3383,-1.3403,-1.3403,-1.3403,0.0,0.0,0.0,0.0,0.0,0.0,0.0,0.0,0.0,0.0,0.0,0.0,0.0,0.0,0.0,-1.3562,-1.3811,-1.359,-1.4558,-1.6951,-1.7078,-1.8196,-2.0298,-2.0395,-1.9613,-1.8051,-1.7822,-1.6856,-1.5495,-1.5684,-1.5413,-1.4794,-1.5065,-1.5181,-1.5181,-1.5181,-1.5181,-1.5181,-1.5181,-1.5181,-1.5181,-1.5181,-1.5181,-1.5181,-1.5181,-1.5181,-1.5181,-1.5181,-1.5181,-1.5187,-1.5215,-1.5309,-1.5418,-1.5472,-1.5662,-1.5957,-1.5886,-1.5988,-1.6083,-1.6083,-1.6083,-1.6083,-1.6083,-1.6083,-1.6083,-1.6083,-1.6083,-1.6083,-1.6083,-1.6083,-1.6083,-1.6083,-1.6083,-1.6083,-1.6083,-1.6083,-1.6083,-1.6083,-1.6083,-1.6083,-1.6083,-1.6083,-1.6083,-1.6083,-1.6083,-1.6083,-1.6083,-1.6083,-1.6083,-1.6083,-1.6083,-1.6083,-1.6083,-1.6083,-1.6083,-1.6083,-1.6083,-1.6083,-1.2501,-1.2501,-1.2501,-1.2501,-1.2617,-1.2732,-1.2759,-1.2976,-1.318,-1.32,-1.3308,-1.3403,-1.3403,0.0,0.0,0.0,0.0,0.0,0.0,0.0,0.0,0.0,0.0,0.0,0.0,0.0,0.0,0.0,-1.3403,-1.4052,-1.5597,-1.4347,-1.518,-1.8735,-1.908,-2.0143,-2.2212,-2.2309,-2.2223,-2.1964,-2.0579,-1.9706,-1.9576,-1.9861,-1.8217,-1.495,-1.5113,-1.5181,-1.5181,-1.5181,-1.5181,-1.5181,-1.5181,-1.5181,-1.5181,-1.5181,-1.5181,-1.5181,-1.5181,-1.5181,-1.5181,-1.5181,-1.5181,-1.5208,-1.5343,-1.5398,-1.5466,-1.5723,-1.5825,-1.5886,-1.6015,-1.6069,-1.6083,-1.6083,-1.6083,-1.6083,-1.6083,-1.6083,-1.6083,-1.6083,-1.6083,-1.6083,-1.6083,-1.6083,-1.6083,-1.6083,-1.6083,-1.6083,-1.6083,-1.6083,-1.6083,-1.6083,-1.6083,-1.6083,-1.6083,-1.6083,-1.6083,-1.6083,-1.6083,-1.6083,-1.6083,-1.6083,-1.6083,-1.6083,-1.6083,-1.6083,-1.6083,-1.6083,-1.6083,-1.6083,-1.6083,-1.6083,-1.2501,-1.2501,-1.2501,-1.2501,-1.2556,-1.2623,-1.2712,-1.2901,-1.3078,-1.3159,-1.3295,-1.3403,0.0,0.0,0.0,0.0,0.0,0.0,0.0,0.0,0.0,0.0,0.0,0.0,0.0,0.0,0.0,0.0,-1.3403,-1.4135,-1.5925,-1.4452,-1.5784,-2.0584,-2.0034,-2.1029,-2.4126,-2.4224,-2.3697,-2.2654,-2.2096,-2.1303,-2.0454,-2.1841,-2.0982,-1.8267,-1.7243,-1.6853,-1.6759,-1.565,-1.5181,-1.5181,-1.5181,-1.5181,-1.5181,-1.5181,-1.5181,-1.5181,-1.5181,-1.5181,-1.5181,-1.5181,-1.5242,-1.5323,-1.5391,-1.5527,-1.5683,-1.5818,-1.5913,-1.5995,-1.6062,-1.6083,-1.6083,-1.6083,-1.6083,-1.6083,-1.6083,-1.6083,-1.6083,-1.6083,-1.6083,-1.6083,-1.6083,-1.6083,-1.6083,-1.6083,-1.6083,-1.6083,-1.6083,-1.6083,-1.6083,-1.6083,-1.6083,-1.6083,-1.6083,-1.6083,-1.6083,-1.6083,-1.6083,-1.6083,-1.6083,-1.6083,-1.6083,-1.6083,-1.6083,-1.6083,-1.6083,-1.6083,-1.6083,-1.6083,-1.6083,-1.6083,-1.2501,-1.2501,-1.2501,-1.2501,-1.2501,-1.2528,-1.2644,-1.2793,-1.2942,0.0,-1.3241,-1.3356,0.0,0.0,0.0,0.0,0.0,0.0,0.0,0.0,0.0,0.0,0.0,0.0,0.0,0.0,0.0,0.0,-1.3403,-1.4383,-1.6582,-1.474,-1.6245,-2.1766,-2.0517,-2.1261,-2.4652,-2.5177,-2.4738,-2.3354,-2.3653,-2.3181,-2.2028,-2.3756,-2.3806,-2.2262,-1.9384,-1.8058,-1.7965,-1.6018,-1.5181,-1.5181,-1.5181,-1.5181,-1.5181,-1.5181,-1.5181,-1.5181,-1.5181,-1.5181,-1.5187,-1.5228,-1.5316,-1.5425,-1.5499,-1.5676,-1.5859,-1.59,-1.5995,-1.6083,-1.6083,-1.6083,-1.6083,-1.6083,-1.6083,-1.6083,-1.6083,-1.6083,-1.6083,-1.6083,-1.6083,-1.6083,-1.6083,-1.6083,-1.6083,-1.6083,-1.6083,-1.6083,-1.6083,-1.6083,-1.6083,-1.6083,-1.6083,-1.6083,-1.6083,-1.6083,-1.6083,-1.6083,-1.6083,-1.6083,-1.6083,-1.6083,-1.6083,-1.6083,-1.6083,-1.6083,-1.6083,-1.6083,-1.6083,-1.6083,-1.6083,-1.6083,-1.2501,-1.2501,-1.2501,-1.2501,-1.2501,-1.2501,-1.2515,-1.263,-1.2786,-1.2942,-1.3085,-1.3227,0.0,0.0,0.0,0.0,0.0,0.0,0.0,0.0,0.0,0.0,0.0,0.0,0.0,0.0,0.0,0.0,-1.3403,-1.4871,-1.83,-1.5509,-1.6281,-2.1766,-2.0591,-2.0819,-2.274,-2.4481,-2.5348,-2.5275,-2.5778,-2.603,-2.5878,-2.6582,-2.6821,-2.6356,-2.064,-1.8058,-1.7965,-1.6018,-1.5181,-1.5181,-1.5181,-1.5181,-1.5181,-1.5181,-1.5181,-1.5181,-1.5181,-1.5181,-1.5208,-1.535,-1.5404,-1.5466,-1.5744,-1.5937,-1.5886,-1.6029,-1.6076,-1.6083,-1.6083,-1.6083,-1.6083,-1.6083,-1.6083,-1.6083,-1.6083,-1.6083,-1.6083,-1.6083,-1.6083,-1.6083,-1.6083,-1.6083,-1.6083,-1.6083,-1.6083,-1.6083,-1.6083,-1.6083,-1.6083,-1.6083,-1.6083,-1.6083,-1.6083,-1.6083,-1.6083,-1.6083,-1.6083,-1.6083,-1.6083,-1.6083,-1.6083,-1.6083,-1.6083,-1.6083,-1.6083,-1.6083,-1.6083,-1.6083,-1.6083,-1.6083,-1.2501,-1.2501,-1.2501,-1.2501,-1.2501,-1.2501,-1.2501,-1.2617,-1.2745,-1.28,-1.3003,-1.3193,0.0,0.0,0.0,0.0,0.0,0.0,0.0,0.0,0.0,0.0,0.0,0.0,0.0,0.0,0.0,0.0,0.0,-1.4953,-1.8381,-1.5516,-1.6289,-2.1766,-2.0601,-2.1348,-2.4395,-2.5092,-2.5518,-2.5687,-2.6049,-2.6315,-2.6496,-2.687,-2.7027,-2.6755,-2.2034,-2.0001,-1.9723,-1.6572,-1.5181,-1.5181,-1.5181,-1.5181,-1.5181,-1.5181,-1.5181,-1.5181,-1.5181,-1.5181,-1.5208,-1.5364,-1.5479,-1.5594,-1.5791,-1.592,-1.6008,-1.6069,-1.6083,-1.6083,-1.6083,-1.6083,-1.6083,-1.6083,-1.6083,-1.6083,-1.6083,-1.6083,-1.6083,-1.6083,-1.6083,-1.6083,-1.6083,-1.6083,-1.6083,-1.6083,-1.6083,-1.6083,-1.6083,-1.6083,-1.6083,-1.6083,-1.6083,-1.6083,-1.6083,-1.6083,-1.6083,-1.6083,-1.6083,-1.6083,-1.6083,-1.6083,-1.6083,-1.6083,-1.6083,-1.6083,-1.6083,-1.6083,-1.6083,-1.6083,-1.6083,-1.6083,-1.2656,-1.2501,-1.2501,-1.2501,-1.2501,-1.2501,-1.2501,-1.2583,-1.2671,-1.2718,-1.2929,-1.3119,0.0,0.0,0.0,0.0,0.0,0.0,0.0,0.0,0.0,0.0,0.0,0.0,0.0,0.0,0.0,0.0,0.0,0.0,-1.8381,-1.5516,-1.6089,-2.1061,-2.0326,-2.1694,-2.5348,-2.5433,-2.5566,-2.5832,-2.6097,-2.6363,-2.6653,-2.6906,-2.7027,-2.6755,-2.278,-2.1121,-2.0742,-1.6853,-1.5181,-1.5181,-1.5181,-1.5181,-1.5181,-1.5181,-1.5181,-1.5181,-1.5181,-1.5215,-1.5282,-1.5438,-1.5588,-1.5737,-1.5886,-1.6001,-1.6083,-1.6083,-1.6083,-1.6083,-1.6083,-1.6083,-1.6083,-1.6083,-1.6083,-1.6083,-1.6083,-1.6083,-1.6083,-1.6083,-1.6083,-1.6083,-1.6083,-1.6083,-1.6083,-1.6083,-1.6083,-1.6083,-1.6083,-1.6083,-1.6083,-1.6083,-1.6083,-1.6083,-1.6083,-1.6083,-1.6083,-1.6083,-1.6083,-1.6083,-1.6083,-1.6083,-1.6083,-1.6083,-1.6083,-1.6083,-1.6083,-1.6083,-1.6083,-1.6083,-1.6083,-1.6083,0.0,0.0,0.0,-1.2501,-1.2501,-1.2501,-1.2501,-1.2501,-1.2542,-1.2691,-1.2847,0.0,0.0,0.0,0.0,0.0,0.0,0.0,0.0,0.0,0.0,0.0,0.0,0.0,0.0,0.0,0.0,0.0,-1.3403,-1.4871,-1.8381,-1.5601,-1.5769,-1.9768,-1.996,-2.1694,-2.5348,-2.5433,-2.5578,-2.5844,-2.6097,-2.6375,-2.6665,-2.6918,-2.7027,-2.6755,-2.2872,-2.1121,-2.0742,-1.6853,-1.5181,-1.5181,-1.5181,-1.5181,-1.5181,-1.5181,-1.5181,-1.5181,-1.5181,-1.5282,-1.5438,-1.5588,-1.5737,-1.5879,-1.6035,-1.6083,-1.6083,-1.6083,-1.6083,-1.6083,-1.6083,-1.6083,-1.6083,-1.6083,-1.6083,-1.6083,-1.6083,-1.6083,-1.6083,-1.6083,-1.6083,-1.6083,-1.6083,-1.6083,-1.6083,-1.6083,-1.6083,-1.6083,-1.6083,-1.6083,-1.6083,-1.6083,-1.6083,-1.6083,-1.6083,-1.6083,-1.6083,-1.6083,-1.6083,-1.6083,-1.6083,-1.6083,-1.6083,-1.6083,-1.6083,-1.6083,-1.6083,-1.6083,-1.6083,-1.6083,-1.6083,-1.6083,-1.4713,0.0,0.0,0.0,0.0,0.0,-1.2501,-1.2501,-1.2515,-1.2556,-1.2684,0.0,0.0,0.0,0.0,0.0,0.0,0.0,0.0,0.0,0.0,0.0,0.0,0.0,0.0,0.0,0.0,0.0,-1.3403,-1.4383,-1.6582,-1.7354,-1.8417,-1.9855,-2.1175,-2.2998,-2.5348,-2.5433,-2.5663,-2.6109,-2.6182,-2.646,-2.693,-2.7003,-2.7027,-2.6845,-2.4339,-2.2402,-2.0742,-1.6853,-1.5181,-1.5181,-1.5181,-1.5181,-1.5181,-1.5181,-1.5181,-1.5181,-1.5181,-1.5282,-1.5438,-1.5588,-1.5737,-1.5879,-1.6035,-1.6083,-1.6083,-1.6083,-1.6083,-1.6083,-1.6083,-1.6083,-1.6083,-1.6083,-1.6083,-1.6083,-1.6083,-1.6083,-1.6083,-1.6083,-1.6083,-1.6083,-1.6083,-1.6083,-1.6083,-1.6083,-1.6083,-1.6083,-1.6083,-1.6083,-1.6083,-1.6083,-1.6083,-1.6083,-1.6083,-1.6083,-1.6083,-1.6083,-1.6083,-1.6083,-1.6083,-1.6083,-1.6083,-1.6083,-1.6083,-1.6083,-1.6083,-1.6083,-1.6083,-1.6083,-1.6083,-1.6083,0.0,0.0,-1.5548,-1.3876,0.0,0.0,-1.2656,-1.2501,-1.2501,0.0,-1.2671,0.0,0.0,0.0,0.0,0.0,0.0,0.0,0.0,0.0,0.0,0.0,0.0,0.0,0.0,-1.3403,-1.3403,-1.3403,-1.3403,-1.3867,-1.4983,-1.7684,-1.9439,-1.9864,-2.1694,-2.3525,-2.5348,-2.5433,-2.5699,-2.6218,-2.6218,-2.6508,-2.7027,-2.7027,-2.7027,-2.6845,-2.4898,-2.2954,-2.0844,-1.7686,-1.5924,-1.5181,-1.5181,-1.5181,-1.5181,-1.5181,-1.5181,-1.5181,-1.5181,-1.5323,-1.552,-1.5608,-1.5778,-1.5967,-1.6056,-1.6083,-1.6083,-1.6083,-1.6083,-1.6083,-1.6083,-1.6083,-1.6083,-1.6083,-1.6083,-1.6083,-1.6083,-1.6083,-1.6083,-1.6083,-1.6083,-1.6083,-1.6083,-1.6083,-1.6083,-1.6083,-1.6083,-1.6083,-1.6083,-1.6083,-1.6083,-1.6083,-1.6083,-1.6083,-1.6083,-1.6083,-1.6083,-1.6083,-1.6083,-1.6083,-1.6083,-1.6083,-1.6083,-1.6083,-1.6083,-1.6083,-1.6083,-1.6083,-1.6083,-1.6083,-1.6083,-1.6083,0.0,0.0,0.0,0.0,-1.502,0.0,-1.3112,-1.2656,-1.2501,-1.2501,-1.2718,0.0,0.0,0.0,0.0,0.0,0.0,0.0,0.0,0.0,0.0,0.0,0.0,0.0,-1.3403,-1.3403,-1.3403,-1.3403,-1.3403,-1.3532,-1.3824,-1.7222,-1.9439,-1.9864,-2.1867,-2.3697,-2.5348,-2.5433,-2.5699,-2.6218,-2.5954,-2.6241,-2.7027,-2.6755,-2.6845,-2.6936,-2.5172,-2.3148,-2.0927,-1.9166,-1.7133,-1.5181,-1.5181,-1.5181,-1.5181,-1.5181,-1.5181,-1.5181,-1.5181,-1.5384,-1.5642,-1.5642,-1.5839,-1.6083,-1.6083,-1.6083,-1.6083,-1.6083,-1.6083,-1.6083,-1.6083,-1.6083,-1.6083,-1.6083,-1.6083,-1.6083,-1.6083,-1.6083,-1.6083,-1.6083,-1.6083,-1.6083,-1.6083,-1.6083,-1.6083,-1.6083,-1.6083,-1.6083,-1.6083,-1.6083,-1.6083,-1.6083,-1.6083,-1.6083,-1.6083,-1.6083,-1.6083,-1.6083,-1.6083,-1.6083,-1.6083,-1.6083,-1.6083,-1.6083,-1.6083,-1.6083,-1.6083,-1.6083,-1.6083,-1.6083,-1.6083,-1.6083,0.0,0.0,0.0,0.0,0.0,0.0,-1.4483,-1.3421,-1.2501,-1.2501,-1.2549,-1.2657,0.0,0.0,0.0,0.0,0.0,0.0,0.0,0.0,0.0,0.0,0.0,0.0,-1.3403,-1.3403,-1.3403,-1.3403,-1.3403,-1.3532,-1.3824,-1.7298,-1.9514,-1.9864,-2.3084,-2.5006,-2.5433,-2.5433,-2.5699,-2.6218,-2.4617,-2.4968,-2.6936,-2.5354,-2.5548,-2.6936,-2.6573,-2.4441,-2.1028,-2.0659,-1.8431,-1.5181,-1.5181,-1.5181,-1.5181,-1.5181,-1.5181,-1.5181,-1.5181,-1.5384,-1.5642,-1.5642,-1.5839,-1.6083,-1.6083,-1.6083,-1.6083,-1.6083,-1.6083,-1.6083,-1.6083,-1.6083,-1.6083,-1.6083,-1.6083,-1.6083,-1.6083,-1.6083,-1.6083,-1.6083,-1.6083,-1.6083,-1.6083,-1.6083,-1.6083,-1.6083,-1.6083,-1.6083,-1.6083,-1.6083,-1.6083,-1.6083,-1.6083,-1.6083,-1.6083,-1.6083,-1.6083,-1.6083,-1.6083,-1.6083,-1.6083,-1.6083,-1.6083,-1.6083,-1.6083,-1.6083,-1.6083,-1.6083,-1.6083,-1.6083,-1.6083,-1.6083,0.0,0.0,0.0,-1.8981,0.0,0.0,0.0,-1.4867,-1.3722,-1.3722,-1.3099,-1.2664,-1.282,0.0,0.0,0.0,0.0,0.0,0.0,0.0,0.0,0.0,0.0,0.0,-1.3403,-1.3403,-1.3403,-1.3403,-1.4217,-1.4401,-1.3722,-1.7256,-1.9467,-1.9703,-2.2503,-2.4481,-2.5348,-2.5433,-2.5699,-2.6218,-2.5236,-2.5057,-2.5548,-2.5548,-2.5548,-2.5639,-2.6561,-2.5366,-2.2494,-2.1481,-1.9361,-1.6572,-1.5556,-1.5181,-1.5181,-1.5181,-1.5181,-1.5181,-1.5181,-1.5337,-1.554,-1.5615,-1.5791,-1.5981,-1.6056,-1.6083,-1.6083,-1.6083,-1.6083,-1.6083,-1.6083,-1.6083,-1.6083,-1.6083,-1.6083,-1.6083,-1.6083,-1.6083,-1.6083,-1.6083,-1.6083,-1.6083,-1.6083,-1.6083,-1.6083,-1.6083,-1.6083,-1.6083,-1.6083,-1.6083,-1.6083,-1.6083,-1.6083,-1.6083,-1.6083,-1.6083,-1.6083,-1.6083,-1.6083,-1.6083,-1.6083,-1.6083,-1.6083,-1.6083,-1.6083,-1.6083,-1.6083,-1.6083,-1.6083,-1.6083,-1.6083,-1.6083,0.0,0.0,0.0,0.0,0.0,-1.9434,0.0,0.0,0.0,-1.5395,-1.4214,0.0,0.0,0.0,0.0,0.0,0.0,0.0,0.0,0.0,0.0,0.0,0.0,0.0,0.0,-1.3403,-1.3403,-1.3403,-1.5028,-1.527,-1.3705,-1.7129,-1.9335,-1.9628,-2.157,-2.3514,-2.5348,-2.5433,-2.5699,-2.6218,-2.5866,-2.5135,-2.4156,-2.5354,-2.5172,-2.4156,-2.5366,-2.5172,-2.3881,-2.1481,-1.9538,-1.7872,-1.5924,-1.5181,-1.5181,-1.5181,-1.5181,-1.5181,-1.5181,-1.5282,-1.5438,-1.5588,-1.5757,-1.592,-1.6042,-1.6083,-1.6083,-1.6083,-1.6083,-1.6083,-1.6083,-1.6083,-1.6083,-1.6083,-1.6083,-1.6083,-1.6083,-1.6083,-1.6083,-1.6083,-1.6083,-1.6083,-1.6083,-1.6083,-1.6083,-1.6083,-1.6083,-1.6083,-1.6083,-1.6083,-1.6083,-1.6083,-1.6083,-1.6083,-1.6083,-1.6083,-1.6083,-1.6083,-1.6083,-1.6083,-1.6083,-1.6083,-1.6083,-1.6083,-1.6083,-1.6083,-1.6083,-1.6083,-1.6083,-1.6083,-1.6083,-1.6083,0.0,0.0,0.0,0.0,-2.0887,0.0,0.0,0.0,-1.715,-1.715,0.0,0.0,0.0,0.0,0.0,0.0,0.0,0.0,0.0,0.0,0.0,0.0,0.0,0.0,0.0,-1.3403,-1.3403,-1.3403,-1.5028,-1.527,-1.3705,-1.7129,-1.9335,-1.9628,-2.1581,-2.3525,-2.5348,-2.5433,-2.5699,-2.6218,-2.4429,-2.3792,-2.4064,-2.2494,-2.2586,-2.3973,-2.2412,-2.2678,-2.3779,-2.0001,-1.8338,-1.7872,-1.5924,-1.5181,-1.5181,-1.5181,-1.5181,-1.5181,-1.5181,-1.5282,-1.5438,-1.5588,-1.5832,-1.6056,-1.6076,-1.6083,-1.6083,-1.6083,-1.6083,-1.6083,-1.6083,-1.6083,-1.6083,-1.6083,-1.6083,-1.6083,-1.6083,-1.6083,-1.6083,-1.6083,-1.6083,-1.6083,-1.6083,-1.6083,-1.6083,-1.6083,-1.6083,-1.6083,-1.6083,-1.6083,-1.6083,-1.6083,-1.6083,-1.6083,-1.6083,-1.6083,-1.6083,-1.6083,-1.6083,-1.6083,-1.6083,-1.6083,-1.6083,-1.6083,-1.6083,-1.6083,-1.6083,-1.6083,-1.6083,-1.6083,-1.6083,-1.6083,0.0,0.0,0.0,0.0,0.0,0.0,-2.1262,0.0,-1.8819,0.0,0.0,0.0,0.0,0.0,0.0,0.0,-1.3193,0.0,0.0,0.0,0.0,0.0,0.0,0.0,0.0,0.0,0.0,0.0,-1.5119,-1.5331,-1.3582,-1.6145,-1.8189,-1.9448,-2.0554,-2.2481,-2.5348,-2.5433,-2.5699,-2.6218,-2.5325,-2.4061,-2.2402,-2.2678,-2.2034,-2.0732,-2.2218,-2.2678,-2.2218,-2.0557,-1.9166,-1.7872,-1.5924,-1.5181,-1.5181,-1.5181,-1.5181,-1.5181,-1.5181,-1.5221,-1.5316,-1.556,-1.5778,-1.5967,-1.6056,-1.6083,-1.6083,-1.6083,-1.6083,-1.6083,-1.6083,-1.6083,-1.6083,-1.6083,-1.6083,-1.6083,-1.6083,-1.6083,-1.6083,-1.6083,-1.6083,-1.6083,-1.6083,-1.6083,-1.6083,-1.6083,-1.6083,-1.6083,-1.6083,-1.6083,-1.6083,-1.6083,-1.6083,-1.6083,-1.6083,-1.6083,-1.6083,-1.6083,-1.6083,-1.6083,-1.6083,-1.6083,-1.6083,-1.6083,-1.6083,-1.6083,-1.6083,-1.6083,-1.6083,-1.6083,-1.6083,-1.6083,-2.2733,0.0,0.0,0.0,0.0,0.0,0.0,0.0,0.0,0.0,0.0,0.0,0.0,0.0,0.0,0.0,0.0,-1.32,0.0,0.0,0.0,0.0,0.0,0.0,0.0,0.0,0.0,-1.341,-1.5105,-1.5378,-1.3493,-1.5356,-1.7392,-1.9315,-1.9733,-2.1694,-2.5348,-2.5433,-2.5699,-2.6218,-2.6218,-2.4419,-2.1121,-2.2586,-2.1388,-1.8245,-2.064,-2.1481,-2.1028,-1.9918,-1.8989,-1.7872,-1.5924,-1.5181,-1.5181,-1.5181,-1.5181,-1.5181,-1.5181,-1.5208,-1.5289,-1.5554,-1.5737,-1.5879,-1.6035,-1.6083,-1.6083,-1.6083,-1.6083,-1.6083,-1.6083,-1.6083,-1.6083,-1.6083,-1.6083,-1.6083,-1.6083,-1.6083,-1.6083,-1.6083,-1.6083,-1.6083,-1.6083,-1.6083,-1.6083,-1.6083,-1.6083,-1.6083,-1.6083,-1.6083,-1.6083,-1.6083,-1.6083,-1.6083,-1.6083,-1.6083,-1.6083,-1.6083,-1.6083,-1.6083,-1.6083,-1.6083,-1.6083,-1.6083,-1.6083,-1.6083,-1.6083,-1.6083,-1.6083,-1.6083,-1.6083,-1.6083,0.0,0.0,0.0,-2.2782,0.0,0.0,0.0,0.0,-2.3019,0.0,0.0,0.0,0.0,0.0,0.0,0.0,0.0,0.0,0.0,0.0,0.0,0.0,0.0,0.0,0.0,0.0,0.0,-1.341,-1.5105,-1.5378,-1.3493,-1.5356,-1.7392,-1.9315,-1.9733,-2.1694,-2.5348,-2.5433,-2.5699,-2.6218,-2.6218,-2.4419,-2.1121,-2.1213,-2.0094,-1.7965,-1.6205,-1.7592,-2.0834,-1.6946,-1.6486,-1.7872,-1.5924,-1.5181,-1.5181,-1.5181,-1.5181,-1.5181,-1.5181,-1.5276,-1.5432,-1.5588,-1.5737,-1.5879,-1.6035,-1.6083,-1.6083,-1.6083,-1.6083,-1.6083,-1.6083,-1.6083,-1.6083,-1.6083,-1.6083,-1.6083,-1.6083,-1.6083,-1.6083,-1.6083,-1.6083,-1.6083,-1.6083,-1.6083,-1.6083,-1.6083,-1.6083,-1.6083,-1.6083,-1.6083,-1.6083,-1.6083,-1.6083,-1.6083,-1.6083,-1.6083,-1.6083,-1.6083,-1.6083,-1.6083,-1.6083,-1.6083,-1.6083,-1.6083,-1.6083,-1.6083,-1.6083,-1.6083,-1.6083,-1.6083,-1.6083,-1.6083,0.0,0.0,-2.3249,-2.306,0.0,0.0,0.0,0.0,0.0,0.0,0.0,0.0,0.0,0.0,0.0,0.0,0.0,0.0,0.0,0.0,0.0,0.0,0.0,0.0,0.0,0.0,0.0,-1.3553,-1.4189,-1.4288,-1.3559,-1.4429,-1.6331,-1.9324,-1.9733,-2.1694,-2.5348,-2.5433,-2.5699,-2.6218,-2.6218,-2.4419,-2.1121,-2.1121,-1.9268,-1.6205,-1.6853,-1.7133,-1.7227,-1.7133,-1.6759,-1.6112,-1.5462,-1.5181,-1.5181,-1.5181,-1.5181,-1.5181,-1.5181,-1.5215,-1.5303,-1.5554,-1.5669,-1.5757,-1.6008,-1.6083,-1.6083,-1.6083,-1.6083,-1.6083,-1.6083,-1.6083,-1.6083,-1.6083,-1.6083,-1.6083,-1.6083,-1.6083,-1.6083,-1.6083,-1.6083,-1.6083,-1.6083,-1.6083,-1.6083,-1.6083,-1.6083,-1.6083,-1.6083,-1.6083,-1.6083,-1.6083,-1.6083,-1.6083,-1.6083,-1.6083,-1.6083,-1.6083,-1.6083,-1.6083,-1.6083,-1.6083,-1.6083,-1.6083,-1.6083,-1.6083,-1.6083,-1.6083,-1.6083,-1.6083,-1.6083,-1.6083,-2.3375,-2.3447,0.0,-2.3261,-2.3261,0.0,-2.3212,0.0,0.0,0.0,0.0,0.0,0.0,0.0,0.0,0.0,0.0,0.0,0.0,-1.3811,0.0,0.0,0.0,0.0,0.0,0.0,0.0,-1.3627,-1.3763,-1.3777,0.0,0.0,-1.5455,-1.8313,-1.9389,-2.1348,-2.4395,-2.5092,-2.5699,-2.6218,-2.6218,-2.4419,-2.1121,-2.1121,-1.8989,-1.5275,-1.6479,-1.6393,-1.5275,-1.6572,-1.6299,-1.5181,-1.5181,-1.5181,-1.5181,-1.5181,-1.5181,-1.5181,-1.5181,-1.5181,-1.5235,-1.554,-1.5642,-1.5696,-1.5995,-1.6083,-1.6069,-1.6015,-1.6042,-1.6069,-1.6015,-1.6042,-1.6083,-1.6083,-1.6083,-1.6083,-1.6083,-1.6083,-1.6083,-1.6083,-1.6083,-1.6083,-1.6083,-1.6083,-1.6083,-1.6083,-1.6083,-1.6083,-1.6083,-1.6083,-1.6083,-1.6083,-1.6083,-1.6083,-1.6083,-1.6083,-1.6083,-1.6083,-1.6083,-1.6083,-1.6083,-1.6083,-1.6083,-1.6083,-1.6083,-1.6083,-1.6083,-1.6083,-1.6083,-1.6083,-1.6083,-1.6083]},{"header":{"parameterUnit":"m.s-1","parameterCategory":1,"la1":30.6,"la2":29.2853,"lo1":-89.7004,"lo2":-87.6739,"dy":0.0162,"dx":0.0183,"nx":112,"ny":82,"refTime":"2023-10-20T06:00:00:Z","depth":0,"parameterNumber":3,"parameterNumberName":"V-component_of_WINDS"},"data":[0.0,0.0,0.0,0.0,0.0,0.0,0.0,0.0,0.0,0.0,0.0,0.0,0.0,0.0,0.0,0.0,0.0,0.0,0.0,0.0,0.0,0.0,0.0,0.0,0.0,0.0,0.0,0.0,0.0,0.0,0.0,0.0,0.0,0.0,0.0,0.0,0.0,0.0,0.0,0.0,0.0,0.0,0.0,0.0,0.0,0.0,0.0,0.0,0.0,0.0,0.0,0.0,0.0,0.0,0.0,0.0,0.0,0.0,0.0,0.0,0.0,0.0,0.0,0.0,0.0,0.0,0.0,0.0,0.0,0.0,0.0,0.0,0.0,0.0,0.0,0.0,0.0,0.0,0.0,0.0,0.0,0.0,0.0,0.0,0.0,0.0,0.0,0.0,0.0,0.0,4.5953,4.5332,4.5624,4.5769,4.5478,4.6967,4.7238,4.5697,0.0,0.0,0.0,0.0,0.0,0.0,0.0,0.0,0.0,0.0,0.0,0.0,0.0,0.0,0.0,0.0,0.0,0.0,0.0,0.0,0.0,0.0,0.0,0.0,0.0,0.0,0.0,0.0,0.0,0.0,0.0,0.0,0.0,0.0,0.0,0.0,0.0,0.0,0.0,0.0,0.0,0.0,0.0,0.0,0.0,0.0,0.0,0.0,0.0,0.0,0.0,0.0,0.0,0.0,0.0,0.0,0.0,0.0,0.0,0.0,0.0,0.0,0.0,0.0,0.0,0.0,0.0,0.0,0.0,0.0,0.0,0.0,0.0,0.0,0.0,0.0,0.0,0.0,0.0,0.0,0.0,0.0,0.0,0.0,0.0,0.0,0.0,0.0,0.0,0.0,0.0,0.0,0.0,0.0,0.0,0.0,0.0,0.0,0.0,0.0,0.0,0.0,0.0,0.0,4.4874,4.4723,4.5877,4.6375,4.5697,4.7035,4.7439,4.6413,0.0,0.0,0.0,0.0,0.0,0.0,0.0,0.0,0.0,0.0,0.0,0.0,0.0,0.0,0.0,0.0,0.0,0.0,0.0,0.0,0.0,0.0,0.0,0.0,0.0,0.0,0.0,0.0,0.0,0.0,0.0,0.0,0.0,0.0,0.0,0.0,0.0,0.0,0.0,0.0,0.0,0.0,0.0,0.0,0.0,0.0,0.0,0.0,0.0,0.0,0.0,0.0,0.0,0.0,0.0,0.0,0.0,0.0,0.0,0.0,0.0,0.0,0.0,0.0,0.0,0.0,0.0,0.0,0.0,0.0,0.0,0.0,0.0,0.0,0.0,0.0,0.0,0.0,0.0,0.0,0.0,0.0,0.0,0.0,0.0,0.0,0.0,0.0,0.0,0.0,0.0,0.0,0.0,0.0,0.0,0.0,0.0,0.0,0.0,0.0,0.0,0.0,0.0,4.6622,4.6413,4.6413,4.7001,4.7238,4.6932,4.7901,4.8129,4.7305,4.7967,0.0,0.0,0.0,0.0,0.0,0.0,0.0,0.0,0.0,0.0,0.0,0.0,0.0,0.0,0.0,0.0,0.0,0.0,0.0,0.0,0.0,0.0,0.0,0.0,0.0,0.0,0.0,0.0,0.0,0.0,0.0,0.0,0.0,0.0,0.0,0.0,0.0,0.0,0.0,0.0,0.0,0.0,0.0,0.0,0.0,0.0,0.0,0.0,0.0,0.0,0.0,0.0,0.0,0.0,0.0,0.0,0.0,0.0,0.0,0.0,0.0,0.0,0.0,0.0,0.0,0.0,0.0,0.0,0.0,0.0,0.0,0.0,0.0,0.0,0.0,0.0,0.0,0.0,0.0,0.0,0.0,0.0,0.0,0.0,0.0,0.0,0.0,0.0,0.0,0.0,0.0,0.0,0.0,0.0,0.0,0.0,0.0,0.0,0.0,0.0,0.0,0.0,4.7934,4.8032,4.7704,4.7967,4.8096,4.7901,4.8576,4.8767,4.8193,4.8704,0.0,0.0,0.0,0.0,0.0,0.0,0.0,0.0,0.0,0.0,0.0,0.0,0.0,0.0,0.0,0.0,0.0,0.0,0.0,0.0,0.0,0.0,0.0,0.0,0.0,0.0,0.0,0.0,0.0,0.0,0.0,0.0,0.0,0.0,0.0,0.0,0.0,0.0,0.0,0.0,0.0,0.0,0.0,0.0,0.0,0.0,0.0,0.0,0.0,0.0,0.0,0.0,0.0,0.0,0.0,0.0,0.0,0.0,0.0,0.0,0.0,0.0,0.0,0.0,0.0,0.0,0.0,0.0,0.0,0.0,0.0,0.0,0.0,0.0,0.0,0.0,0.0,0.0,0.0,0.0,0.0,0.0,0.0,0.0,0.0,0.0,0.0,0.0,0.0,0.0,0.0,0.0,0.0,0.0,0.0,0.0,0.0,0.0,0.0,0.0,0.0,0.0,4.8064,4.8386,4.7001,4.8096,4.8673,4.7967,4.8576,4.8987,4.8923,4.8954,0.0,0.0,0.0,0.0,0.0,0.0,0.0,0.0,0.0,0.0,0.0,0.0,0.0,0.0,0.0,0.0,0.0,0.0,0.0,0.0,0.0,0.0,0.0,0.0,0.0,0.0,0.0,0.0,0.0,0.0,0.0,0.0,0.0,0.0,0.0,0.0,0.0,0.0,0.0,0.0,0.0,0.0,0.0,0.0,0.0,0.0,0.0,0.0,0.0,0.0,0.0,0.0,0.0,0.0,0.0,0.0,0.0,0.0,0.0,0.0,0.0,0.0,0.0,0.0,0.0,0.0,0.0,0.0,0.0,0.0,0.0,0.0,0.0,0.0,0.0,0.0,0.0,0.0,0.0,0.0,0.0,0.0,0.0,0.0,0.0,0.0,0.0,0.0,0.0,0.0,0.0,0.0,0.0,0.0,0.0,0.0,0.0,0.0,0.0,0.0,0.0,0.0,4.845,4.8892,0.0,4.8673,4.8892,4.8608,4.8829,4.9018,4.9018,0.0,0.0,0.0,0.0,0.0,0.0,0.0,0.0,0.0,0.0,0.0,0.0,0.0,0.0,0.0,0.0,0.0,0.0,0.0,0.0,0.0,0.0,0.0,0.0,0.0,0.0,0.0,0.0,0.0,0.0,0.0,0.0,0.0,0.0,0.0,0.0,0.0,0.0,0.0,0.0,0.0,0.0,0.0,0.0,0.0,0.0,0.0,0.0,0.0,0.0,0.0,0.0,0.0,0.0,0.0,0.0,0.0,0.0,0.0,0.0,0.0,0.0,0.0,0.0,0.0,0.0,0.0,0.0,0.0,0.0,0.0,0.0,0.0,0.0,0.0,0.0,0.0,0.0,0.0,0.0,0.0,0.0,0.0,0.0,0.0,0.0,0.0,0.0,0.0,0.0,0.0,0.0,0.0,0.0,0.0,0.0,0.0,0.0,0.0,0.0,0.0,0.0,4.8321,4.8796,4.9168,0.0,4.9046,4.9077,4.9138,4.9077,4.9046,4.9046,0.0,0.0,0.0,0.0,0.0,0.0,0.0,0.0,0.0,0.0,0.0,0.0,0.0,0.0,0.0,0.0,0.0,0.0,0.0,0.0,0.0,0.0,0.0,0.0,0.0,0.0,0.0,0.0,0.0,0.0,0.0,0.0,0.0,0.0,0.0,0.0,0.0,0.0,0.0,0.0,0.0,0.0,0.0,0.0,0.0,0.0,0.0,0.0,0.0,0.0,0.0,0.0,0.0,0.0,0.0,0.0,0.0,0.0,0.0,0.0,0.0,0.0,0.0,0.0,0.0,0.0,0.0,0.0,0.0,0.0,0.0,0.0,0.0,0.0,0.0,0.0,0.0,0.0,0.0,0.0,0.0,0.0,0.0,0.0,0.0,0.0,0.0,0.0,0.0,0.0,0.0,0.0,0.0,0.0,0.0,0.0,0.0,0.0,0.0,0.0,0.0,0.0,4.9049,4.9141,4.9199,4.9233,4.9233,4.9324,4.9505,4.9354,4.9199,0.0,0.0,0.0,0.0,0.0,0.0,0.0,0.0,0.0,0.0,0.0,0.0,0.0,0.0,0.0,0.0,0.0,0.0,0.0,0.0,0.0,0.0,0.0,0.0,0.0,0.0,0.0,0.0,0.0,0.0,0.0,0.0,0.0,0.0,0.0,0.0,0.0,0.0,0.0,0.0,0.0,0.0,0.0,0.0,0.0,0.0,0.0,0.0,0.0,0.0,0.0,0.0,0.0,0.0,0.0,0.0,0.0,0.0,0.0,0.0,0.0,0.0,0.0,0.0,0.0,0.0,0.0,0.0,0.0,0.0,0.0,0.0,0.0,0.0,0.0,0.0,0.0,0.0,0.0,0.0,0.0,0.0,0.0,0.0,0.0,0.0,0.0,0.0,0.0,0.0,0.0,0.0,0.0,0.0,0.0,0.0,0.0,0.0,0.0,0.0,0.0,0.0,0.0,5.0066,5.0291,5.0556,5.0977,5.1045,5.1045,5.1107,5.0533,5.0134,5.0045,0.0,0.0,0.0,0.0,0.0,0.0,0.0,0.0,0.0,0.0,0.0,0.0,0.0,0.0,0.0,0.0,0.0,0.0,0.0,0.0,0.0,0.0,0.0,0.0,0.0,0.0,0.0,0.0,0.0,0.0,0.0,0.0,0.0,0.0,0.0,0.0,0.0,0.0,0.0,0.0,0.0,0.0,0.0,0.0,0.0,0.0,0.0,0.0,0.0,0.0,0.0,0.0,0.0,0.0,0.0,0.0,0.0,0.0,0.0,0.0,0.0,0.0,0.0,0.0,0.0,0.0,0.0,0.0,0.0,0.0,0.0,0.0,0.0,0.0,0.0,0.0,0.0,0.0,0.0,0.0,0.0,0.0,0.0,0.0,0.0,0.0,0.0,0.0,0.0,0.0,0.0,0.0,0.0,0.0,0.0,0.0,0.0,0.0,0.0,0.0,0.0,0.0,5.1066,5.1438,5.176,5.1878,5.1884,5.1915,5.1977,5.1679,5.1494,5.1404,0.0,0.0,0.0,0.0,0.0,0.0,0.0,0.0,0.0,0.0,0.0,0.0,0.0,0.0,0.0,0.0,0.0,0.0,0.0,0.0,0.0,0.0,0.0,0.0,0.0,0.0,0.0,0.0,0.0,0.0,0.0,0.0,0.0,0.0,0.0,0.0,0.0,0.0,0.0,0.0,0.0,0.0,0.0,0.0,0.0,0.0,0.0,0.0,0.0,0.0,0.0,0.0,0.0,0.0,0.0,0.0,0.0,0.0,0.0,0.0,0.0,0.0,0.0,0.0,0.0,0.0,0.0,0.0,0.0,0.0,0.0,0.0,0.0,0.0,0.0,0.0,0.0,0.0,0.0,0.0,0.0,0.0,0.0,0.0,0.0,0.0,0.0,0.0,0.0,0.0,0.0,0.0,0.0,0.0,0.0,0.0,0.0,0.0,0.0,0.0,0.0,0.0,5.2107,5.2671,5.2904,5.2451,5.2394,5.2455,5.2576,5.291,5.3098,5.307,0.0,0.0,0.0,0.0,0.0,0.0,0.0,0.0,0.0,0.0,0.0,0.0,0.0,0.0,0.0,0.0,0.0,0.0,0.0,0.0,0.0,0.0,0.0,0.0,0.0,0.0,0.0,0.0,0.0,0.0,0.0,0.0,0.0,0.0,0.0,0.0,0.0,0.0,0.0,0.0,0.0,0.0,0.0,0.0,0.0,0.0,0.0,0.0,0.0,0.0,0.0,0.0,0.0,0.0,0.0,0.0,0.0,0.0,0.0,0.0,6.0762,0.0,0.0,0.0,0.0,0.0,0.0,0.0,0.0,0.0,0.0,0.0,0.0,0.0,0.0,0.0,0.0,0.0,0.0,0.0,0.0,0.0,0.0,0.0,0.0,0.0,0.0,0.0,0.0,0.0,0.0,0.0,0.0,0.0,0.0,0.0,0.0,0.0,0.0,0.0,0.0,0.0,5.3632,5.4239,5.4846,5.5319,5.539,5.539,5.5418,5.4926,5.4598,5.4461,5.3689,0.0,0.0,0.0,0.0,0.0,0.0,0.0,0.0,0.0,0.0,0.0,0.0,0.0,0.0,0.0,0.0,0.0,0.0,0.0,0.0,0.0,0.0,0.0,0.0,0.0,0.0,0.0,0.0,0.0,0.0,0.0,0.0,0.0,0.0,0.0,0.0,0.0,0.0,0.0,0.0,0.0,0.0,0.0,0.0,0.0,0.0,0.0,0.0,0.0,0.0,0.0,0.0,0.0,0.0,0.0,0.0,0.0,0.0,0.0,0.0,6.1415,0.0,0.0,0.0,0.0,0.0,0.0,0.0,0.0,0.0,0.0,0.0,0.0,0.0,0.0,0.0,0.0,0.0,0.0,0.0,0.0,0.0,0.0,0.0,0.0,0.0,0.0,0.0,0.0,0.0,0.0,0.0,0.0,0.0,0.0,0.0,0.0,0.0,0.0,0.0,0.0,5.5213,5.5714,5.6096,5.6295,5.6303,5.6303,5.6303,5.6151,5.6031,5.5953,5.5225,0.0,0.0,0.0,0.0,0.0,0.0,0.0,0.0,0.0,0.0,0.0,0.0,0.0,0.0,0.0,0.0,0.0,0.0,0.0,0.0,0.0,0.0,0.0,0.0,0.0,0.0,0.0,0.0,0.0,0.0,0.0,0.0,0.0,0.0,0.0,0.0,0.0,0.0,0.0,0.0,0.0,0.0,0.0,0.0,0.0,0.0,0.0,0.0,0.0,0.0,0.0,0.0,0.0,6.3407,6.3638,6.3638,6.3638,6.3638,6.3638,6.302,6.2874,6.3026,0.0,0.0,0.0,0.0,0.0,0.0,0.0,0.0,0.0,0.0,0.0,0.0,0.0,0.0,0.0,0.0,0.0,0.0,0.0,0.0,0.0,0.0,0.0,0.0,0.0,6.0419,5.9798,0.0,0.0,0.0,0.0,0.0,0.0,0.0,0.0,0.0,0.0,0.0,0.0,5.6949,5.7335,5.7525,5.7047,5.6886,5.6814,5.6814,5.7061,5.7241,5.7241,5.6685,5.6297,0.0,0.0,0.0,0.0,0.0,0.0,0.0,0.0,0.0,0.0,0.0,0.0,0.0,0.0,0.0,0.0,0.0,0.0,0.0,0.0,0.0,0.0,0.0,0.0,0.0,0.0,0.0,0.0,0.0,0.0,0.0,0.0,6.1193,6.1084,0.0,0.0,0.0,0.0,0.0,0.0,0.0,0.0,0.0,0.0,0.0,0.0,0.0,6.3272,6.3972,6.4083,6.45,6.5238,6.5349,6.5374,6.5374,6.5374,6.5447,6.5544,6.5434,0.0,6.3147,6.3147,0.0,0.0,0.0,0.0,0.0,0.0,0.0,0.0,0.0,0.0,0.0,0.0,0.0,0.0,0.0,0.0,0.0,0.0,0.0,0.0,0.0,0.0,6.1263,6.0566,6.0419,6.0298,0.0,5.9859,5.9859,5.9859,5.9485,0.0,0.0,0.0,0.0,0.0,0.0,0.0,5.9174,5.9636,5.9932,5.9859,5.9213,5.8811,5.8811,5.8223,5.7867,5.7867,5.7794,5.7721,5.7697,5.7647,0.0,0.0,0.0,0.0,0.0,0.0,0.0,0.0,0.0,0.0,0.0,0.0,0.0,0.0,0.0,0.0,0.0,0.0,0.0,0.0,0.0,0.0,0.0,0.0,0.0,0.0,0.0,0.0,0.0,6.2251,6.2365,6.2287,6.253,6.2718,0.0,0.0,0.0,0.0,0.0,0.0,0.0,0.0,0.0,6.4718,6.4718,6.4927,6.5369,6.5369,6.5554,6.5925,6.5925,6.5925,6.5925,6.5925,6.5949,6.602,6.602,6.5565,6.4827,6.4742,6.4327,6.3763,0.0,0.0,0.0,0.0,6.3099,6.3123,6.3171,6.3194,0.0,6.3194,0.0,0.0,0.0,0.0,0.0,0.0,0.0,0.0,0.0,0.0,0.0,6.1973,6.1789,6.1777,6.1777,6.1777,6.1484,0.0,6.0213,6.004,6.004,0.0,0.0,0.0,0.0,6.004,6.004,6.0237,6.0419,6.0419,6.0089,5.9869,5.9869,5.9134,5.8694,5.8694,5.8253,5.7997,5.7997,5.7997,5.7813,0.0,0.0,0.0,0.0,0.0,0.0,0.0,0.0,0.0,0.0,0.0,0.0,0.0,0.0,0.0,0.0,0.0,0.0,0.0,0.0,0.0,0.0,0.0,0.0,0.0,0.0,0.0,0.0,6.3366,6.3376,6.3537,6.339,6.3353,0.0,0.0,0.0,0.0,0.0,0.0,6.4805,6.4924,6.5292,6.5936,6.5949,6.6108,6.6425,6.6505,6.6648,6.6872,6.7195,6.7337,6.7375,6.7561,6.7546,6.7337,6.7337,6.7225,6.6956,6.6263,6.547,6.4794,6.4794,6.4401,6.3859,6.3883,6.3907,6.3907,6.3931,6.4012,6.409,6.409,0.0,6.3922,6.4229,0.0,0.0,0.0,0.0,6.3884,6.407,6.4076,6.3993,6.3993,6.3901,6.3783,6.3652,6.3665,6.3113,0.0,6.1006,6.1006,6.1006,0.0,0.0,0.0,0.0,6.1006,6.1006,6.1006,6.1006,6.1006,6.0823,6.0713,6.0713,5.9979,5.9515,5.9515,5.8951,5.851,5.8327,5.8327,5.8217,5.7997,0.0,0.0,0.0,0.0,0.0,0.0,0.0,0.0,0.0,0.0,0.0,0.0,0.0,0.0,0.0,0.0,0.0,0.0,0.0,0.0,0.0,0.0,0.0,0.0,0.0,0.0,0.0,0.0,0.0,6.4456,6.3864,0.0,0.0,0.0,0.0,6.4707,6.5849,6.6363,6.6017,6.6372,6.6416,6.6091,6.6067,6.6439,6.7243,6.7613,6.8206,6.8956,7.0186,7.0762,7.0762,7.154,7.1502,7.0762,7.0762,7.027,6.936,6.7038,6.5983,6.5827,6.5827,6.5717,6.5583,6.5705,6.5753,6.5777,6.5909,6.6202,6.6516,6.6516,6.6119,6.5653,6.5672,6.5087,0.0,0.0,6.5483,6.5652,6.6501,6.669,6.669,6.669,6.669,6.6551,6.6016,6.594,6.5274,0.0,6.2695,6.2695,6.2695,0.0,6.2695,6.2695,6.2695,6.2695,6.2695,6.2695,6.2695,6.2695,6.1998,6.152,6.152,6.0786,6.0346,6.0346,6.0309,5.9942,5.9148,5.9148,5.8804,5.7997,5.7997,0.0,0.0,0.0,0.0,0.0,0.0,0.0,0.0,0.0,0.0,0.0,0.0,0.0,0.0,0.0,0.0,0.0,0.0,0.0,0.0,0.0,0.0,0.0,0.0,0.0,0.0,0.0,0.0,6.5079,6.5363,0.0,6.6267,6.6325,6.6345,6.6422,6.6823,6.7258,6.7608,6.7805,6.8296,6.921,6.9248,6.9625,7.0454,7.0581,7.0813,7.1116,7.1558,7.1788,7.1788,7.2053,7.2053,7.1788,7.1788,7.1598,7.1218,7.0372,6.9077,6.7546,6.7546,6.7245,6.6715,6.6794,6.6814,6.6814,6.6854,6.6973,6.7108,6.7108,6.7083,6.7076,6.7076,6.6831,6.6645,6.695,6.6871,6.6748,6.7069,6.7108,6.7014,6.7014,6.6976,6.684,6.6616,6.6554,6.6234,6.5083,6.4635,6.442,6.442,6.442,6.442,6.442,6.442,6.442,6.442,6.442,6.4237,6.3686,6.3356,6.2989,6.2438,6.163,6.1153,6.1153,6.0676,6.0272,5.9979,5.9979,5.9832,5.9538,5.9061,5.8767,0.0,0.0,0.0,0.0,0.0,0.0,0.0,0.0,0.0,0.0,0.0,0.0,0.0,0.0,0.0,0.0,0.0,0.0,0.0,0.0,0.0,0.0,0.0,0.0,0.0,0.0,6.5853,6.6385,6.6726,6.7088,6.7655,6.7692,6.7692,6.7692,6.8349,6.8919,6.9323,6.9737,7.0439,7.137,7.1408,7.1674,7.2167,7.2339,7.2451,7.2451,7.2846,7.3052,7.3052,7.3375,7.3336,7.3052,7.3052,7.2899,7.2632,7.2632,7.1679,7.0158,6.9871,6.9247,6.8564,6.8564,6.8374,6.8109,6.8253,6.8306,6.8323,6.8481,6.8486,6.8425,6.8425,6.8233,6.808,6.8348,6.8272,6.8171,6.8455,6.8689,6.8828,6.8828,6.8984,6.9069,6.8793,6.8736,6.858,6.8047,6.6627,6.5494,6.5327,6.5301,6.5301,6.5301,6.5301,6.5301,6.5301,6.5301,6.5118,6.4567,6.4494,6.4273,6.3686,6.3172,6.2842,6.2842,6.2108,6.152,6.1227,6.097,6.0676,6.0419,5.9905,5.9588,5.9588,0.0,0.0,0.0,0.0,0.0,0.0,0.0,0.0,0.0,0.0,0.0,0.0,0.0,0.0,0.0,0.0,0.0,0.0,0.0,0.0,0.0,0.0,0.0,6.7844,6.7561,6.7616,6.8412,6.7862,6.771,6.8507,6.8583,6.862,6.862,7.0518,7.1468,7.1105,7.2251,7.2706,7.2301,7.2281,7.2281,7.2319,7.2764,7.3012,7.3012,7.4175,7.4745,7.4784,7.563,7.5553,7.4745,7.4745,7.4322,7.3591,7.3591,7.3591,7.3495,7.2579,7.175,7.1086,7.1086,7.0555,6.9872,7.0243,7.0413,7.0461,7.0839,7.0437,6.9821,6.9821,6.9244,6.8731,6.959,6.9821,7.0014,7.0783,7.1591,7.2245,7.2245,7.2899,7.3336,7.275,7.2609,7.2449,7.1845,6.8743,6.6057,6.5602,6.5474,6.5474,6.5474,6.5448,0.0,6.5448,6.5448,6.5448,6.5411,6.5411,6.5375,6.5338,6.5301,6.5301,6.5301,6.4567,6.3759,6.289,6.2144,6.13,6.0493,6.0456,6.0419,6.0406,0.0,0.0,0.0,0.0,0.0,0.0,0.0,0.0,0.0,0.0,0.0,0.0,0.0,0.0,0.0,0.0,0.0,0.0,0.0,0.0,0.0,0.0,6.8984,6.7657,6.7883,6.8352,6.8858,6.9234,6.966,7.0179,7.0808,7.1191,7.1191,7.2302,7.2931,7.2839,7.3146,7.3545,7.399,7.399,7.4335,7.4964,7.5081,7.5165,7.5165,7.5471,7.563,7.5668,7.5899,7.5861,7.563,7.563,7.5515,7.5322,7.5322,7.5322,7.5192,7.3707,7.3031,7.2801,7.2801,7.2648,7.2456,7.2586,7.2615,7.263,7.2755,7.2629,7.2476,7.2476,7.2283,7.2168,7.2399,7.2476,7.2514,7.2745,7.2976,7.3129,7.3129,7.3322,7.3433,7.3154,7.3108,7.2942,7.2395,7.1427,7.0526,6.9956,6.9545,6.9272,6.9272,6.901,0.0,6.8788,6.8788,6.8568,6.7981,6.7393,6.6806,6.6219,6.5632,6.5301,6.5301,6.5081,6.4861,6.4615,6.442,6.3613,6.2181,6.1557,6.1161,0.0,0.0,0.0,0.0,0.0,0.0,0.0,0.0,0.0,0.0,0.0,0.0,0.0,0.0,0.0,0.0,0.0,0.0,0.0,0.0,0.0,0.0,7.0304,7.0157,6.8973,6.9208,6.9594,6.9819,7.0601,7.1174,7.1423,7.2245,7.2745,7.2745,7.3553,7.4014,7.4014,7.4361,7.4745,7.5245,7.5245,7.5476,7.6015,7.6015,7.6015,7.6015,7.6015,7.6015,7.6015,7.6015,7.6015,0.0,7.6015,7.6015,7.6015,7.6015,7.6015,0.0,0.0,0.0,0.0,0.0,7.3514,7.3514,7.3514,7.3514,7.3514,7.3514,7.3514,7.3514,7.3514,7.3514,7.3514,7.3514,7.3514,7.3514,7.3514,7.3745,7.4014,7.4014,7.4284,7.4538,7.4456,7.4442,7.4328,7.398,7.3896,0.0,7.3344,7.21,7.1101,7.0847,7.0554,7.0337,7.0138,7.011,6.9926,6.9449,6.8972,6.8495,6.8054,6.7577,0.0,0.0,0.0,6.6103,6.562,6.5766,0.0,0.0,0.0,6.3595,6.3392,0.0,0.0,0.0,6.1434,6.0692,0.0,0.0,0.0,0.0,0.0,0.0,0.0,0.0,0.0,0.0,0.0,0.0,0.0,0.0,0.0,0.0,7.069,7.0937,7.1014,7.1052,7.1052,7.1052,7.1822,7.236,7.236,7.3129,7.363,7.363,7.4399,7.4861,7.4861,0.0,0.0,0.0,0.0,7.6015,7.6015,7.6015,7.6015,7.6015,7.6015,7.6015,7.6015,7.6015,7.6015,7.6015,7.6015,7.6015,7.6015,7.6015,7.6015,7.6015,7.6015,7.5515,7.4784,7.4053,7.3783,7.3783,7.3783,0.0,0.0,7.3783,7.3783,7.3783,7.3783,7.3783,7.3783,7.3783,7.3783,7.3783,7.3783,7.4322,7.4861,7.4861,7.5438,7.6015,7.6015,7.6015,7.5985,7.591,7.5794,7.5715,7.5616,7.3592,7.1868,7.1328,7.1181,7.1018,7.0605,7.0551,7.0551,7.0551,0.0,0.0,7.0403,7.033,7.0293,7.0293,6.893,6.7689,6.6691,6.678,6.69,6.69,6.6691,6.662,6.6698,6.5963,6.5645,6.561,6.3123,6.192,0.0,0.0,0.0,0.0,0.0,0.0,0.0,0.0,0.0,0.0,0.0,0.0,0.0,0.0,0.0,7.0777,7.0857,7.1168,7.186,7.1937,7.1937,7.1937,7.2706,7.3245,7.3245,7.4014,7.4476,7.4476,7.5245,7.5745,7.5745,7.5899,7.6015,7.6015,7.6015,7.6015,7.6015,7.6015,7.6015,7.6015,0.0,0.0,7.6015,7.6015,7.6015,7.6015,7.6015,7.6015,7.6015,7.6015,7.6015,7.6015,7.6015,7.5899,7.5745,7.5553,7.5515,7.5515,7.5515,7.5515,7.5515,7.5515,7.5515,7.5515,7.5515,7.5515,0.0,7.5515,7.5515,7.5515,7.5515,7.563,7.5745,7.5745,7.5861,7.6015,7.6015,7.6015,7.5985,7.591,7.5879,7.5817,7.5616,7.479,7.409,7.3947,7.362,7.3358,7.3263,7.3239,7.3239,7.3239,7.2678,7.229,7.229,7.1654,7.1303,7.1303,7.1004,7.075,7.0526,6.9278,6.8629,6.8629,6.7313,6.6799,6.7146,6.6994,6.7121,6.7359,6.4804,6.329,0.0,0.0,0.0,0.0,0.0,0.0,0.0,0.0,0.0,0.0,0.0,7.0593,0.0,0.0,7.0898,7.0898,7.1283,7.1706,7.2129,7.2899,7.3283,7.2899,7.3591,7.4091,7.4091,7.4861,7.5361,7.5361,7.5745,7.6015,7.6015,7.6015,7.6015,7.6015,7.6015,7.6015,7.6015,7.6015,7.6015,7.6015,7.6015,7.6015,7.6015,7.6015,7.6015,7.6015,7.6015,7.6015,7.6015,7.6015,7.6015,7.6015,7.6015,7.6015,7.6015,7.6015,7.6015,7.6015,7.6015,7.6015,7.6015,7.6015,7.6015,7.6015,7.6015,7.6015,7.6015,7.6015,7.6015,7.6015,7.6015,7.6015,7.6015,7.6015,7.6015,7.6015,7.6015,7.6015,7.6,7.5955,7.5925,7.5864,7.5785,7.5438,7.5075,7.4766,7.4481,7.4243,7.4056,7.4009,7.4009,7.4009,7.3634,7.3394,7.3394,7.3018,7.2628,7.2252,7.2413,7.2352,7.1958,7.1367,7.1067,7.1067,7.0233,6.9909,7.0164,6.9708,6.9375,6.9104,6.7435,6.6195,0.0,0.0,0.0,0.0,0.0,0.0,0.0,7.0805,7.1091,7.0937,7.0898,7.0898,7.0898,7.1052,7.1168,7.1168,7.186,7.2514,7.2668,7.386,7.4514,7.4053,7.4553,7.4938,7.4938,7.5592,7.6015,7.6015,7.6015,7.6015,7.6015,7.6015,7.6015,7.6015,7.6015,7.6015,7.6015,7.6015,7.6015,7.6015,7.6015,7.6015,7.6015,7.6015,7.6015,7.6015,7.6015,7.6015,7.6015,7.6015,7.6015,7.6015,7.6015,7.6015,7.6015,7.6015,7.6015,7.6015,7.6015,7.6015,7.6015,7.6015,7.6015,7.6015,7.6015,7.6015,7.6015,7.6015,7.6015,7.6015,7.6015,7.6015,7.6015,7.6015,7.6015,7.6015,7.6015,7.6015,7.6015,7.6,7.594,7.5879,7.5864,7.5779,7.5506,7.4962,7.4904,7.4766,7.4353,7.4287,7.4325,7.4303,7.4303,7.4303,7.4303,7.4303,7.4001,7.3361,7.3697,7.3611,7.2966,7.3128,7.3246,7.3246,7.3093,7.2979,7.2979,7.2291,7.1603,7.0877,7.0228,6.9196,7.0133,7.0478,7.0762,7.0762,7.1367,7.178,0.0,7.1462,7.1822,7.1052,7.0898,7.0898,7.0898,7.1514,7.2052,7.2052,7.2783,7.3591,7.4322,7.4591,7.4938,7.563,7.5784,7.5861,7.5861,7.5938,7.6015,7.6015,7.6015,7.6015,7.6015,7.6015,7.6015,7.6015,7.6015,7.6015,7.6015,7.6015,7.6015,7.6015,7.6015,7.6015,7.6015,7.6015,7.6015,7.6015,7.6015,7.6015,7.6015,7.6015,7.6015,7.6015,7.6015,7.6015,7.6015,7.6015,7.6015,7.6015,7.6015,7.6015,7.6015,7.6015,7.6015,7.6015,7.6015,7.6015,7.6015,7.6015,7.6015,7.6015,7.6015,7.6015,7.6015,7.6015,7.6015,7.6015,7.6015,7.6015,7.6,7.5925,7.5895,7.5864,7.5724,7.5708,7.5676,7.5611,7.5611,7.5561,7.5442,7.5424,7.5389,7.5356,7.5338,7.5338,7.5338,7.5338,7.53,7.5203,7.5239,7.5257,7.5142,7.4452,7.4087,7.4087,7.3361,7.2979,7.2979,7.2902,7.2788,7.2711,7.2635,7.0877,7.0593,7.0762,7.0898,7.0898,7.1168,7.136,7.0975,7.1168,7.1321,7.0975,7.0898,7.1052,7.1552,7.1937,7.236,0.0,7.3668,7.4322,7.4668,7.513,7.5592,7.5976,7.6015,7.6015,7.6015,7.6015,7.6015,7.6015,7.6015,7.6015,7.6015,7.6015,7.6015,7.6015,7.6015,7.6015,7.6015,7.6015,7.6015,7.6015,7.6015,7.6284,7.6746,7.6746,7.7015,7.7438,7.7438,7.7438,7.7438,7.7438,7.7438,7.74,7.6938,7.6746,7.6707,7.6207,7.6015,7.6015,7.6015,7.6015,7.6015,7.6015,7.6015,7.6015,7.6015,7.6015,7.6015,7.6015,7.6015,7.6015,7.6015,7.6015,7.6015,7.6015,7.6015,7.6015,7.6015,7.6015,7.6,7.597,7.597,7.5955,7.5887,7.5872,7.5872,7.5872,7.5747,7.5633,7.5599,7.5549,7.5514,7.5518,7.5518,7.5518,7.5518,7.5518,7.5518,7.5518,7.5518,7.5518,7.5518,7.5157,7.4966,7.4966,7.4622,7.4431,7.4431,7.4431,7.4201,7.3705,7.3705,7.2673,7.0898,7.0898,7.0898,7.0898,7.0898,7.0898,7.0898,7.0898,7.0898,7.0898,7.1091,7.1437,7.2091,7.2591,7.3091,7.3745,7.4514,7.5053,7.5053,7.5592,7.6015,7.6015,7.6015,7.6015,7.6015,7.6015,7.6015,7.6015,7.6015,7.6015,7.6015,7.6015,7.6015,7.6015,7.6015,7.6015,7.6015,7.6015,7.613,7.6361,7.6361,7.6823,7.763,7.763,7.7938,7.8477,7.8477,7.8477,7.8477,7.8477,7.8477,7.8438,7.7861,7.763,7.7553,7.6899,7.6399,7.6015,7.6015,7.6015,7.6015,7.6015,7.6015,7.6015,7.6015,7.6015,7.6015,7.6015,7.6015,7.6015,7.6015,7.6015,7.6015,7.6015,7.6015,7.6015,7.6015,7.6015,7.6053,7.6322,7.6361,7.6438,7.663,7.6669,7.6669,7.6669,7.6501,7.6202,7.5671,7.5549,7.5518,7.5518,7.5518,7.5518,7.5518,7.5518,7.5518,7.5518,7.5518,7.5518,7.5518,7.5518,7.5518,7.5518,7.5518,7.5518,7.5518,7.5518,7.5157,7.4545,7.4545,7.424,7.0898,7.0898,7.0898,7.0898,7.0898,7.0898,7.0898,7.0898,7.0898,7.0898,7.1552,7.2168,7.2206,7.3514,7.463,7.4668,7.5399,7.5976,7.5976,7.5976,7.6015,7.6015,7.6015,7.6015,0.0,7.6015,7.6015,7.6015,7.6015,7.6015,7.6015,7.6015,7.6015,7.6015,7.6015,7.6015,7.6015,7.6015,7.6438,7.7246,7.7246,7.7669,7.8453,7.8453,7.8477,7.8477,7.8477,7.8477,7.8477,7.8477,7.8477,7.8477,7.8477,7.8453,7.8453,7.8438,7.74,7.6015,7.6015,7.6015,7.6015,7.6015,7.6015,7.6015,7.6015,7.6015,7.6015,7.6015,7.6015,7.6015,7.6015,7.6015,7.6015,7.6015,7.6015,7.6015,7.6015,7.6015,7.6245,7.7092,7.7246,7.7515,7.8284,7.84,7.84,7.84,7.8377,7.7668,7.5939,7.5583,7.5518,7.5518,7.5518,7.5518,7.5518,7.5518,7.5518,7.5518,7.5518,7.5518,7.5518,7.5518,7.5518,7.5518,7.5518,7.5518,7.5518,7.5518,7.548,7.548,7.548,7.5442,7.0898,7.0898,7.0898,7.0898,7.0898,7.0898,7.0898,7.0898,7.1052,7.1629,7.2014,7.2552,7.3668,7.4322,7.4899,7.5476,7.5822,7.6015,7.6015,7.6015,7.6015,7.6015,7.6015,0.0,0.0,0.0,0.0,7.6015,7.6015,7.6015,7.6015,7.6015,7.6015,7.6015,7.6015,7.6284,7.6861,7.6861,7.7284,7.8092,7.8669,7.9092,7.9361,7.9977,8.0208,8.0208,8.0208,8.0208,8.0208,8.0208,8.0208,8.0169,7.9592,7.9361,7.9285,7.8707,7.813,7.7669,7.7669,7.7669,7.7669,7.7669,7.7669,7.7669,7.7669,7.7669,7.7669,7.7669,7.7669,7.7669,7.7669,7.7669,7.7669,7.7669,7.7669,7.7669,7.7669,7.7669,7.7746,7.8015,7.8092,7.8169,7.8438,7.8477,7.8477,7.8477,7.8407,7.8086,7.7373,7.7214,7.7144,7.7144,7.7144,7.7144,7.7144,7.7144,7.6914,7.6341,7.6303,7.6036,7.5501,7.5518,7.5518,7.5518,7.5518,7.5518,7.5518,7.5518,7.5518,7.5518,7.5518,7.5518,7.0898,7.0898,7.0898,7.0898,7.0898,7.0898,7.0898,7.1129,7.1514,7.2091,7.2668,7.3437,7.4514,7.4938,7.5361,7.5899,7.6015,7.6015,7.6015,7.6015,7.6015,7.6015,7.6015,7.6015,0.0,0.0,0.0,7.6015,7.6015,7.6015,7.6015,7.6015,7.613,7.6438,7.6476,7.6861,7.7707,7.7707,7.813,7.8977,7.9862,8.0246,8.0285,8.0823,8.1093,8.1093,8.1093,8.1093,8.1093,8.1093,8.1093,8.1054,8.0477,8.0246,8.0208,7.9631,7.9438,7.9323,7.8707,7.8477,7.8477,7.8477,7.8477,7.8477,7.8477,7.8477,7.8477,7.8477,7.8477,7.8477,7.8477,7.8477,7.8477,7.8477,7.8477,7.8477,7.8477,7.8477,7.8592,7.89,7.8977,7.9054,7.9361,7.9438,7.9438,7.9438,7.9329,7.8985,7.8305,7.8143,7.8073,7.8038,7.8038,7.802,7.7984,7.8022,7.7755,7.722,7.7144,7.6914,7.6418,7.6379,7.6379,7.6379,7.6074,7.5921,7.5921,7.5615,7.5518,7.5518,7.5518,7.5518,7.0898,7.0898,7.0898,7.0898,7.0898,7.0898,7.0898,7.1552,7.2206,7.2245,7.3553,7.4707,7.4784,7.5438,7.6015,7.6015,7.6015,7.6015,7.6015,7.6015,7.6015,0.0,0.0,0.0,0.0,0.0,0.0,7.6015,0.0,7.6015,7.6015,7.6053,7.6438,7.7284,7.7323,7.7746,7.8554,7.8592,7.9054,7.99,8.0708,8.1093,8.1093,8.1093,8.1093,8.1093,8.1093,8.1093,8.1093,8.1093,8.1093,8.1093,8.1093,8.1093,8.1093,8.1093,8.1093,8.0862,7.9208,7.8631,7.8631,7.8631,7.8631,7.8631,7.8631,7.8631,7.8631,7.8631,7.8631,7.8631,7.8631,7.8631,7.8631,7.8631,7.8631,7.8631,7.8631,7.8631,7.8861,7.9708,7.9862,8.0131,8.0977,8.1093,8.1093,8.1093,8.0991,8.0312,7.8737,7.8481,7.8382,7.8258,7.8241,7.8206,7.8155,7.8137,7.8099,7.8061,7.8061,7.8061,7.8022,7.8022,7.8022,7.8022,7.7182,7.6761,7.6761,7.5997,7.5633,7.5633,7.5633,7.5633,7.0898,7.0898,7.0898,7.0898,7.0898,7.0898,7.0898,7.1552,7.236,7.3014,7.3976,7.4899,7.5553,7.5861,7.6015,7.6015,7.6015,0.0,7.6015,7.6015,0.0,7.6015,7.6015,7.6015,7.6015,7.6015,0.0,0.0,7.6015,7.6015,7.6015,7.663,7.7053,7.7284,7.7861,7.8592,7.9477,8.0092,8.0554,8.0785,8.0977,8.1093,8.1093,8.1093,8.1093,8.1093,8.1093,8.1093,8.1093,8.1093,8.1093,8.1093,8.1093,8.1093,8.1093,8.1093,8.1093,8.1054,8.0592,8.0439,8.0439,8.0439,8.0439,8.0439,8.0439,8.0439,8.0439,8.0439,8.0439,8.0439,8.0439,8.0439,8.0439,8.0439,8.0439,8.0439,8.0439,8.0439,8.0516,8.0746,8.0785,8.0823,8.1054,8.1093,8.1093,8.1093,8.1077,8.0853,8.0328,8.0191,8.014,8.0106,8.0106,8.0089,8.0072,8.0001,7.9698,7.9086,7.8994,7.8672,7.8022,7.8022,7.8022,7.8022,7.7793,7.7678,7.7678,7.7449,7.7373,7.7373,7.7373,7.7373,7.0898,7.0898,7.0898,7.0898,7.0898,7.1014,7.136,7.2129,7.3014,7.386,7.4707,7.5438,7.5899,7.6015,7.6015,7.6015,7.6015,7.6015,7.6015,7.6015,7.6015,0.0,7.6015,0.0,7.6015,7.6015,7.6015,0.0,7.6015,7.6015,7.6015,7.6823,7.7438,7.7823,7.8631,7.9477,8.0362,8.0862,8.1093,8.1093,8.1093,8.1093,8.1093,8.1093,8.1093,8.1093,0.0,8.1093,8.1093,8.1093,8.1093,8.1093,8.1093,8.1093,8.1093,8.1093,8.1093,8.1093,8.1093,8.1093,8.1093,8.1093,8.1093,8.1093,8.1093,8.1093,8.1093,8.1093,8.1093,8.1093,8.1093,8.1093,8.1093,8.1093,8.1093,8.1093,8.1093,8.1093,8.1093,8.1093,8.1093,8.1093,8.1093,8.1093,8.1093,8.1093,8.1093,8.1077,8.0991,8.0943,8.0893,8.086,8.086,8.0843,8.0792,8.0741,8.0476,7.9963,7.9889,7.9644,7.913,7.9092,7.9092,7.9092,7.8748,7.8557,7.8557,7.8175,7.8022,7.8022,7.8022,7.8022,7.0898,7.0898,7.0898,7.0898,7.0898,7.1129,7.2014,7.286,7.3745,7.4553,7.5399,7.6015,7.6015,7.6015,7.6015,7.6015,7.6015,7.6015,7.6015,7.6015,7.6015,7.6015,7.6015,7.6015,7.6015,7.6015,7.6015,7.6015,7.6092,7.6169,7.6169,7.6976,7.79,7.8823,7.9592,8.0323,8.1093,8.1093,8.1093,8.1093,8.1093,8.1093,8.1093,8.1093,8.1093,8.1093,8.1093,0.0,8.1093,8.1093,8.1093,8.1093,8.1093,8.1093,8.1093,8.1093,8.1093,8.1093,8.1093,8.1093,8.1093,8.1093,8.1093,8.1093,8.1093,8.1093,8.1093,8.1093,8.1093,8.1093,8.1093,8.1093,8.1093,8.1093,8.1093,8.1093,8.1093,8.1093,8.1093,8.1093,8.1093,8.1093,8.1093,8.1093,8.1093,8.1093,8.1208,8.1246,8.1246,8.117,8.1061,8.0959,8.0943,8.091,8.0843,8.0826,8.0775,8.065,8.0632,8.0596,8.0525,8.0525,8.0525,8.0506,7.9818,7.9454,7.9454,7.871,7.8328,7.8328,7.8328,7.8328,7.0898,7.0898,7.0898,7.0898,7.0898,7.1129,7.2014,7.286,7.3745,7.4553,7.5399,7.6015,7.6015,7.6015,7.6015,7.6015,7.6015,7.6015,7.6015,7.6015,7.6015,0.0,7.6015,7.6015,7.6015,7.6015,0.0,0.0,0.0,7.7053,7.7053,7.7861,7.9015,8.0592,8.0785,8.0939,8.1093,8.1093,8.1093,8.1093,8.1093,8.1093,8.1093,8.1093,8.1093,8.1093,8.1093,0.0,8.1093,8.1093,8.1093,8.1093,8.1093,8.1093,8.1093,8.1093,8.1093,8.1093,8.1093,8.1093,8.1093,8.1093,8.1093,8.1093,8.1093,8.1093,8.1093,8.1093,8.1093,8.1093,8.1093,8.1093,8.1093,8.1093,8.1093,8.1093,8.1093,8.1093,8.1093,8.1093,8.1093,8.1093,8.1093,8.1093,8.1093,8.1093,8.167,8.2093,8.2093,8.1516,8.1093,8.1077,8.1077,8.1061,8.1045,8.0943,8.0855,8.0838,8.0809,8.0723,8.0596,8.0596,8.056,8.0506,8.0353,8.0277,8.0277,8.0124,8.0086,8.0086,8.0086,8.0086,7.0898,7.0898,7.0898,7.0898,7.0898,7.1245,7.2552,7.3206,7.386,7.513,7.5707,7.6015,7.6015,7.6015,7.6015,7.6015,7.6015,7.6015,7.6015,7.6015,7.6015,7.6015,7.6015,7.6015,7.6015,7.6015,7.6015,7.6015,0.0,7.7284,7.7284,7.8477,7.9785,8.1054,8.1093,8.1093,8.1093,8.1093,8.1093,8.1093,8.1093,8.1093,8.1093,8.1093,8.1093,8.1093,8.1093,0.0,8.1131,8.1554,8.1708,8.1785,8.2208,8.2401,8.2401,8.2401,8.2401,8.2401,8.2401,8.2401,8.2401,8.2401,8.1823,8.1093,8.1093,8.1093,8.1093,8.1093,8.1093,8.1093,8.1093,8.1093,8.1093,8.1093,8.1093,8.1093,8.1093,8.1439,8.1708,8.1708,8.2093,8.2401,8.2401,8.2401,8.2401,8.2401,8.2708,8.2978,8.2978,8.2631,8.2401,8.2401,8.2401,8.2401,8.2401,8.1946,8.159,8.1579,8.1124,8.0754,8.0614,8.0614,8.0578,8.0506,8.0506,8.0506,8.0506,8.0506,8.0506,8.0506,8.0506,8.0506,7.0898,7.0898,7.0898,7.0898,7.0898,7.136,7.3091,7.3514,7.3976,7.5668,7.6015,7.6015,7.6015,7.6015,7.6015,7.6015,7.6015,7.6015,7.6015,7.6015,7.6015,7.6015,7.6015,0.0,7.6015,7.6015,0.0,7.6015,0.0,0.0,7.7823,7.9246,8.04,8.1093,8.1093,8.1093,8.1093,8.1093,8.1093,8.1093,8.1093,8.1093,8.1093,8.1093,8.1093,8.1093,8.1093,0.0,0.0,8.2054,8.2401,8.2631,8.3324,8.3593,8.3593,8.3593,8.3593,8.3593,8.3593,8.3593,8.3593,8.3593,8.2708,8.1631,8.1631,8.1631,8.1631,8.1631,8.1631,8.1631,8.1631,8.1631,8.1631,8.1631,8.1631,8.1631,8.1631,8.2131,8.2593,8.2593,8.3131,8.3593,8.3593,8.3593,8.3593,8.3593,8.3747,8.3862,8.3862,8.4016,8.4132,8.4132,8.3785,8.3593,8.3593,8.2978,8.2561,8.2496,8.1843,8.1392,8.1221,8.1186,8.1055,8.0811,8.0792,8.0697,8.0506,8.0506,8.0506,8.0506,8.0506,8.0506,7.0898,7.0898,7.0898,7.0898,7.0898,7.136,7.3091,7.3514,7.3976,7.5668,7.6015,7.6015,7.6015,7.6015,7.6015,7.6015,7.6015,7.6015,7.6015,7.6015,7.6015,7.6015,0.0,0.0,7.6015,7.6015,7.6015,7.6015,0.0,0.0,7.9515,8.0477,8.1016,8.1093,8.1093,8.1093,8.1093,8.1093,8.1093,8.1093,8.1093,8.1093,8.1093,8.1093,8.1093,8.1093,8.1093,0.0,0.0,8.2285,8.2747,8.3478,8.3555,8.3593,8.3593,8.3593,8.3593,8.3593,8.3593,8.3593,8.3593,8.3593,8.3478,8.3362,8.3362,8.3362,8.3362,8.3362,8.3362,8.3362,8.3362,8.3362,8.3362,8.3362,8.3362,8.3362,8.3362,8.3439,8.3478,8.3478,8.3555,8.3593,8.3593,8.3593,8.3593,8.3593,8.4286,8.4786,8.4786,8.544,8.5863,8.5863,8.4516,8.3593,8.3593,8.3516,8.3478,8.3478,8.3401,8.3314,8.3231,8.3128,8.2657,8.1801,8.1709,8.1308,8.0506,8.0506,8.0506,8.0506,8.0506,8.0506,7.0898,7.0898,7.0898,7.0898,7.0898,7.136,7.3091,7.3514,7.3976,7.5668,7.6015,7.6015,7.6015,7.6015,7.6015,7.6015,7.6015,7.6015,7.6015,7.6015,7.6015,7.6015,7.6015,0.0,0.0,0.0,7.6438,0.0,0.0,0.0,8.0516,8.09,8.1093,8.1093,8.1093,8.1093,8.1093,8.1093,8.1093,8.1093,8.1093,8.1093,8.1093,8.1093,8.1093,8.1131,8.1593,0.0,0.0,8.3439,8.4055,8.4439,8.4901,8.5093,8.5093,8.5093,8.5093,8.5093,8.5093,8.5093,8.5093,8.5093,8.5093,8.4901,8.3901,8.3593,8.3593,8.3593,8.3593,8.3593,8.3593,8.3593,8.3593,8.3593,8.3593,8.3593,8.3593,8.4016,8.4362,8.4362,8.4786,8.5093,8.5093,8.5093,8.5093,8.5093,8.5401,8.5632,8.5632,8.5901,8.6094,8.6094,8.5517,8.5093,8.5093,8.467,8.4362,8.4362,8.3901,8.3561,8.3516,8.3427,8.3187,8.2699,8.2644,8.2435,8.1996,8.1996,8.1996,8.1996,8.1996,8.1996,7.0898,7.0898,7.0898,7.0898,7.1091,7.1668,7.3168,7.3668,7.4245,7.5707,7.6015,7.6015,7.6015,7.6015,7.6015,7.6015,7.6015,7.6015,7.6015,7.6015,7.6015,7.6015,0.0,7.6284,0.0,7.6015,7.6707,0.0,0.0,0.0,8.1016,8.1093,8.1093,8.1093,8.1093,8.1093,8.1093,8.1093,8.1093,8.1093,8.1093,8.1093,8.1093,8.1093,8.1093,8.1131,0.0,0.0,0.0,8.4286,8.5055,8.5324,8.5901,8.6094,8.6094,8.6094,8.6094,8.6094,8.6094,8.6094,8.6094,8.6094,8.6094,8.5901,8.4709,8.4324,8.4324,8.4324,8.4324,8.4324,8.4324,8.4324,8.4324,8.4324,8.4324,8.4324,8.4324,8.4824,8.5247,8.5247,8.5709,8.6094,8.6094,8.6094,8.6094,8.6094,8.6094,8.6094,8.6094,8.6094,8.6094,8.6094,8.6094,8.6094,8.6094,8.5593,8.5247,8.5247,8.467,8.4308,8.428,8.4263,8.4063,8.3653,8.3635,8.3427,8.3084,8.3047,8.3047,8.3047,8.3009,8.299,7.0898,7.0898,7.0898,7.0898,7.1552,7.2399,7.3322,7.413,7.4938,7.5822,7.6015,7.6015,7.6015,7.6015,7.6015,7.6015,7.6015,7.6015,7.6015,7.6015,7.6015,0.0,0.0,7.6938,7.6092,7.6015,7.6707,0.0,0.0,0.0,8.1016,8.1093,8.1093,8.1093,8.1093,8.1093,8.1093,8.1093,8.1093,8.1093,8.1093,8.1093,8.1093,8.1093,8.1093,0.0,0.0,0.0,0.0,8.4555,8.5363,8.6094,8.6094,8.6094,8.6094,8.6094,8.6094,8.6094,8.6094,8.6094,8.6094,8.6094,8.6094,8.6094,8.6094,8.6055,8.6055,8.6055,8.6055,8.6055,8.6055,8.6055,8.6055,8.6055,8.6055,8.6055,8.6055,8.6094,8.6094,8.6094,8.6094,8.6094,8.6094,8.6094,8.6094,8.6094,8.6094,8.6094,8.6094,8.6094,8.6094,8.6094,8.6094,8.6094,8.6094,8.6094,8.6094,8.6094,8.6094,8.6055,8.6055,8.6009,8.5574,8.469,8.4603,8.4167,8.3323,8.3234,8.3179,8.3179,8.3047,8.299,7.0898,7.0898,7.0898,7.0898,7.1552,7.2437,7.3322,7.413,7.4938,7.5822,7.6015,7.6015,7.6015,7.6015,7.6015,7.6015,7.6015,7.6015,7.6015,7.6015,0.0,7.6015,7.6245,7.6284,0.0,0.0,0.0,0.0,0.0,0.0,8.1016,8.1093,8.1093,8.1093,8.1093,8.1093,8.1093,8.1093,8.1093,8.1093,8.1093,8.1093,8.1093,8.1093,0.0,0.0,0.0,0.0,0.0,8.5401,8.5863,8.6094,8.6094,8.6094,8.6094,8.6094,8.6094,8.6094,8.6094,8.6094,8.6094,8.6094,8.6094,8.6094,8.6094,8.6094,8.6094,8.6094,8.6094,8.6094,8.6094,8.6094,8.6094,8.6094,8.6094,8.6094,8.6094,8.6094,8.6094,8.6094,8.6094,8.6094,8.6094,8.6094,8.6094,8.6094,8.6094,8.6094,8.6094,8.6094,8.6094,8.6094,8.6094,8.6094,8.6094,8.6094,8.6094,8.6094,8.6094,8.6094,8.6094,8.606,8.5911,8.5574,8.5556,8.5389,8.501,8.4974,8.4937,8.4901,8.4767,8.4709,7.0898,7.0898,7.0898,7.0898,7.1783,7.2822,7.3399,7.4399,7.5361,7.5899,7.6015,7.6015,7.6015,7.6015,7.6015,7.6015,7.6015,7.6015,7.6015,0.0,0.0,7.6438,0.0,0.0,0.0,7.6207,0.0,0.0,0.0,0.0,8.1016,8.1093,8.1093,8.1093,8.1093,8.1093,8.1093,8.1093,8.1093,8.1093,8.1093,8.1093,8.1093,8.1093,0.0,0.0,0.0,0.0,0.0,8.5786,8.6094,8.6094,8.6094,8.6094,8.6094,8.6094,8.6094,8.6094,8.6094,8.6094,8.6094,8.6094,8.6094,8.6094,8.6094,8.6094,8.6094,8.6094,8.6094,8.6094,8.6094,8.6094,8.6094,8.6094,8.6094,8.6094,8.6094,8.6094,8.6094,8.6094,8.6094,8.6094,8.6094,8.6094,8.6094,8.6094,8.6094,8.6094,8.6094,8.6094,8.6094,8.6094,8.6094,8.6094,8.6094,8.6094,8.6094,8.6094,8.6094,8.6094,8.6094,8.6094,8.606,8.6048,8.6048,8.5975,8.5923,8.5887,8.5797,8.5705,8.5609,8.5551,0.0,7.0898,7.0898,7.0898,7.2206,7.3514,7.3514,7.4822,0.0,7.6015,7.6015,7.6015,7.6015,7.6015,7.6015,7.6015,7.6015,7.6015,0.0,7.6015,0.0,0.0,7.6476,0.0,7.713,0.0,0.0,0.0,0.0,0.0,8.0939,8.1054,8.1093,8.1093,8.1093,8.1093,8.1093,8.1093,8.1093,8.1093,8.1093,8.1093,8.1093,8.1093,0.0,0.0,0.0,0.0,0.0,8.5786,8.6094,8.6094,8.6094,8.6094,8.6094,8.6094,8.6094,8.6094,8.6094,8.6094,8.6094,8.6094,8.6094,8.6094,8.6094,8.6094,8.6094,8.6094,8.6094,8.6094,8.6094,8.6094,8.6094,8.6094,8.6094,8.6094,8.6094,8.6094,8.6094,8.6094,8.6094,8.6094,8.6094,8.6094,8.6094,8.6094,8.6094,8.6094,8.6094,8.6094,8.6094,8.6094,8.6094,8.6094,8.6094,8.6094,8.6094,8.6094,8.6094,8.6094,8.6094,8.6094,8.6094,8.6094,8.6094,8.6094,8.6094,8.6048,8.5908,8.5743,8.5724,8.5628,7.0898,0.0,7.0898,7.0898,7.2206,7.3514,0.0,7.4822,7.6015,7.6015,7.6015,7.6015,7.6015,7.6015,7.6015,7.6015,7.6015,7.6015,7.6015,7.6015,0.0,7.6284,7.613,7.6092,7.6284,0.0,0.0,0.0,0.0,7.8977,8.0054,8.0746,8.1093,8.1093,8.1093,8.1093,8.1093,8.1093,8.1093,8.1093,8.1093,8.1093,8.1093,8.1093,0.0,0.0,0.0,0.0,8.5824,8.6017,8.6094,8.6094,8.6094,8.6094,8.6094,8.6094,8.6094,8.6094,8.6094,8.6094,8.6094,8.6094,8.6094,8.6094,8.6094,8.6094,8.6094,8.6094,8.6094,8.6094,8.6094,8.6094,8.6094,8.6094,8.6094,8.6094,8.6094,8.6094,8.6094,8.6094,8.6094,8.6094,8.6094,8.6094,8.6094,8.6094,8.6094,8.6094,8.6094,8.6094,8.6094,8.6094,8.6094,8.6094,8.6094,8.6094,8.6094,8.6094,8.6094,8.6094,8.6094,8.6094,8.6094,8.6094,8.6094,8.6094,8.6094,8.6048,8.5979,8.5944,8.5815,8.576,7.0898,7.0898,7.0898,7.0898,7.1898,7.3014,7.3399,7.4476,7.5515,7.5938,7.6015,7.6015,7.6015,7.6015,7.6015,7.6015,7.6015,0.0,0.0,0.0,7.6015,7.6015,7.6015,7.6015,0.0,0.0,0.0,0.0,0.0,7.8861,7.9746,8.0631,8.1093,8.1093,8.1093,8.1093,8.1093,8.1093,8.1093,8.1093,8.1093,8.1093,8.1093,8.1477,8.2362,0.0,0.0,0.0,8.6094,8.6094,8.6094,8.6094,8.6094,8.6094,8.6094,8.6094,8.6094,8.6094,8.6094,8.6094,8.6094,8.6094,8.6094,8.6094,8.6094,8.6094,8.6094,8.6094,8.6094,8.6094,8.6094,8.6094,8.6094,8.6094,8.6094,8.6094,8.6094,8.6094,8.6094,8.6094,8.6094,8.6094,8.6094,8.6094,8.6094,8.6094,8.6094,8.6094,8.6094,8.6094,8.6094,8.6094,8.6094,8.6094,8.6094,8.6094,8.6094,8.6094,8.6094,8.6094,8.6094,8.6094,8.6094,8.6094,8.6094,8.6094,8.6094,8.6043,8.6048,8.5996,8.5944,8.5852,7.0898,7.0898,7.0898,7.0898,7.1552,7.2437,7.3322,7.413,7.4938,7.5822,7.6015,7.5976,7.5822,7.5899,7.5976,7.5822,7.5899,0.0,7.6015,7.6015,7.6015,7.6015,7.6015,0.0,0.0,0.0,0.0,0.0,0.0,7.8669,7.9554,8.0439,8.0977,8.1093,8.1093,8.1093,8.1093,8.1093,8.1093,8.1093,8.1093,8.1093,8.1131,8.1823,8.267,0.0,0.0,0.0,8.6094,8.6094,8.6094,8.6094,8.6094,8.6094,8.6094,8.6094,8.6094,8.6094,8.6094,8.6094,8.6094,8.6094,8.6094,8.6094,8.6094,8.6094,8.6094,8.6094,8.6094,8.6094,8.6094,8.6094,8.6094,8.6094,8.6094,8.6094,8.6094,8.6094,8.6094,8.6094,8.6094,8.6094,8.6094,8.6094,8.6094,8.6094,8.6094,8.6094,8.6094,8.6094,8.6094,8.6094,8.6094,8.6094,8.6094,8.6094,8.6094,8.6094,8.6094,8.6094,8.6094,8.6094,8.6094,8.6094,8.6094,8.6094,8.6094,8.6094,8.606,8.6031,8.6031,8.594,7.0898,7.0898,7.0898,7.0898,7.1552,7.2437,7.3322,7.413,7.4938,7.5822,7.6015,7.5784,7.5053,7.5515,7.5745,7.5014,7.5515,7.6015,0.0,0.0,7.6015,7.6015,0.0,0.0,0.0,0.0,0.0,0.0,0.0,7.7823,7.8669,7.9515,8.0323,8.1093,8.1093,8.1093,8.1093,8.1093,8.1093,8.1093,8.1093,8.1093,8.1093,8.1246,8.2131,8.3593,0.0,8.467,8.6094,8.6094,8.6094,8.6094,8.6094,8.6094,8.6094,8.6094,8.6094,8.6094,8.6094,8.6094,8.6094,8.6094,8.6094,8.6094,8.6094,8.6094,8.6094,8.6094,8.6094,8.6094,8.6094,8.6094,8.6094,8.6094,8.6094,8.6094,8.6094,8.6094,8.6094,8.6094,8.6094,8.6094,8.6094,8.6094,8.6094,8.6094,8.6094,8.6094,8.6094,8.6094,8.6094,8.6094,8.6094,8.6094,8.6094,8.6094,8.6094,8.6094,8.6094,8.6094,8.6094,8.6094,8.6094,8.6094,8.6094,8.6094,8.6094,8.6094,8.6077,8.6077,8.6077,8.606,7.0898,7.0898,7.0898,7.0898,7.1206,7.1745,7.2591,7.3091,7.3707,7.5014,7.5284,7.5322,7.5399,7.5745,7.5861,7.5476,0.0,7.6015,7.6015,7.6015,7.6015,0.0,0.0,0.0,0.0,0.0,0.0,0.0,0.0,0.0,7.8453,7.9323,8.0208,8.1054,8.1093,8.1093,8.1093,8.1093,8.1093,8.1093,8.1093,8.1093,8.1093,8.1554,8.2439,8.3632,0.0,8.4978,8.6094,8.6094,8.6094,8.6094,8.6094,8.6094,8.6094,8.6094,8.6094,8.6094,8.6094,8.6094,8.6094,8.6094,8.6094,8.6094,8.6094,8.6094,8.6094,8.6094,8.6094,8.6094,8.6094,8.6094,8.6094,8.6094,8.6094,8.6094,8.6094,8.6094,8.6094,8.6094,8.6094,8.6094,8.6094,8.6094,8.6094,8.6094,8.6094,8.6094,8.6094,8.6094,8.6094,8.6094,8.6094,8.6094,8.6094,8.6094,8.6094,8.6094,8.6094,8.6094,8.6094,8.6094,8.6094,8.6094,8.6094,8.6094,8.6094,8.6094,8.6094,8.6094,8.6094,8.6094,7.0898,7.0898,7.0898,7.0898,7.0898,7.1129,7.2014,7.2206,7.2629,7.413,7.4437,7.463,7.5284,7.5553,7.5745,7.5976,7.6015,7.6015,7.6015,7.6015,7.6015,0.0,0.0,0.0,0.0,0.0,0.0,0.0,0.0,0.0,7.8169,7.9015,7.99,8.0785,8.0977,8.1093,8.1093,8.1093,8.1093,8.1093,8.1093,8.1093,8.1131,8.1747,8.2593,8.3632,8.4324,8.517,8.6094,8.6094,8.6094,8.6094,8.6094,8.6094,8.6094,8.6094,8.6094,8.6094,8.6094,8.6094,8.6094,8.6094,8.6094,8.6094,8.6094,8.6094,8.6094,8.6094,8.6094,8.6094,8.6094,8.6094,8.6094,8.6094,8.6094,8.6094,8.6094,8.6094,8.6094,8.6094,8.6094,8.6094,8.6094,8.6094,8.6094,8.6094,8.6094,8.6094,8.6094,8.6094,8.6094,8.6094,8.6094,8.6094,8.6094,8.6094,8.6094,8.6094,8.6094,8.6094,8.6094,8.6094,8.6094,8.6094,8.6094,8.6094,8.6094,8.6094,8.6094,8.6094,8.6094,8.6094,7.0898,7.0898,7.0898,7.0898,7.0898,7.1129,7.2014,7.2206,7.2476,7.3399,7.3591,7.363,7.3668,7.4284,7.5053,7.5861,7.6015,7.6015,7.6015,0.0,0.0,0.0,0.0,0.0,0.0,0.0,0.0,0.0,0.0,0.0,7.7323,7.813,7.8977,7.9862,8.0669,8.1093,8.1093,8.1093,8.1093,8.1093,8.1093,8.1093,8.1093,8.117,8.2054,8.3593,8.367,8.4593,8.6094,8.6094,8.6094,8.6094,8.6094,8.6094,8.6094,8.6094,8.6094,8.6094,8.6094,8.6094,8.6094,8.6094,8.6094,8.6094,8.6094,8.6094,8.6094,8.6094,8.6094,8.6094,8.6094,8.6094,8.6094,8.6094,8.6094,8.6094,8.6094,8.6094,8.6094,8.6094,8.6094,8.6094,8.6094,8.6094,8.6094,8.6094,8.6094,8.6094,8.6094,8.6094,8.6094,8.6094,8.6094,8.6094,8.6094,8.6094,8.6094,8.6094,8.6094,8.6094,8.6094,8.6094,8.6094,8.6094,8.6094,8.6094,8.6094,8.6094,8.6094,8.6094,8.6094,8.6094,7.0898,7.0898,7.0898,7.0898,7.0898,7.0975,7.1321,7.1398,7.1629,7.2514,7.3129,7.3822,7.4861,7.5284,7.563,7.5938,7.6015,7.6015,7.6015,0.0,0.0,0.0,0.0,0.0,0.0,0.0,0.0,0.0,0.0,0.0,7.7246,7.7592,7.8361,7.9746,8.0131,8.0554,8.1093,8.1093,8.1093,8.1093,8.1093,8.1093,8.1093,8.1093,8.2016,8.3593,8.3593,8.4555,8.6094,8.6094,8.6094,8.6094,8.6094,8.6094,8.6094,8.6094,8.6094,8.6094,8.6094,8.6094,8.6094,8.6094,8.6094,8.6094,8.6094,8.6094,8.6094,8.6094,8.6094,8.6094,8.6094,8.6094,8.6094,8.6094,8.6094,8.6094,8.6094,8.6094,8.6094,8.6094,8.6094,8.6094,8.6094,8.6094,8.6094,8.6094,8.6094,8.6094,8.6094,8.6094,8.6094,8.6094,8.6094,8.6094,8.6094,8.6094,8.6094,8.6094,8.6094,8.6094,8.6094,8.6094,8.6363,8.6901,8.6901,8.7171,8.7709,8.7709,8.7709,8.7709,8.7709,8.7709,7.0898,7.0898,7.0898,7.0898,7.0898,7.0898,7.0898,7.0898,7.1168,7.2014,7.3091,7.4245,7.5399,7.5822,0.0,0.0,7.6015,7.6015,0.0,0.0,0.0,0.0,0.0,0.0,0.0,0.0,0.0,0.0,0.0,0.0,0.0,7.713,7.7938,7.9361,7.9669,8.0208,8.1093,8.1093,8.1093,8.1093,8.1093,8.1093,8.1093,8.1093,8.2016,8.3593,8.3593,8.4555,8.6094,8.6094,8.6094,8.6094,8.6094,8.6094,8.6094,8.6094,8.6094,8.6094,8.6094,8.6094,8.6094,8.6094,8.6094,8.6094,8.6094,8.6094,8.6094,8.6094,8.6094,8.6094,8.6094,8.6094,8.6094,8.6094,8.6094,8.6094,8.6094,8.6094,8.6094,8.6094,8.6094,8.6094,8.6094,8.6094,8.6094,8.6094,8.6094,8.6094,8.6094,8.6094,8.6094,8.6094,8.6363,8.6517,8.6517,8.6748,8.6901,8.6901,8.6901,8.6786,8.6517,8.6786,8.7209,8.7786,8.7825,8.8094,8.8709,8.8709,8.8709,8.8709,8.8709,8.8709,7.0898,7.0898,7.0898,7.0898,7.0898,7.0898,7.0898,7.0898,7.1168,7.2052,7.3553,7.4707,7.4707,7.5438,0.0,7.6015,7.6015,0.0,0.0,0.0,0.0,0.0,0.0,0.0,0.0,0.0,0.0,0.0,0.0,0.0,0.0,7.6823,7.7669,7.8477,7.9323,8.0208,8.1093,8.1093,8.1093,8.1093,8.1093,8.1093,8.1093,8.1093,8.2016,8.3593,8.3593,8.4555,8.6094,8.6094,8.6094,8.6094,8.6094,8.6094,8.6094,8.6094,8.6094,8.6094,8.6094,8.6094,8.6094,8.6094,8.6094,8.6094,8.6094,8.6094,8.6094,8.6094,8.6094,8.6094,8.6094,8.6094,8.6094,8.6094,8.6094,8.6094,8.6094,8.6132,8.6132,8.6132,8.6132,8.6132,8.6132,8.6132,8.6132,8.6132,8.6132,8.6132,8.6132,8.6132,8.6132,8.6132,8.6901,8.7401,8.7401,8.8209,8.8709,8.8709,8.8709,8.8325,8.744,8.8248,8.8709,8.8709,8.8709,8.8709,8.8709,8.8709,8.8709,8.8709,8.8709,8.8709,7.0898,7.0898,7.0898,7.0898,7.0898,7.0898,7.0898,7.136,7.2206,7.3668,7.4361,7.4899,7.5515,7.5822,0.0,7.6015,0.0,0.0,0.0,0.0,0.0,0.0,0.0,0.0,0.0,0.0,0.0,0.0,0.0,0.0,0.0,7.6245,7.7053,7.8453,7.8746,7.9592,8.1093,8.1093,8.1093,8.1093,8.1093,8.1093,8.1093,8.1093,8.2016,8.3593,8.3593,8.4555,8.6094,8.6094,8.6094,8.6094,8.6094,8.6094,8.6094,8.6094,8.6094,8.6094,8.6094,8.6094,8.6094,8.6094,8.6094,8.6094,8.6094,8.6094,8.6094,8.6094,8.6094,8.6094,8.6094,8.6555,8.6863,8.6247,8.6555,8.7017,8.7017,8.7478,8.794,8.794,8.794,8.794,8.794,8.794,8.794,8.794,8.794,8.794,8.794,8.794,8.794,8.794,8.8171,8.8286,8.8286,8.8556,8.8709,8.8709,8.9248,8.9171,8.8363,8.8556,8.8979,8.9517,8.9556,8.9863,9.0441,9.0441,9.0441,9.0441,9.0441,9.0441,7.0898,7.0898,7.0898,7.0898,7.0898,7.1091,7.1783,7.2322,7.3091,7.4437,7.4976,7.5399,7.5899,7.6015,0.0,0.0,0.0,0.0,0.0,0.0,0.0,0.0,0.0,0.0,0.0,0.0,0.0,0.0,0.0,0.0,0.0,7.6015,7.6784,7.8438,7.8477,7.9323,8.1093,8.1093,8.1093,8.1093,8.1093,8.1093,8.1093,8.1093,8.2016,8.3632,8.4286,8.517,8.6094,8.6094,8.6094,8.6094,8.6094,8.6094,8.6094,8.6094,8.6094,8.6094,8.6094,8.6094,8.6094,8.6094,8.6094,8.6094,8.6094,8.6094,8.6094,8.6094,8.6363,8.6632,8.6632,8.7248,8.7709,8.6824,8.7286,8.7902,8.7902,8.8325,8.8709,8.8709,8.8709,8.8709,8.8709,8.8709,8.8709,8.8709,8.8709,8.8709,8.8709,8.8709,8.8709,8.8709,8.8979,8.9171,8.9171,8.9479,8.9671,8.9671,9.0171,9.021,8.971,8.9671,8.9902,9.0402,9.0441,9.0671,9.121,9.121,9.121,9.121,9.121,9.121,7.0898,7.0898,7.0898,7.0898,7.0975,7.1437,7.3129,7.3553,7.386,7.4668,7.5438,7.6015,7.6015,7.6015,7.6015,0.0,0.0,0.0,0.0,0.0,0.0,0.0,0.0,0.0,0.0,0.0,0.0,0.0,0.0,0.0,0.0,7.6015,7.6784,7.8438,7.8446,7.9277,8.1007,8.1045,8.1045,8.1045,8.1077,8.1093,8.1093,8.1093,8.2016,8.367,8.5363,8.6094,8.6094,8.6094,8.6094,8.6094,8.6094,8.6094,8.6094,8.6094,8.6094,8.6094,8.6094,8.6094,8.6094,8.6094,8.6094,8.6094,8.6094,8.6094,8.6132,8.6209,8.6786,8.7401,8.7517,8.8171,8.8594,8.7825,8.8209,8.8786,8.8786,8.8863,8.894,8.894,8.894,8.894,8.894,8.894,8.894,8.894,8.894,8.894,8.894,8.894,8.894,8.894,8.9594,9.0017,9.0017,9.0748,9.121,9.121,9.121,9.121,9.121,9.121,9.121,9.121,9.121,9.121,9.121,9.121,9.121,9.121,9.121,9.121,7.0898,7.0898,7.0898,7.0898,7.1398,7.2206,7.3283,7.4014,7.4707,7.5553,7.5861,7.6015,7.6015,7.6015,7.6015,0.0,0.0,0.0,0.0,0.0,0.0,0.0,0.0,0.0,0.0,0.0,0.0,0.0,0.0,0.0,7.6015,7.6015,7.6784,7.8438,7.8147,7.8797,8.0519,8.0558,8.0558,0.0,8.0926,8.1093,8.1093,8.1093,8.2016,8.367,8.5363,8.6094,8.6094,8.6094,8.6094,8.6094,8.6094,8.6094,8.6094,8.6094,8.6094,8.6094,8.6094,8.6094,8.6094,8.6094,8.6094,8.6094,8.6094,8.6094,8.6247,8.694,8.7248,8.7555,8.8248,8.9017,8.9594,8.9402,8.9517,8.9633,8.9633,9.0171,9.0671,9.0671,9.0671,9.0671,9.0671,9.0671,9.0671,9.0671,9.0671,9.0671,9.0671,9.0671,9.0671,9.0671,9.0825,9.0941,9.0941,9.1095,9.121,9.121,9.121,9.121,9.121,9.121,9.121,9.121,9.121,9.121,9.121,9.121,9.121,9.121,9.121,9.121,7.0898,7.0898,7.0898,7.0898,7.1552,7.2437,7.3322,7.413,7.4938,7.5822,7.6015,7.6015,7.6015,7.6015,0.0,0.0,0.0,0.0,0.0,0.0,0.0,0.0,0.0,0.0,0.0,0.0,0.0,0.0,0.0,7.6015,7.6015,7.6015,7.6671,7.8125,7.792,7.8523,8.0063,8.0043,8.02,8.0391,8.0629,8.1085,8.1708,8.2093,8.2747,8.367,8.5363,8.6094,8.6094,8.6094,8.6094,8.6094,8.6094,8.6094,8.6094,8.6094,8.6094,8.6094,8.6094,8.6094,8.6094,8.6094,8.6094,8.6094,8.6094,8.6401,8.6824,8.7286,8.7979,8.8709,8.9171,8.9902,9.0517,9.0517,9.0517,9.0517,9.0517,9.0902,9.121,9.121,9.121,9.121,9.121,9.121,9.121,9.121,9.121,9.121,9.121,9.121,9.121,9.121,9.121,9.121,9.121,9.121,9.121,9.121,9.121,9.121,9.121,9.121,9.121,9.121,9.121,9.121,9.121,9.121,9.121,9.121,9.121,9.121,7.0898,7.0898,7.0898,7.0898,7.1552,7.2399,7.3129,7.4014,7.4899,7.563,7.5899,7.6015,7.6015,7.6015,0.0,0.0,0.0,0.0,0.0,0.0,0.0,0.0,0.0,0.0,0.0,0.0,0.0,0.0,0.0,7.5947,7.5902,7.6101,7.6677,7.7664,7.7836,7.8424,7.9561,7.9576,7.9773,8.018,8.0392,8.1039,8.2105,8.3103,8.367,8.3901,8.544,8.6094,8.6094,8.6094,8.6094,8.6094,8.6094,8.6094,8.6094,8.6094,8.6094,8.6094,8.6094,8.6094,8.6094,8.6094,8.6094,8.6132,8.6286,8.6824,8.744,8.7748,8.8825,8.9923,9.0094,9.0671,9.121,9.121,9.121,9.121,9.121,9.121,9.121,9.121,9.121,9.121,9.121,9.121,9.121,9.121,9.121,9.121,9.121,9.121,9.121,9.121,9.121,9.121,9.121,9.121,9.121,9.121,9.121,9.121,9.121,9.121,9.121,9.121,9.121,9.121,9.121,9.121,9.121,9.121,9.121,9.121,7.0898,7.0898,7.0898,7.0898,7.1552,7.2206,7.236,7.3591,7.4745,7.4861,7.5476,7.6015,7.6015,0.0,0.0,0.0,0.0,0.0,0.0,0.0,0.0,0.0,0.0,0.0,0.0,0.0,0.0,0.0,7.6015,7.5818,7.5396,7.6478,7.7193,7.7293,7.7973,7.8592,7.9088,7.9102,7.9126,7.9198,8.0295,8.0916,8.1149,8.2727,8.3904,8.4786,8.5709,8.6094,8.6094,8.6094,8.6094,8.6094,8.6094,8.6094,8.6094,8.6094,8.6094,8.6094,8.6094,8.6094,8.6094,8.6094,8.6094,8.6247,8.7017,8.7325,8.7709,8.9171,8.9748,9.0094,9.0825,9.1133,9.121,9.121,9.121,9.121,9.121,9.121,9.121,9.121,9.121,9.121,9.121,9.121,9.121,9.121,9.121,9.121,9.121,9.121,9.121,9.121,9.121,9.121,9.121,9.121,9.121,9.121,9.121,9.121,9.121,9.121,9.121,9.121,9.121,9.121,9.121,9.121,9.121,9.121,9.121,9.121,7.0898,7.0898,7.0898,7.0898,7.1206,7.1591,7.2091,7.3168,7.4168,7.463,7.5399,7.6015,0.0,0.0,0.0,0.0,0.0,0.0,0.0,0.0,0.0,0.0,0.0,0.0,0.0,0.0,0.0,0.0,7.6015,7.5803,7.5327,7.6578,7.7152,7.6821,7.7814,7.8481,7.8607,7.8618,7.8738,7.9004,8.0013,8.0914,8.1657,8.259,8.3377,8.4133,8.5226,8.5702,8.5721,8.6009,8.6094,8.6094,8.6094,8.6094,8.6094,8.6094,8.6094,8.6094,8.6094,8.6094,8.6094,8.6094,8.644,8.6901,8.7286,8.8055,8.894,8.971,9.0248,9.071,9.1095,9.121,9.121,9.121,9.121,9.121,9.121,9.121,9.121,9.121,9.121,9.121,9.121,9.121,9.121,9.121,9.121,9.121,9.121,9.121,9.121,9.121,9.121,9.121,9.121,9.121,9.121,9.121,9.121,9.121,9.121,9.121,9.121,9.121,9.121,9.121,9.121,9.121,9.121,9.121,9.121,9.121,7.0898,7.0898,7.0898,7.0898,7.0898,7.1052,7.1706,7.2552,7.3399,0.0,7.5091,7.5745,0.0,0.0,0.0,0.0,0.0,0.0,0.0,0.0,0.0,0.0,0.0,0.0,0.0,0.0,0.0,0.0,7.6015,7.5756,7.5185,7.6722,7.7256,7.6535,7.793,7.8661,7.8485,7.8359,7.8458,7.884,7.9852,8.0843,8.1853,8.2507,8.3021,8.3448,8.4805,8.5416,8.5436,8.5902,8.6094,8.6094,8.6094,8.6094,8.6094,8.6094,8.6094,8.6094,8.6094,8.6094,8.6132,8.6363,8.6863,8.7478,8.7902,8.8902,8.994,9.0171,9.071,9.121,9.121,9.121,9.121,9.121,9.121,9.121,9.121,9.121,9.121,9.121,9.121,9.121,9.121,9.121,9.121,9.121,9.121,9.121,9.121,9.121,9.121,9.121,9.121,9.121,9.121,9.121,9.121,9.121,9.121,9.121,9.121,9.121,9.121,9.121,9.121,9.121,9.121,9.121,9.121,9.121,9.121,9.121,7.0898,7.0898,7.0898,7.0898,7.0898,7.0898,7.0975,7.1629,7.2514,7.3399,7.4207,7.5014,0.0,0.0,0.0,0.0,0.0,0.0,0.0,0.0,0.0,0.0,0.0,0.0,0.0,0.0,0.0,0.0,7.6015,7.5622,7.4786,7.7088,7.7847,7.6535,7.8557,7.9426,7.8979,7.8538,7.8304,7.8369,7.993,8.0711,8.0842,8.2421,8.3165,8.3272,8.4749,8.5416,8.5436,8.5902,8.6094,8.6094,8.6094,8.6094,8.6094,8.6094,8.6094,8.6094,8.6094,8.6094,8.6247,8.7055,8.7363,8.7709,8.9286,8.9808,9.0094,9.0902,9.1171,9.121,9.121,9.121,9.121,9.121,9.121,9.121,9.121,9.121,9.121,9.121,9.121,9.121,9.121,9.121,9.121,9.121,9.121,9.121,9.121,9.121,9.121,9.121,9.121,9.121,9.121,9.121,9.121,9.121,9.121,9.121,9.121,9.121,9.121,9.121,9.121,9.121,9.121,9.121,9.121,9.121,9.121,9.121,7.0898,7.0898,7.0898,7.0898,7.0898,7.0898,7.0898,7.1552,7.2283,7.2591,7.3745,7.4822,0.0,0.0,0.0,0.0,0.0,0.0,0.0,0.0,0.0,0.0,0.0,0.0,0.0,0.0,0.0,0.0,0.0,7.5606,7.4766,7.7126,7.7885,7.6535,7.8595,7.9326,7.8565,7.8386,7.8536,7.9056,8.0171,8.0988,8.1545,8.2697,8.318,8.3268,8.4438,8.4942,8.5007,8.5757,8.6094,8.6094,8.6094,8.6094,8.6094,8.6094,8.6094,8.6094,8.6094,8.6094,8.6247,8.7132,8.7786,8.844,8.9556,9.0287,9.0787,9.1133,9.121,9.121,9.121,9.121,9.121,9.121,9.121,9.121,9.121,9.121,9.121,9.121,9.121,9.121,9.121,9.121,9.121,9.121,9.121,9.121,9.121,9.121,9.121,9.121,9.121,9.121,9.121,9.121,9.121,9.121,9.121,9.121,9.121,9.121,9.121,9.121,9.121,9.121,9.121,9.121,9.121,9.121,9.121,9.121,7.0871,7.0898,7.0898,7.0898,7.0898,7.0898,7.0898,7.136,7.186,7.2129,7.3322,7.4399,0.0,0.0,0.0,0.0,0.0,0.0,0.0,0.0,0.0,0.0,0.0,0.0,0.0,0.0,0.0,0.0,0.0,0.0,7.4766,7.7126,7.8206,7.7583,7.8949,7.9232,7.8304,7.8276,7.8685,7.9502,8.032,8.1137,8.2028,8.2809,8.318,8.3268,8.428,8.4711,8.4765,8.5702,8.6094,8.6094,8.6094,8.6094,8.6094,8.6094,8.6094,8.6094,8.6094,8.6286,8.6671,8.7555,8.8402,8.9248,9.0094,9.0748,9.121,9.121,9.121,9.121,9.121,9.121,9.121,9.121,9.121,9.121,9.121,9.121,9.121,9.121,9.121,9.121,9.121,9.121,9.121,9.121,9.121,9.121,9.121,9.121,9.121,9.121,9.121,9.121,9.121,9.121,9.121,9.121,9.121,9.121,9.121,9.121,9.121,9.121,9.121,9.121,9.121,9.121,9.121,9.121,9.121,9.121,0.0,0.0,0.0,7.0898,7.0898,7.0898,7.0898,7.0898,7.1129,7.1975,7.286,0.0,0.0,0.0,0.0,0.0,0.0,0.0,0.0,0.0,0.0,0.0,0.0,0.0,0.0,0.0,0.0,0.0,7.6015,7.5622,7.4766,7.7109,7.8829,7.9654,7.9686,7.9232,7.8304,7.8276,7.8722,7.9539,8.032,8.1174,8.2066,8.2846,8.318,8.3268,8.4255,8.4711,8.4765,8.5702,8.6094,8.6094,8.6094,8.6094,8.6094,8.6094,8.6094,8.6094,8.6094,8.6671,8.7555,8.8402,8.9248,9.0056,9.0941,9.121,9.121,9.121,9.121,9.121,9.121,9.121,9.121,9.121,9.121,9.121,9.121,9.121,9.121,9.121,9.121,9.121,9.121,9.121,9.121,9.121,9.121,9.121,9.121,9.121,9.121,9.121,9.121,9.121,9.121,9.121,9.121,9.121,9.121,9.121,9.121,9.121,9.121,9.121,9.121,9.121,9.121,9.121,9.121,9.121,9.121,9.121,7.0353,0.0,0.0,0.0,0.0,0.0,7.0898,7.0898,7.0975,7.1206,7.1937,0.0,0.0,0.0,0.0,0.0,0.0,0.0,0.0,0.0,0.0,0.0,0.0,0.0,0.0,0.0,0.0,0.0,7.6015,7.5756,7.5185,7.6694,7.8212,7.9632,7.9372,7.8904,7.8304,7.8276,7.8982,8.0357,8.058,8.1434,8.2883,8.3106,8.318,8.3239,8.3843,8.4341,8.4765,8.5702,8.6094,8.6094,8.6094,8.6094,8.6094,8.6094,8.6094,8.6094,8.6094,8.6671,8.7555,8.8402,8.9248,9.0056,9.0941,9.121,9.121,9.121,9.121,9.121,9.121,9.121,9.121,9.121,9.121,9.121,9.121,9.121,9.121,9.121,9.121,9.121,9.121,9.121,9.121,9.121,9.121,9.121,9.121,9.121,9.121,9.121,9.121,9.121,9.121,9.121,9.121,9.121,9.121,9.121,9.121,9.121,9.121,9.121,9.121,9.121,9.121,9.121,9.121,9.121,9.121,9.121,0.0,0.0,7.0133,7.0563,0.0,0.0,7.0871,7.0898,7.0898,0.0,7.186,0.0,0.0,0.0,0.0,0.0,0.0,0.0,0.0,0.0,0.0,0.0,0.0,0.0,0.0,7.6015,7.6015,7.6015,7.6015,7.6209,7.6635,7.6979,7.7965,7.967,7.9232,7.8789,7.8304,7.8276,7.9094,8.0691,8.0691,8.1583,8.318,8.318,8.318,8.3239,8.372,8.4193,8.478,8.5494,8.5919,8.6094,8.6094,8.6094,8.6094,8.6094,8.6094,8.6094,8.6094,8.6901,8.8017,8.8517,8.9479,9.0556,9.1056,9.121,9.121,9.121,9.121,9.121,9.121,9.121,9.121,9.121,9.121,9.121,9.121,9.121,9.121,9.121,9.121,9.121,9.121,9.121,9.121,9.121,9.121,9.121,9.121,9.121,9.121,9.121,9.121,9.121,9.121,9.121,9.121,9.121,9.121,9.121,9.121,9.121,9.121,9.121,9.121,9.121,9.121,9.121,9.121,9.121,9.121,9.121,0.0,0.0,0.0,0.0,7.0288,0.0,7.0748,7.0871,7.0898,7.0898,7.2129,0.0,0.0,0.0,0.0,0.0,0.0,0.0,0.0,0.0,0.0,0.0,0.0,0.0,7.6015,7.6015,7.6015,7.6015,7.6015,7.6746,7.84,7.7684,7.7965,7.967,7.9184,7.8738,7.8304,7.8276,7.9094,8.0691,8.0776,8.1669,8.318,8.3268,8.3239,8.321,8.3638,8.418,8.4719,8.5135,8.5647,8.6094,8.6094,8.6094,8.6094,8.6094,8.6094,8.6094,8.6094,8.7248,8.8709,8.8709,8.9825,9.121,9.121,9.121,9.121,9.121,9.121,9.121,9.121,9.121,9.121,9.121,9.121,9.121,9.121,9.121,9.121,9.121,9.121,9.121,9.121,9.121,9.121,9.121,9.121,9.121,9.121,9.121,9.121,9.121,9.121,9.121,9.121,9.121,9.121,9.121,9.121,9.121,9.121,9.121,9.121,9.121,9.121,9.121,9.121,9.121,9.121,9.121,9.121,9.121,0.0,0.0,0.0,0.0,0.0,0.0,7.04,7.069,7.0898,7.0898,7.1168,7.1783,0.0,0.0,0.0,0.0,0.0,0.0,0.0,0.0,0.0,0.0,0.0,0.0,7.6015,7.6015,7.6015,7.6015,7.6015,7.6746,7.84,7.7627,7.7905,7.967,7.8879,7.8414,7.8276,7.8276,7.9094,8.0691,8.1153,8.1985,8.321,8.3583,8.3564,8.321,8.3326,8.3854,8.4734,8.4825,8.5337,8.6094,8.6094,8.6094,8.6094,8.6094,8.6094,8.6094,8.6094,8.7248,8.8709,8.8709,8.9825,9.121,9.121,9.121,9.121,9.121,9.121,9.121,9.121,9.121,9.121,9.121,9.121,9.121,9.121,9.121,9.121,9.121,9.121,9.121,9.121,9.121,9.121,9.121,9.121,9.121,9.121,9.121,9.121,9.121,9.121,9.121,9.121,9.121,9.121,9.121,9.121,9.121,9.121,9.121,9.121,9.121,9.121,9.121,9.121,9.121,9.121,9.121,9.121,9.121,0.0,0.0,0.0,6.9323,0.0,0.0,0.0,7.032,7.0593,7.0593,7.1108,7.1822,7.2706,0.0,0.0,0.0,0.0,0.0,0.0,0.0,0.0,0.0,0.0,0.0,7.6015,7.6015,7.6015,7.6015,7.5787,7.6309,7.7823,7.7436,7.7716,7.9026,7.8803,7.8538,7.8304,7.8276,7.9094,8.0691,8.0963,8.1958,8.3564,8.3564,8.3564,8.3536,8.3289,8.362,8.4317,8.458,8.5131,8.5757,8.6026,8.6094,8.6094,8.6094,8.6094,8.6094,8.6094,8.6978,8.8132,8.8556,8.9556,9.0633,9.1056,9.121,9.121,9.121,9.121,9.121,9.121,9.121,9.121,9.121,9.121,9.121,9.121,9.121,9.121,9.121,9.121,9.121,9.121,9.121,9.121,9.121,9.121,9.121,9.121,9.121,9.121,9.121,9.121,9.121,9.121,9.121,9.121,9.121,9.121,9.121,9.121,9.121,9.121,9.121,9.121,9.121,9.121,9.121,9.121,9.121,9.121,9.121,0.0,0.0,0.0,0.0,0.0,6.9198,0.0,0.0,0.0,7.0167,7.1053,0.0,0.0,0.0,0.0,0.0,0.0,0.0,0.0,0.0,0.0,0.0,0.0,0.0,0.0,7.6015,7.6015,7.6015,7.5551,7.5901,7.7231,7.7264,7.7548,7.836,7.878,7.8752,7.8304,7.8276,7.9094,8.0691,8.0805,8.1893,8.3896,8.3583,8.3638,8.3896,8.362,8.3638,8.3975,8.458,8.505,8.5456,8.5919,8.6094,8.6094,8.6094,8.6094,8.6094,8.6094,8.6671,8.7555,8.8402,8.9363,9.0287,9.0979,9.121,9.121,9.121,9.121,9.121,9.121,9.121,9.121,9.121,9.121,9.121,9.121,9.121,9.121,9.121,9.121,9.121,9.121,9.121,9.121,9.121,9.121,9.121,9.121,9.121,9.121,9.121,9.121,9.121,9.121,9.121,9.121,9.121,9.121,9.121,9.121,9.121,9.121,9.121,9.121,9.121,9.121,9.121,9.121,9.121,9.121,9.121,0.0,0.0,0.0,0.0,6.8855,0.0,0.0,0.0,6.9758,6.9758,0.0,0.0,0.0,0.0,0.0,0.0,0.0,0.0,0.0,0.0,0.0,0.0,0.0,0.0,0.0,7.6015,7.6015,7.6015,7.5551,7.5901,7.7231,7.7264,7.7548,7.836,7.8818,7.8789,7.8304,7.8276,7.9094,8.0691,8.1169,8.2294,8.3922,8.4317,8.4292,8.3949,8.4379,8.4267,8.3963,8.4942,8.5357,8.5456,8.5919,8.6094,8.6094,8.6094,8.6094,8.6094,8.6094,8.6671,8.7555,8.8402,8.9787,9.1056,9.1171,9.121,9.121,9.121,9.121,9.121,9.121,9.121,9.121,9.121,9.121,9.121,9.121,9.121,9.121,9.121,9.121,9.121,9.121,9.121,9.121,9.121,9.121,9.121,9.121,9.121,9.121,9.121,9.121,9.121,9.121,9.121,9.121,9.121,9.121,9.121,9.121,9.121,9.121,9.121,9.121,9.121,9.121,9.121,9.121,9.121,9.121,9.121,0.0,0.0,0.0,0.0,0.0,0.0,6.874,0.0,6.9327,0.0,0.0,0.0,0.0,0.0,0.0,0.0,7.4822,0.0,0.0,0.0,0.0,0.0,0.0,0.0,0.0,0.0,0.0,0.0,7.6011,7.6207,7.6538,7.7197,7.7624,7.764,7.8768,7.9053,7.8304,7.8276,7.9094,8.0691,8.0935,8.2215,8.4341,8.4267,8.4438,8.4727,8.439,8.4267,8.439,8.481,8.5135,8.5456,8.5919,8.6094,8.6094,8.6094,8.6094,8.6094,8.6094,8.6324,8.6863,8.8248,8.9479,9.0556,9.1056,9.121,9.121,9.121,9.121,9.121,9.121,9.121,9.121,9.121,9.121,9.121,9.121,9.121,9.121,9.121,9.121,9.121,9.121,9.121,9.121,9.121,9.121,9.121,9.121,9.121,9.121,9.121,9.121,9.121,9.121,9.121,9.121,9.121,9.121,9.121,9.121,9.121,9.121,9.121,9.121,9.121,9.121,9.121,9.121,9.121,9.121,9.121,6.9707,0.0,0.0,0.0,0.0,0.0,0.0,0.0,0.0,0.0,0.0,0.0,0.0,0.0,0.0,0.0,0.0,7.4861,0.0,0.0,0.0,0.0,0.0,0.0,0.0,0.0,0.0,7.6053,7.6372,7.6437,7.6038,7.7198,7.7646,7.711,7.8777,7.9232,7.8304,7.8276,7.9094,8.0691,8.0691,8.211,8.4711,8.4292,8.4604,8.5377,8.4749,8.458,8.4734,8.5002,8.5214,8.5456,8.5919,8.6094,8.6094,8.6094,8.6094,8.6094,8.6094,8.6247,8.6709,8.8209,8.9248,9.0056,9.0941,9.121,9.121,9.121,9.121,9.121,9.121,9.121,9.121,9.121,9.121,9.121,9.121,9.121,9.121,9.121,9.121,9.121,9.121,9.121,9.121,9.121,9.121,9.121,9.121,9.121,9.121,9.121,9.121,9.121,9.121,9.121,9.121,9.121,9.121,9.121,9.121,9.121,9.121,9.121,9.121,9.121,9.121,9.121,9.121,9.121,9.121,9.121,0.0,0.0,0.0,6.9855,0.0,0.0,0.0,0.0,7.0846,0.0,0.0,0.0,0.0,0.0,0.0,0.0,0.0,0.0,0.0,0.0,0.0,0.0,0.0,0.0,0.0,0.0,0.0,7.6053,7.6372,7.6437,7.6038,7.7198,7.7646,7.711,7.8777,7.9232,7.8304,7.8276,7.9094,8.0691,8.0691,8.211,8.4711,8.4688,8.492,8.5436,8.5867,8.5514,8.4742,8.5684,8.5813,8.5456,8.5919,8.6094,8.6094,8.6094,8.6094,8.6094,8.6094,8.6632,8.7517,8.8402,8.9248,9.0056,9.0941,9.121,9.121,9.121,9.121,9.121,9.121,9.121,9.121,9.121,9.121,9.121,9.121,9.121,9.121,9.121,9.121,9.121,9.121,9.121,9.121,9.121,9.121,9.121,9.121,9.121,9.121,9.121,9.121,9.121,9.121,9.121,9.121,9.121,9.121,9.121,9.121,9.121,9.121,9.121,9.121,9.121,9.121,9.121,9.121,9.121,9.121,9.121,0.0,0.0,7.1552,7.071,0.0,0.0,0.0,0.0,0.0,0.0,0.0,0.0,0.0,0.0,0.0,0.0,0.0,0.0,0.0,0.0,0.0,0.0,0.0,0.0,0.0,0.0,0.0,7.6861,7.7501,7.7562,7.6899,7.833,7.8515,7.7148,7.8777,7.9232,7.8304,7.8276,7.9094,8.0691,8.0691,8.211,8.4711,8.4711,8.5152,8.5867,8.5702,8.5647,8.5628,8.5647,8.5721,8.5884,8.6043,8.6094,8.6094,8.6094,8.6094,8.6094,8.6094,8.6286,8.6786,8.8209,8.8863,8.9363,9.0787,9.121,9.121,9.121,9.121,9.121,9.121,9.121,9.121,9.121,9.121,9.121,9.121,9.121,9.121,9.121,9.121,9.121,9.121,9.121,9.121,9.121,9.121,9.121,9.121,9.121,9.121,9.121,9.121,9.121,9.121,9.121,9.121,9.121,9.121,9.121,9.121,9.121,9.121,9.121,9.121,9.121,9.121,9.121,9.121,9.121,9.121,9.121,7.2209,7.2432,0.0,7.1589,7.1589,0.0,7.1441,0.0,0.0,0.0,0.0,0.0,0.0,0.0,0.0,0.0,0.0,0.0,0.0,7.5902,0.0,0.0,0.0,0.0,0.0,0.0,0.0,7.7284,7.8054,7.813,0.0,0.0,7.905,7.7394,7.8862,7.9326,7.8565,7.8386,7.9094,8.0691,8.0691,8.211,8.4711,8.4711,8.5214,8.6077,8.5775,8.5831,8.6077,8.5757,8.5849,8.6094,8.6094,8.6094,8.6094,8.6094,8.6094,8.6094,8.6094,8.6094,8.6401,8.8132,8.8709,8.9017,9.071,9.121,9.1133,9.0825,9.0979,9.1133,9.0825,9.0979,9.121,9.121,9.121,9.121,9.121,9.121,9.121,9.121,9.121,9.121,9.121,9.121,9.121,9.121,9.121,9.121,9.121,9.121,9.121,9.121,9.121,9.121,9.121,9.121,9.121,9.121,9.121,9.121,9.121,9.121,9.121,9.121,9.121,9.121,9.121,9.121,9.121,9.121,9.121,9.121]}]]